<?xml version="1.0" encoding="UTF-8" standalone="no" ?>
<gpx xmlns="http://www.topografix.com/GPX/1/1" xmlns:xsi="http://www.w3.org/2001/XMLSchema-instance" xsi:schemaLocation="http://www.topografix.com/GPX/1/1 http://www.topografix.com/GPX/1/1/gpx.xsd" version="1.1" creator="VisuGPX - https://www.visugpx.com">
  <metadata>
    <name>Spéciales de la Siagne</name>
    <desc><![CDATA[2 spéciales de la Siagne  par Chevelu]]></desc>
  </metadata>
  <trk>
    <name><![CDATA[Untitled]]></name>
    <trkseg>
      <trkpt lat="43.60563" lon="6.90541">
        <ele>20.60000038147</ele>
        <time>2013-06-20T15:41:06.000Z</time>
      </trkpt>
      <trkpt lat="43.60563" lon="6.90541">
        <ele>20.60000038147</ele>
        <time>2013-06-20T15:41:07.000Z</time>
      </trkpt>
      <trkpt lat="43.60563" lon="6.9054">
        <ele>20.60000038147</ele>
        <time>2013-06-20T15:41:08.000Z</time>
      </trkpt>
      <trkpt lat="43.60558" lon="6.90538">
        <ele>20.60000038147</ele>
        <time>2013-06-20T15:41:56.000Z</time>
      </trkpt>
      <trkpt lat="43.60558" lon="6.90536">
        <ele>20.60000038147</ele>
        <time>2013-06-20T15:41:58.000Z</time>
      </trkpt>
      <trkpt lat="43.60555" lon="6.9052">
        <ele>20.60000038147</ele>
        <time>2013-06-20T15:42:04.000Z</time>
      </trkpt>
      <trkpt lat="43.60558" lon="6.90507">
        <ele>20.60000038147</ele>
        <time>2013-06-20T15:42:07.000Z</time>
      </trkpt>
      <trkpt lat="43.60568" lon="6.90487">
        <ele>20.60000038147</ele>
        <time>2013-06-20T15:42:11.000Z</time>
      </trkpt>
      <trkpt lat="43.60571" lon="6.90481">
        <ele>20.60000038147</ele>
        <time>2013-06-20T15:42:12.000Z</time>
      </trkpt>
      <trkpt lat="43.60588" lon="6.90439">
        <ele>20.60000038147</ele>
        <time>2013-06-20T15:42:17.000Z</time>
      </trkpt>
      <trkpt lat="43.60597" lon="6.90421">
        <ele>20</ele>
        <time>2013-06-20T15:42:19.000Z</time>
      </trkpt>
      <trkpt lat="43.60613" lon="6.904">
        <ele>19.60000038147</ele>
        <time>2013-06-20T15:42:22.000Z</time>
      </trkpt>
      <trkpt lat="43.60617" lon="6.90391">
        <ele>19.200000762939</ele>
        <time>2013-06-20T15:42:23.000Z</time>
      </trkpt>
      <trkpt lat="43.60621" lon="6.90382">
        <ele>18.60000038147</ele>
        <time>2013-06-20T15:42:24.000Z</time>
      </trkpt>
      <trkpt lat="43.60635" lon="6.90353">
        <ele>17.60000038147</ele>
        <time>2013-06-20T15:42:27.000Z</time>
      </trkpt>
      <trkpt lat="43.60644" lon="6.90331">
        <ele>17.200000762939</ele>
        <time>2013-06-20T15:42:29.000Z</time>
      </trkpt>
      <trkpt lat="43.60651" lon="6.90319">
        <ele>16.60000038147</ele>
        <time>2013-06-20T15:42:30.000Z</time>
      </trkpt>
      <trkpt lat="43.60677" lon="6.90287">
        <ele>15.199999809265</ele>
        <time>2013-06-20T15:42:33.000Z</time>
      </trkpt>
      <trkpt lat="43.60686" lon="6.90275">
        <ele>15</ele>
        <time>2013-06-20T15:42:34.000Z</time>
      </trkpt>
      <trkpt lat="43.60691" lon="6.90242">
        <ele>13.199999809265</ele>
        <time>2013-06-20T15:42:37.000Z</time>
      </trkpt>
      <trkpt lat="43.60685" lon="6.9022">
        <ele>12.60000038147</ele>
        <time>2013-06-20T15:42:39.000Z</time>
      </trkpt>
      <trkpt lat="43.60673" lon="6.90196">
        <ele>11.800000190735</ele>
        <time>2013-06-20T15:42:41.000Z</time>
      </trkpt>
      <trkpt lat="43.60672" lon="6.90185">
        <ele>11</ele>
        <time>2013-06-20T15:42:42.000Z</time>
      </trkpt>
      <trkpt lat="43.60671" lon="6.90175">
        <ele>10.800000190735</ele>
        <time>2013-06-20T15:42:43.000Z</time>
      </trkpt>
      <trkpt lat="43.60669" lon="6.90156">
        <ele>10</ele>
        <time>2013-06-20T15:42:45.000Z</time>
      </trkpt>
      <trkpt lat="43.60668" lon="6.90147">
        <ele>9.8000001907349</ele>
        <time>2013-06-20T15:42:46.000Z</time>
      </trkpt>
      <trkpt lat="43.60672" lon="6.90122">
        <ele>9</ele>
        <time>2013-06-20T15:42:49.000Z</time>
      </trkpt>
      <trkpt lat="43.60685" lon="6.90103">
        <ele>8.1999998092651</ele>
        <time>2013-06-20T15:42:52.000Z</time>
      </trkpt>
      <trkpt lat="43.6069" lon="6.90098">
        <ele>8.1999998092651</ele>
        <time>2013-06-20T15:42:53.000Z</time>
      </trkpt>
      <trkpt lat="43.60715" lon="6.9006">
        <ele>7.8000001907349</ele>
        <time>2013-06-20T15:42:59.000Z</time>
      </trkpt>
      <trkpt lat="43.60717" lon="6.90053">
        <ele>7.4000000953674</ele>
        <time>2013-06-20T15:43:00.000Z</time>
      </trkpt>
      <trkpt lat="43.60726" lon="6.90036">
        <ele>7.4000000953674</ele>
        <time>2013-06-20T15:43:03.000Z</time>
      </trkpt>
      <trkpt lat="43.60749" lon="6.89993">
        <ele>7</ele>
        <time>2013-06-20T15:43:10.000Z</time>
      </trkpt>
      <trkpt lat="43.60751" lon="6.89986">
        <ele>7</ele>
        <time>2013-06-20T15:43:11.000Z</time>
      </trkpt>
      <trkpt lat="43.6076" lon="6.8996">
        <ele>7</ele>
        <time>2013-06-20T15:43:15.000Z</time>
      </trkpt>
      <trkpt lat="43.60777" lon="6.8992">
        <ele>7</ele>
        <time>2013-06-20T15:43:21.000Z</time>
      </trkpt>
      <trkpt lat="43.60783" lon="6.89886">
        <ele>7</ele>
        <time>2013-06-20T15:43:26.000Z</time>
      </trkpt>
      <trkpt lat="43.60795" lon="6.89858">
        <ele>7</ele>
        <time>2013-06-20T15:43:31.000Z</time>
      </trkpt>
      <trkpt lat="43.60806" lon="6.89842">
        <ele>7</ele>
        <time>2013-06-20T15:43:35.000Z</time>
      </trkpt>
      <trkpt lat="43.60823" lon="6.89834">
        <ele>7</ele>
        <time>2013-06-20T15:43:38.000Z</time>
      </trkpt>
      <trkpt lat="43.60836" lon="6.89826">
        <ele>7</ele>
        <time>2013-06-20T15:43:41.000Z</time>
      </trkpt>
      <trkpt lat="43.60852" lon="6.89808">
        <ele>7</ele>
        <time>2013-06-20T15:43:45.000Z</time>
      </trkpt>
      <trkpt lat="43.60866" lon="6.89797">
        <ele>7</ele>
        <time>2013-06-20T15:43:48.000Z</time>
      </trkpt>
      <trkpt lat="43.60883" lon="6.89774">
        <ele>7</ele>
        <time>2013-06-20T15:43:52.000Z</time>
      </trkpt>
      <trkpt lat="43.60899" lon="6.89738">
        <ele>7</ele>
        <time>2013-06-20T15:43:57.000Z</time>
      </trkpt>
      <trkpt lat="43.60915" lon="6.89704">
        <ele>7</ele>
        <time>2013-06-20T15:44:02.000Z</time>
      </trkpt>
      <trkpt lat="43.6092" lon="6.89675">
        <ele>7</ele>
        <time>2013-06-20T15:44:07.000Z</time>
      </trkpt>
      <trkpt lat="43.60923" lon="6.89661">
        <ele>7</ele>
        <time>2013-06-20T15:44:09.000Z</time>
      </trkpt>
      <trkpt lat="43.60939" lon="6.89622">
        <ele>7</ele>
        <time>2013-06-20T15:44:16.000Z</time>
      </trkpt>
      <trkpt lat="43.60946" lon="6.89604">
        <ele>7</ele>
        <time>2013-06-20T15:44:19.000Z</time>
      </trkpt>
      <trkpt lat="43.60968" lon="6.89586">
        <ele>7</ele>
        <time>2013-06-20T15:44:23.000Z</time>
      </trkpt>
      <trkpt lat="43.6098" lon="6.8958">
        <ele>7</ele>
        <time>2013-06-20T15:44:25.000Z</time>
      </trkpt>
      <trkpt lat="43.61004" lon="6.89561">
        <ele>7</ele>
        <time>2013-06-20T15:44:30.000Z</time>
      </trkpt>
      <trkpt lat="43.61016" lon="6.89547">
        <ele>7</ele>
        <time>2013-06-20T15:44:35.000Z</time>
      </trkpt>
      <trkpt lat="43.61038" lon="6.8953">
        <ele>7</ele>
        <time>2013-06-20T15:44:42.000Z</time>
      </trkpt>
      <trkpt lat="43.6106" lon="6.89512">
        <ele>7</ele>
        <time>2013-06-20T15:44:48.000Z</time>
      </trkpt>
      <trkpt lat="43.61085" lon="6.89497">
        <ele>7</ele>
        <time>2013-06-20T15:44:53.000Z</time>
      </trkpt>
      <trkpt lat="43.61094" lon="6.89493">
        <ele>7</ele>
        <time>2013-06-20T15:44:55.000Z</time>
      </trkpt>
      <trkpt lat="43.61113" lon="6.89482">
        <ele>7</ele>
        <time>2013-06-20T15:45:00.000Z</time>
      </trkpt>
      <trkpt lat="43.6112" lon="6.89477">
        <ele>7</ele>
        <time>2013-06-20T15:45:02.000Z</time>
      </trkpt>
      <trkpt lat="43.61131" lon="6.8947">
        <ele>7.4000000953674</ele>
        <time>2013-06-20T15:45:04.000Z</time>
      </trkpt>
      <trkpt lat="43.6114" lon="6.89462">
        <ele>7.8000001907349</ele>
        <time>2013-06-20T15:45:06.000Z</time>
      </trkpt>
      <trkpt lat="43.61148" lon="6.89453">
        <ele>8</ele>
        <time>2013-06-20T15:45:08.000Z</time>
      </trkpt>
      <trkpt lat="43.61151" lon="6.89449">
        <ele>8</ele>
        <time>2013-06-20T15:45:09.000Z</time>
      </trkpt>
      <trkpt lat="43.61154" lon="6.89445">
        <ele>8</ele>
        <time>2013-06-20T15:45:10.000Z</time>
      </trkpt>
      <trkpt lat="43.61163" lon="6.89428">
        <ele>8.6000003814697</ele>
        <time>2013-06-20T15:45:14.000Z</time>
      </trkpt>
      <trkpt lat="43.61176" lon="6.89402">
        <ele>8.8000001907349</ele>
        <time>2013-06-20T15:45:19.000Z</time>
      </trkpt>
      <trkpt lat="43.61181" lon="6.89377">
        <ele>8.8000001907349</ele>
        <time>2013-06-20T15:45:23.000Z</time>
      </trkpt>
      <trkpt lat="43.61186" lon="6.89365">
        <ele>8.8000001907349</ele>
        <time>2013-06-20T15:45:25.000Z</time>
      </trkpt>
      <trkpt lat="43.61193" lon="6.89335">
        <ele>9</ele>
        <time>2013-06-20T15:45:30.000Z</time>
      </trkpt>
      <trkpt lat="43.61193" lon="6.89328">
        <ele>9</ele>
        <time>2013-06-20T15:45:31.000Z</time>
      </trkpt>
      <trkpt lat="43.61195" lon="6.89299">
        <ele>9</ele>
        <time>2013-06-20T15:45:35.000Z</time>
      </trkpt>
      <trkpt lat="43.61195" lon="6.89286">
        <ele>9</ele>
        <time>2013-06-20T15:45:37.000Z</time>
      </trkpt>
      <trkpt lat="43.61193" lon="6.89267">
        <ele>9</ele>
        <time>2013-06-20T15:45:39.000Z</time>
      </trkpt>
      <trkpt lat="43.61183" lon="6.89236">
        <ele>9</ele>
        <time>2013-06-20T15:45:43.000Z</time>
      </trkpt>
      <trkpt lat="43.61177" lon="6.89224">
        <ele>9</ele>
        <time>2013-06-20T15:45:45.000Z</time>
      </trkpt>
      <trkpt lat="43.61166" lon="6.89195">
        <ele>9</ele>
        <time>2013-06-20T15:45:50.000Z</time>
      </trkpt>
      <trkpt lat="43.61163" lon="6.8919">
        <ele>9</ele>
        <time>2013-06-20T15:45:51.000Z</time>
      </trkpt>
      <trkpt lat="43.61151" lon="6.89169">
        <ele>9</ele>
        <time>2013-06-20T15:45:56.000Z</time>
      </trkpt>
      <trkpt lat="43.61148" lon="6.89161">
        <ele>9</ele>
        <time>2013-06-20T15:45:58.000Z</time>
      </trkpt>
      <trkpt lat="43.61144" lon="6.89151">
        <ele>9.6000003814697</ele>
        <time>2013-06-20T15:46:00.000Z</time>
      </trkpt>
      <trkpt lat="43.61141" lon="6.89144">
        <ele>10</ele>
        <time>2013-06-20T15:46:02.000Z</time>
      </trkpt>
      <trkpt lat="43.61137" lon="6.89138">
        <ele>10</ele>
        <time>2013-06-20T15:46:04.000Z</time>
      </trkpt>
      <trkpt lat="43.61132" lon="6.89134">
        <ele>10.199999809265</ele>
        <time>2013-06-20T15:46:06.000Z</time>
      </trkpt>
      <trkpt lat="43.61127" lon="6.89129">
        <ele>10.60000038147</ele>
        <time>2013-06-20T15:46:08.000Z</time>
      </trkpt>
      <trkpt lat="43.61108" lon="6.89114">
        <ele>10.800000190735</ele>
        <time>2013-06-20T15:46:14.000Z</time>
      </trkpt>
      <trkpt lat="43.61105" lon="6.89112">
        <ele>11</ele>
        <time>2013-06-20T15:46:15.000Z</time>
      </trkpt>
      <trkpt lat="43.61097" lon="6.89106">
        <ele>11.199999809265</ele>
        <time>2013-06-20T15:46:17.000Z</time>
      </trkpt>
      <trkpt lat="43.61088" lon="6.89099">
        <ele>11.800000190735</ele>
        <time>2013-06-20T15:46:19.000Z</time>
      </trkpt>
      <trkpt lat="43.61082" lon="6.89095">
        <ele>12</ele>
        <time>2013-06-20T15:46:20.000Z</time>
      </trkpt>
      <trkpt lat="43.61077" lon="6.89093">
        <ele>12</ele>
        <time>2013-06-20T15:46:21.000Z</time>
      </trkpt>
      <trkpt lat="43.6107" lon="6.89092">
        <ele>12</ele>
        <time>2013-06-20T15:46:22.000Z</time>
      </trkpt>
      <trkpt lat="43.6106" lon="6.89088">
        <ele>12.199999809265</ele>
        <time>2013-06-20T15:46:24.000Z</time>
      </trkpt>
      <trkpt lat="43.61047" lon="6.89072">
        <ele>12.60000038147</ele>
        <time>2013-06-20T15:46:27.000Z</time>
      </trkpt>
      <trkpt lat="43.61025" lon="6.89042">
        <ele>12.800000190735</ele>
        <time>2013-06-20T15:46:32.000Z</time>
      </trkpt>
      <trkpt lat="43.61021" lon="6.89036">
        <ele>12.800000190735</ele>
        <time>2013-06-20T15:46:33.000Z</time>
      </trkpt>
      <trkpt lat="43.61003" lon="6.89017">
        <ele>13</ele>
        <time>2013-06-20T15:46:37.000Z</time>
      </trkpt>
      <trkpt lat="43.60982" lon="6.88998">
        <ele>13</ele>
        <time>2013-06-20T15:46:42.000Z</time>
      </trkpt>
      <trkpt lat="43.60965" lon="6.88972">
        <ele>13</ele>
        <time>2013-06-20T15:46:47.000Z</time>
      </trkpt>
      <trkpt lat="43.60952" lon="6.88951">
        <ele>13</ele>
        <time>2013-06-20T15:46:51.000Z</time>
      </trkpt>
      <trkpt lat="43.60946" lon="6.8891">
        <ele>13</ele>
        <time>2013-06-20T15:46:57.000Z</time>
      </trkpt>
      <trkpt lat="43.60942" lon="6.88883">
        <ele>13</ele>
        <time>2013-06-20T15:47:02.000Z</time>
      </trkpt>
      <trkpt lat="43.60942" lon="6.88876">
        <ele>13</ele>
        <time>2013-06-20T15:47:03.000Z</time>
      </trkpt>
      <trkpt lat="43.60933" lon="6.8885">
        <ele>13</ele>
        <time>2013-06-20T15:47:07.000Z</time>
      </trkpt>
      <trkpt lat="43.60923" lon="6.88836">
        <ele>13</ele>
        <time>2013-06-20T15:47:10.000Z</time>
      </trkpt>
      <trkpt lat="43.60916" lon="6.88832">
        <ele>13</ele>
        <time>2013-06-20T15:47:12.000Z</time>
      </trkpt>
      <trkpt lat="43.609" lon="6.88835">
        <ele>13</ele>
        <time>2013-06-20T15:47:16.000Z</time>
      </trkpt>
      <trkpt lat="43.60895" lon="6.88838">
        <ele>13</ele>
        <time>2013-06-20T15:47:17.000Z</time>
      </trkpt>
      <trkpt lat="43.60871" lon="6.8885">
        <ele>13</ele>
        <time>2013-06-20T15:47:23.000Z</time>
      </trkpt>
      <trkpt lat="43.60868" lon="6.88849">
        <ele>13</ele>
        <time>2013-06-20T15:47:24.000Z</time>
      </trkpt>
      <trkpt lat="43.60859" lon="6.88837">
        <ele>13.199999809265</ele>
        <time>2013-06-20T15:47:27.000Z</time>
      </trkpt>
      <trkpt lat="43.60853" lon="6.88828">
        <ele>13.800000190735</ele>
        <time>2013-06-20T15:47:29.000Z</time>
      </trkpt>
      <trkpt lat="43.60848" lon="6.88821">
        <ele>14</ele>
        <time>2013-06-20T15:47:31.000Z</time>
      </trkpt>
      <trkpt lat="43.60845" lon="6.88817">
        <ele>14.199999809265</ele>
        <time>2013-06-20T15:47:33.000Z</time>
      </trkpt>
      <trkpt lat="43.60844" lon="6.88814">
        <ele>14.199999809265</ele>
        <time>2013-06-20T15:47:34.000Z</time>
      </trkpt>
      <trkpt lat="43.60842" lon="6.88806">
        <ele>15</ele>
        <time>2013-06-20T15:47:37.000Z</time>
      </trkpt>
      <trkpt lat="43.6084" lon="6.88801">
        <ele>15.60000038147</ele>
        <time>2013-06-20T15:47:39.000Z</time>
      </trkpt>
      <trkpt lat="43.6084" lon="6.88799">
        <ele>15.800000190735</ele>
        <time>2013-06-20T15:47:40.000Z</time>
      </trkpt>
      <trkpt lat="43.60837" lon="6.88793">
        <ele>16.200000762939</ele>
        <time>2013-06-20T15:47:43.000Z</time>
      </trkpt>
      <trkpt lat="43.60835" lon="6.88792">
        <ele>16.60000038147</ele>
        <time>2013-06-20T15:47:44.000Z</time>
      </trkpt>
      <trkpt lat="43.60832" lon="6.88788">
        <ele>17.200000762939</ele>
        <time>2013-06-20T15:47:46.000Z</time>
      </trkpt>
      <trkpt lat="43.6083" lon="6.88784">
        <ele>17.60000038147</ele>
        <time>2013-06-20T15:47:48.000Z</time>
      </trkpt>
      <trkpt lat="43.60829" lon="6.88782">
        <ele>18</ele>
        <time>2013-06-20T15:47:49.000Z</time>
      </trkpt>
      <trkpt lat="43.60828" lon="6.88779">
        <ele>18.200000762939</ele>
        <time>2013-06-20T15:47:50.000Z</time>
      </trkpt>
      <trkpt lat="43.60828" lon="6.88776">
        <ele>18.60000038147</ele>
        <time>2013-06-20T15:47:52.000Z</time>
      </trkpt>
      <trkpt lat="43.60828" lon="6.88775">
        <ele>19.200000762939</ele>
        <time>2013-06-20T15:47:53.000Z</time>
      </trkpt>
      <trkpt lat="43.60826" lon="6.88772">
        <ele>20.200000762939</ele>
        <time>2013-06-20T15:47:56.000Z</time>
      </trkpt>
      <trkpt lat="43.60825" lon="6.88771">
        <ele>20.200000762939</ele>
        <time>2013-06-20T15:47:57.000Z</time>
      </trkpt>
      <trkpt lat="43.60825" lon="6.88764">
        <ele>21</ele>
        <time>2013-06-20T15:48:00.000Z</time>
      </trkpt>
      <trkpt lat="43.60825" lon="6.88762">
        <ele>21.200000762939</ele>
        <time>2013-06-20T15:48:01.000Z</time>
      </trkpt>
      <trkpt lat="43.60822" lon="6.88757">
        <ele>22.200000762939</ele>
        <time>2013-06-20T15:48:03.000Z</time>
      </trkpt>
      <trkpt lat="43.60821" lon="6.88755">
        <ele>22.200000762939</ele>
        <time>2013-06-20T15:48:04.000Z</time>
      </trkpt>
      <trkpt lat="43.6082" lon="6.88753">
        <ele>22.60000038147</ele>
        <time>2013-06-20T15:48:05.000Z</time>
      </trkpt>
      <trkpt lat="43.60817" lon="6.8875">
        <ele>23.200000762939</ele>
        <time>2013-06-20T15:48:07.000Z</time>
      </trkpt>
      <trkpt lat="43.60815" lon="6.88745">
        <ele>23.60000038147</ele>
        <time>2013-06-20T15:48:09.000Z</time>
      </trkpt>
      <trkpt lat="43.60814" lon="6.88743">
        <ele>24</ele>
        <time>2013-06-20T15:48:10.000Z</time>
      </trkpt>
      <trkpt lat="43.60814" lon="6.88741">
        <ele>24.200000762939</ele>
        <time>2013-06-20T15:48:11.000Z</time>
      </trkpt>
      <trkpt lat="43.60814" lon="6.88733">
        <ele>25</ele>
        <time>2013-06-20T15:48:14.000Z</time>
      </trkpt>
      <trkpt lat="43.60815" lon="6.88728">
        <ele>25.200000762939</ele>
        <time>2013-06-20T15:48:16.000Z</time>
      </trkpt>
      <trkpt lat="43.60815" lon="6.88726">
        <ele>25.60000038147</ele>
        <time>2013-06-20T15:48:17.000Z</time>
      </trkpt>
      <trkpt lat="43.60816" lon="6.88725">
        <ele>25.60000038147</ele>
        <time>2013-06-20T15:48:18.000Z</time>
      </trkpt>
      <trkpt lat="43.6082" lon="6.88722">
        <ele>26.200000762939</ele>
        <time>2013-06-20T15:48:21.000Z</time>
      </trkpt>
      <trkpt lat="43.60821" lon="6.88722">
        <ele>26.60000038147</ele>
        <time>2013-06-20T15:48:22.000Z</time>
      </trkpt>
      <trkpt lat="43.60822" lon="6.88722">
        <ele>27</ele>
        <time>2013-06-20T15:48:23.000Z</time>
      </trkpt>
      <trkpt lat="43.60824" lon="6.88723">
        <ele>27.200000762939</ele>
        <time>2013-06-20T15:48:25.000Z</time>
      </trkpt>
      <trkpt lat="43.60826" lon="6.88725">
        <ele>27.60000038147</ele>
        <time>2013-06-20T15:48:27.000Z</time>
      </trkpt>
      <trkpt lat="43.60827" lon="6.88726">
        <ele>28.200000762939</ele>
        <time>2013-06-20T15:48:28.000Z</time>
      </trkpt>
      <trkpt lat="43.60827" lon="6.88727">
        <ele>28.200000762939</ele>
        <time>2013-06-20T15:48:29.000Z</time>
      </trkpt>
      <trkpt lat="43.60828" lon="6.88728">
        <ele>28.60000038147</ele>
        <time>2013-06-20T15:48:30.000Z</time>
      </trkpt>
      <trkpt lat="43.60829" lon="6.88731">
        <ele>29.200000762939</ele>
        <time>2013-06-20T15:48:32.000Z</time>
      </trkpt>
      <trkpt lat="43.60829" lon="6.88733">
        <ele>29.60000038147</ele>
        <time>2013-06-20T15:48:34.000Z</time>
      </trkpt>
      <trkpt lat="43.6083" lon="6.88734">
        <ele>30.200000762939</ele>
        <time>2013-06-20T15:48:35.000Z</time>
      </trkpt>
      <trkpt lat="43.60831" lon="6.88736">
        <ele>30.60000038147</ele>
        <time>2013-06-20T15:48:37.000Z</time>
      </trkpt>
      <trkpt lat="43.60832" lon="6.8874">
        <ele>31.200000762939</ele>
        <time>2013-06-20T15:48:39.000Z</time>
      </trkpt>
      <trkpt lat="43.60834" lon="6.88742">
        <ele>31.60000038147</ele>
        <time>2013-06-20T15:48:40.000Z</time>
      </trkpt>
      <trkpt lat="43.60839" lon="6.88749">
        <ele>32.400001525879</ele>
        <time>2013-06-20T15:48:43.000Z</time>
      </trkpt>
      <trkpt lat="43.6084" lon="6.88751">
        <ele>32.400001525879</ele>
        <time>2013-06-20T15:48:44.000Z</time>
      </trkpt>
      <trkpt lat="43.60844" lon="6.88757">
        <ele>33.400001525879</ele>
        <time>2013-06-20T15:48:47.000Z</time>
      </trkpt>
      <trkpt lat="43.60847" lon="6.8876">
        <ele>34</ele>
        <time>2013-06-20T15:48:49.000Z</time>
      </trkpt>
      <trkpt lat="43.6085" lon="6.88764">
        <ele>34.400001525879</ele>
        <time>2013-06-20T15:48:51.000Z</time>
      </trkpt>
      <trkpt lat="43.60856" lon="6.88767">
        <ele>35</ele>
        <time>2013-06-20T15:48:54.000Z</time>
      </trkpt>
      <trkpt lat="43.60861" lon="6.88767">
        <ele>35.400001525879</ele>
        <time>2013-06-20T15:48:56.000Z</time>
      </trkpt>
      <trkpt lat="43.60865" lon="6.88764">
        <ele>36</ele>
        <time>2013-06-20T15:48:58.000Z</time>
      </trkpt>
      <trkpt lat="43.60869" lon="6.8876">
        <ele>36.200000762939</ele>
        <time>2013-06-20T15:49:00.000Z</time>
      </trkpt>
      <trkpt lat="43.60872" lon="6.88755">
        <ele>36.400001525879</ele>
        <time>2013-06-20T15:49:02.000Z</time>
      </trkpt>
      <trkpt lat="43.60883" lon="6.88734">
        <ele>37.200000762939</ele>
        <time>2013-06-20T15:49:09.000Z</time>
      </trkpt>
      <trkpt lat="43.60896" lon="6.88712">
        <ele>37.400001525879</ele>
        <time>2013-06-20T15:49:16.000Z</time>
      </trkpt>
      <trkpt lat="43.60905" lon="6.88695">
        <ele>37.400001525879</ele>
        <time>2013-06-20T15:49:21.000Z</time>
      </trkpt>
      <trkpt lat="43.60908" lon="6.88688">
        <ele>37.400001525879</ele>
        <time>2013-06-20T15:49:23.000Z</time>
      </trkpt>
      <trkpt lat="43.60911" lon="6.8868">
        <ele>38</ele>
        <time>2013-06-20T15:49:26.000Z</time>
      </trkpt>
      <trkpt lat="43.60913" lon="6.88674">
        <ele>38.200000762939</ele>
        <time>2013-06-20T15:49:28.000Z</time>
      </trkpt>
      <trkpt lat="43.60914" lon="6.88667">
        <ele>38.400001525879</ele>
        <time>2013-06-20T15:49:30.000Z</time>
      </trkpt>
      <trkpt lat="43.60915" lon="6.88662">
        <ele>38.599998474121</ele>
        <time>2013-06-20T15:49:32.000Z</time>
      </trkpt>
      <trkpt lat="43.60917" lon="6.88657">
        <ele>39</ele>
        <time>2013-06-20T15:49:34.000Z</time>
      </trkpt>
      <trkpt lat="43.60922" lon="6.88651">
        <ele>39.400001525879</ele>
        <time>2013-06-20T15:49:37.000Z</time>
      </trkpt>
      <trkpt lat="43.60925" lon="6.88648">
        <ele>40</ele>
        <time>2013-06-20T15:49:39.000Z</time>
      </trkpt>
      <trkpt lat="43.60928" lon="6.88645">
        <ele>40.400001525879</ele>
        <time>2013-06-20T15:49:41.000Z</time>
      </trkpt>
      <trkpt lat="43.6093" lon="6.88643">
        <ele>40.400001525879</ele>
        <time>2013-06-20T15:49:43.000Z</time>
      </trkpt>
      <trkpt lat="43.60932" lon="6.88642">
        <ele>40.599998474121</ele>
        <time>2013-06-20T15:49:45.000Z</time>
      </trkpt>
      <trkpt lat="43.60937" lon="6.88637">
        <ele>41.400001525879</ele>
        <time>2013-06-20T15:49:48.000Z</time>
      </trkpt>
      <trkpt lat="43.6094" lon="6.88633">
        <ele>41.599998474121</ele>
        <time>2013-06-20T15:49:50.000Z</time>
      </trkpt>
      <trkpt lat="43.60943" lon="6.88629">
        <ele>42.200000762939</ele>
        <time>2013-06-20T15:49:52.000Z</time>
      </trkpt>
      <trkpt lat="43.60946" lon="6.88625">
        <ele>42.400001525879</ele>
        <time>2013-06-20T15:49:54.000Z</time>
      </trkpt>
      <trkpt lat="43.60949" lon="6.88623">
        <ele>42.599998474121</ele>
        <time>2013-06-20T15:49:56.000Z</time>
      </trkpt>
      <trkpt lat="43.60954" lon="6.88618">
        <ele>43.400001525879</ele>
        <time>2013-06-20T15:49:59.000Z</time>
      </trkpt>
      <trkpt lat="43.60958" lon="6.88616">
        <ele>44</ele>
        <time>2013-06-20T15:50:01.000Z</time>
      </trkpt>
      <trkpt lat="43.60962" lon="6.88614">
        <ele>44.400001525879</ele>
        <time>2013-06-20T15:50:03.000Z</time>
      </trkpt>
      <trkpt lat="43.60965" lon="6.88612">
        <ele>44.400001525879</ele>
        <time>2013-06-20T15:50:05.000Z</time>
      </trkpt>
      <trkpt lat="43.60969" lon="6.88611">
        <ele>45.200000762939</ele>
        <time>2013-06-20T15:50:07.000Z</time>
      </trkpt>
      <trkpt lat="43.60973" lon="6.8861">
        <ele>45.599998474121</ele>
        <time>2013-06-20T15:50:09.000Z</time>
      </trkpt>
      <trkpt lat="43.60977" lon="6.88609">
        <ele>46.200000762939</ele>
        <time>2013-06-20T15:50:11.000Z</time>
      </trkpt>
      <trkpt lat="43.60981" lon="6.88608">
        <ele>46.400001525879</ele>
        <time>2013-06-20T15:50:13.000Z</time>
      </trkpt>
      <trkpt lat="43.60985" lon="6.88607">
        <ele>47</ele>
        <time>2013-06-20T15:50:15.000Z</time>
      </trkpt>
      <trkpt lat="43.61002" lon="6.88606">
        <ele>47.400001525879</ele>
        <time>2013-06-20T15:50:22.000Z</time>
      </trkpt>
      <trkpt lat="43.61012" lon="6.88601">
        <ele>47.599998474121</ele>
        <time>2013-06-20T15:50:27.000Z</time>
      </trkpt>
      <trkpt lat="43.6102" lon="6.88587">
        <ele>48.200000762939</ele>
        <time>2013-06-20T15:50:33.000Z</time>
      </trkpt>
      <trkpt lat="43.61022" lon="6.88582">
        <ele>48.400001525879</ele>
        <time>2013-06-20T15:50:35.000Z</time>
      </trkpt>
      <trkpt lat="43.61024" lon="6.88578">
        <ele>49</ele>
        <time>2013-06-20T15:50:37.000Z</time>
      </trkpt>
      <trkpt lat="43.61024" lon="6.88573">
        <ele>49.200000762939</ele>
        <time>2013-06-20T15:50:39.000Z</time>
      </trkpt>
      <trkpt lat="43.61022" lon="6.88572">
        <ele>49.400001525879</ele>
        <time>2013-06-20T15:50:40.000Z</time>
      </trkpt>
      <trkpt lat="43.61021" lon="6.88573">
        <ele>49.400001525879</ele>
        <time>2013-06-20T15:50:41.000Z</time>
      </trkpt>
      <trkpt lat="43.61017" lon="6.88575">
        <ele>50.200000762939</ele>
        <time>2013-06-20T15:50:43.000Z</time>
      </trkpt>
      <trkpt lat="43.61013" lon="6.88578">
        <ele>50.400001525879</ele>
        <time>2013-06-20T15:50:45.000Z</time>
      </trkpt>
      <trkpt lat="43.61011" lon="6.88579">
        <ele>51</ele>
        <time>2013-06-20T15:50:47.000Z</time>
      </trkpt>
      <trkpt lat="43.61007" lon="6.88581">
        <ele>51.200000762939</ele>
        <time>2013-06-20T15:50:49.000Z</time>
      </trkpt>
      <trkpt lat="43.61001" lon="6.88582">
        <ele>51.400001525879</ele>
        <time>2013-06-20T15:50:53.000Z</time>
      </trkpt>
      <trkpt lat="43.60995" lon="6.88579">
        <ele>52</ele>
        <time>2013-06-20T15:50:56.000Z</time>
      </trkpt>
      <trkpt lat="43.60991" lon="6.88575">
        <ele>52.400001525879</ele>
        <time>2013-06-20T15:50:58.000Z</time>
      </trkpt>
      <trkpt lat="43.6099" lon="6.88573">
        <ele>52.400001525879</ele>
        <time>2013-06-20T15:50:59.000Z</time>
      </trkpt>
      <trkpt lat="43.60988" lon="6.88571">
        <ele>52.599998474121</ele>
        <time>2013-06-20T15:51:00.000Z</time>
      </trkpt>
      <trkpt lat="43.60987" lon="6.8857">
        <ele>53</ele>
        <time>2013-06-20T15:51:01.000Z</time>
      </trkpt>
      <trkpt lat="43.60982" lon="6.88564">
        <ele>53.400001525879</ele>
        <time>2013-06-20T15:51:04.000Z</time>
      </trkpt>
      <trkpt lat="43.6098" lon="6.88559">
        <ele>53.599998474121</ele>
        <time>2013-06-20T15:51:06.000Z</time>
      </trkpt>
      <trkpt lat="43.60978" lon="6.88554">
        <ele>54.400001525879</ele>
        <time>2013-06-20T15:51:08.000Z</time>
      </trkpt>
      <trkpt lat="43.60976" lon="6.8855">
        <ele>54.599998474121</ele>
        <time>2013-06-20T15:51:10.000Z</time>
      </trkpt>
      <trkpt lat="43.60975" lon="6.88547">
        <ele>55.200000762939</ele>
        <time>2013-06-20T15:51:12.000Z</time>
      </trkpt>
      <trkpt lat="43.60974" lon="6.88545">
        <ele>55.200000762939</ele>
        <time>2013-06-20T15:51:13.000Z</time>
      </trkpt>
      <trkpt lat="43.60973" lon="6.88536">
        <ele>56.200000762939</ele>
        <time>2013-06-20T15:51:16.000Z</time>
      </trkpt>
      <trkpt lat="43.60971" lon="6.88532">
        <ele>56.400001525879</ele>
        <time>2013-06-20T15:51:18.000Z</time>
      </trkpt>
      <trkpt lat="43.60969" lon="6.88528">
        <ele>57</ele>
        <time>2013-06-20T15:51:20.000Z</time>
      </trkpt>
      <trkpt lat="43.60969" lon="6.88524">
        <ele>57.400001525879</ele>
        <time>2013-06-20T15:51:22.000Z</time>
      </trkpt>
      <trkpt lat="43.60969" lon="6.88522">
        <ele>57.400001525879</ele>
        <time>2013-06-20T15:51:23.000Z</time>
      </trkpt>
      <trkpt lat="43.60969" lon="6.8852">
        <ele>57.400001525879</ele>
        <time>2013-06-20T15:51:24.000Z</time>
      </trkpt>
      <trkpt lat="43.60971" lon="6.88515">
        <ele>58</ele>
        <time>2013-06-20T15:51:26.000Z</time>
      </trkpt>
      <trkpt lat="43.60973" lon="6.8851">
        <ele>58.400001525879</ele>
        <time>2013-06-20T15:51:28.000Z</time>
      </trkpt>
      <trkpt lat="43.60974" lon="6.88505">
        <ele>59</ele>
        <time>2013-06-20T15:51:30.000Z</time>
      </trkpt>
      <trkpt lat="43.60975" lon="6.88501">
        <ele>59.400001525879</ele>
        <time>2013-06-20T15:51:32.000Z</time>
      </trkpt>
      <trkpt lat="43.60975" lon="6.88498">
        <ele>59.400001525879</ele>
        <time>2013-06-20T15:51:33.000Z</time>
      </trkpt>
      <trkpt lat="43.60976" lon="6.88496">
        <ele>59.400001525879</ele>
        <time>2013-06-20T15:51:34.000Z</time>
      </trkpt>
      <trkpt lat="43.60976" lon="6.88492">
        <ele>60</ele>
        <time>2013-06-20T15:51:36.000Z</time>
      </trkpt>
      <trkpt lat="43.60975" lon="6.8849">
        <ele>60.400001525879</ele>
        <time>2013-06-20T15:51:37.000Z</time>
      </trkpt>
      <trkpt lat="43.60975" lon="6.88488">
        <ele>60.400001525879</ele>
        <time>2013-06-20T15:51:38.000Z</time>
      </trkpt>
      <trkpt lat="43.60974" lon="6.88485">
        <ele>61</ele>
        <time>2013-06-20T15:51:40.000Z</time>
      </trkpt>
      <trkpt lat="43.60973" lon="6.88481">
        <ele>61.400001525879</ele>
        <time>2013-06-20T15:51:42.000Z</time>
      </trkpt>
      <trkpt lat="43.60972" lon="6.88477">
        <ele>61.400001525879</ele>
        <time>2013-06-20T15:51:44.000Z</time>
      </trkpt>
      <trkpt lat="43.60971" lon="6.88476">
        <ele>61.599998474121</ele>
        <time>2013-06-20T15:51:45.000Z</time>
      </trkpt>
      <trkpt lat="43.6097" lon="6.88475">
        <ele>61.599998474121</ele>
        <time>2013-06-20T15:51:46.000Z</time>
      </trkpt>
      <trkpt lat="43.60967" lon="6.88471">
        <ele>62.400001525879</ele>
        <time>2013-06-20T15:51:49.000Z</time>
      </trkpt>
      <trkpt lat="43.60966" lon="6.88466">
        <ele>63.200000762939</ele>
        <time>2013-06-20T15:51:51.000Z</time>
      </trkpt>
      <trkpt lat="43.60966" lon="6.88463">
        <ele>63.200000762939</ele>
        <time>2013-06-20T15:51:52.000Z</time>
      </trkpt>
      <trkpt lat="43.60966" lon="6.88454">
        <ele>63.599998474121</ele>
        <time>2013-06-20T15:51:55.000Z</time>
      </trkpt>
      <trkpt lat="43.60967" lon="6.8845">
        <ele>64</ele>
        <time>2013-06-20T15:51:56.000Z</time>
      </trkpt>
      <trkpt lat="43.60968" lon="6.88443">
        <ele>64.400001525879</ele>
        <time>2013-06-20T15:51:59.000Z</time>
      </trkpt>
      <trkpt lat="43.6097" lon="6.88439">
        <ele>65</ele>
        <time>2013-06-20T15:52:00.000Z</time>
      </trkpt>
      <trkpt lat="43.6097" lon="6.88437">
        <ele>65.400001525879</ele>
        <time>2013-06-20T15:52:01.000Z</time>
      </trkpt>
      <trkpt lat="43.60972" lon="6.88433">
        <ele>66</ele>
        <time>2013-06-20T15:52:03.000Z</time>
      </trkpt>
      <trkpt lat="43.60974" lon="6.88429">
        <ele>66.400001525879</ele>
        <time>2013-06-20T15:52:05.000Z</time>
      </trkpt>
      <trkpt lat="43.60976" lon="6.88424">
        <ele>67</ele>
        <time>2013-06-20T15:52:07.000Z</time>
      </trkpt>
      <trkpt lat="43.60976" lon="6.88422">
        <ele>67.400001525879</ele>
        <time>2013-06-20T15:52:08.000Z</time>
      </trkpt>
      <trkpt lat="43.60976" lon="6.88417">
        <ele>67.800003051758</ele>
        <time>2013-06-20T15:52:10.000Z</time>
      </trkpt>
      <trkpt lat="43.60976" lon="6.88413">
        <ele>68.400001525879</ele>
        <time>2013-06-20T15:52:12.000Z</time>
      </trkpt>
      <trkpt lat="43.60976" lon="6.8841">
        <ele>68.800003051758</ele>
        <time>2013-06-20T15:52:13.000Z</time>
      </trkpt>
      <trkpt lat="43.60975" lon="6.88407">
        <ele>69</ele>
        <time>2013-06-20T15:52:14.000Z</time>
      </trkpt>
      <trkpt lat="43.60974" lon="6.88401">
        <ele>69.400001525879</ele>
        <time>2013-06-20T15:52:16.000Z</time>
      </trkpt>
      <trkpt lat="43.60972" lon="6.88394">
        <ele>70</ele>
        <time>2013-06-20T15:52:18.000Z</time>
      </trkpt>
      <trkpt lat="43.6097" lon="6.88389">
        <ele>70.400001525879</ele>
        <time>2013-06-20T15:52:20.000Z</time>
      </trkpt>
      <trkpt lat="43.6097" lon="6.88386">
        <ele>71</ele>
        <time>2013-06-20T15:52:21.000Z</time>
      </trkpt>
      <trkpt lat="43.60969" lon="6.88384">
        <ele>71</ele>
        <time>2013-06-20T15:52:22.000Z</time>
      </trkpt>
      <trkpt lat="43.60968" lon="6.8838">
        <ele>71.400001525879</ele>
        <time>2013-06-20T15:52:24.000Z</time>
      </trkpt>
      <trkpt lat="43.60966" lon="6.88376">
        <ele>72</ele>
        <time>2013-06-20T15:52:26.000Z</time>
      </trkpt>
      <trkpt lat="43.60965" lon="6.88375">
        <ele>72</ele>
        <time>2013-06-20T15:52:27.000Z</time>
      </trkpt>
      <trkpt lat="43.60964" lon="6.88373">
        <ele>72.400001525879</ele>
        <time>2013-06-20T15:52:29.000Z</time>
      </trkpt>
      <trkpt lat="43.60964" lon="6.88372">
        <ele>72.800003051758</ele>
        <time>2013-06-20T15:52:30.000Z</time>
      </trkpt>
      <trkpt lat="43.60962" lon="6.88368">
        <ele>73.400001525879</ele>
        <time>2013-06-20T15:52:33.000Z</time>
      </trkpt>
      <trkpt lat="43.60962" lon="6.88364">
        <ele>74</ele>
        <time>2013-06-20T15:52:35.000Z</time>
      </trkpt>
      <trkpt lat="43.60962" lon="6.88362">
        <ele>74</ele>
        <time>2013-06-20T15:52:36.000Z</time>
      </trkpt>
      <trkpt lat="43.60962" lon="6.88356">
        <ele>74.400001525879</ele>
        <time>2013-06-20T15:52:38.000Z</time>
      </trkpt>
      <trkpt lat="43.60963" lon="6.8835">
        <ele>75</ele>
        <time>2013-06-20T15:52:40.000Z</time>
      </trkpt>
      <trkpt lat="43.60963" lon="6.88347">
        <ele>75.400001525879</ele>
        <time>2013-06-20T15:52:41.000Z</time>
      </trkpt>
      <trkpt lat="43.60966" lon="6.88339">
        <ele>76</ele>
        <time>2013-06-20T15:52:44.000Z</time>
      </trkpt>
      <trkpt lat="43.60967" lon="6.88336">
        <ele>76</ele>
        <time>2013-06-20T15:52:46.000Z</time>
      </trkpt>
      <trkpt lat="43.60969" lon="6.88334">
        <ele>76.800003051758</ele>
        <time>2013-06-20T15:52:48.000Z</time>
      </trkpt>
      <trkpt lat="43.60972" lon="6.88332">
        <ele>77</ele>
        <time>2013-06-20T15:52:50.000Z</time>
      </trkpt>
      <trkpt lat="43.60975" lon="6.8833">
        <ele>77.800003051758</ele>
        <time>2013-06-20T15:52:52.000Z</time>
      </trkpt>
      <trkpt lat="43.60978" lon="6.88329">
        <ele>78</ele>
        <time>2013-06-20T15:52:54.000Z</time>
      </trkpt>
      <trkpt lat="43.6098" lon="6.88329">
        <ele>78.400001525879</ele>
        <time>2013-06-20T15:52:56.000Z</time>
      </trkpt>
      <trkpt lat="43.60988" lon="6.88326">
        <ele>79</ele>
        <time>2013-06-20T15:52:59.000Z</time>
      </trkpt>
      <trkpt lat="43.60994" lon="6.88324">
        <ele>79.400001525879</ele>
        <time>2013-06-20T15:53:01.000Z</time>
      </trkpt>
      <trkpt lat="43.60996" lon="6.88323">
        <ele>80</ele>
        <time>2013-06-20T15:53:03.000Z</time>
      </trkpt>
      <trkpt lat="43.60997" lon="6.88322">
        <ele>80</ele>
        <time>2013-06-20T15:53:05.000Z</time>
      </trkpt>
      <trkpt lat="43.60997" lon="6.8832">
        <ele>80.400001525879</ele>
        <time>2013-06-20T15:53:07.000Z</time>
      </trkpt>
      <trkpt lat="43.60997" lon="6.88318">
        <ele>81</ele>
        <time>2013-06-20T15:53:09.000Z</time>
      </trkpt>
      <trkpt lat="43.60998" lon="6.88317">
        <ele>81.400001525879</ele>
        <time>2013-06-20T15:53:11.000Z</time>
      </trkpt>
      <trkpt lat="43.60999" lon="6.88316">
        <ele>82</ele>
        <time>2013-06-20T15:53:13.000Z</time>
      </trkpt>
      <trkpt lat="43.61001" lon="6.88315">
        <ele>82.400001525879</ele>
        <time>2013-06-20T15:53:15.000Z</time>
      </trkpt>
      <trkpt lat="43.61005" lon="6.88314">
        <ele>83</ele>
        <time>2013-06-20T15:53:17.000Z</time>
      </trkpt>
      <trkpt lat="43.6101" lon="6.88312">
        <ele>83.400001525879</ele>
        <time>2013-06-20T15:53:19.000Z</time>
      </trkpt>
      <trkpt lat="43.61012" lon="6.88311">
        <ele>83.800003051758</ele>
        <time>2013-06-20T15:53:20.000Z</time>
      </trkpt>
      <trkpt lat="43.61018" lon="6.88306">
        <ele>84.400001525879</ele>
        <time>2013-06-20T15:53:23.000Z</time>
      </trkpt>
      <trkpt lat="43.61021" lon="6.88302">
        <ele>85</ele>
        <time>2013-06-20T15:53:26.000Z</time>
      </trkpt>
      <trkpt lat="43.61024" lon="6.88299">
        <ele>85.400001525879</ele>
        <time>2013-06-20T15:53:28.000Z</time>
      </trkpt>
      <trkpt lat="43.61025" lon="6.88298">
        <ele>85.800003051758</ele>
        <time>2013-06-20T15:53:29.000Z</time>
      </trkpt>
      <trkpt lat="43.61027" lon="6.88294">
        <ele>86</ele>
        <time>2013-06-20T15:53:31.000Z</time>
      </trkpt>
      <trkpt lat="43.61028" lon="6.88293">
        <ele>86.400001525879</ele>
        <time>2013-06-20T15:53:32.000Z</time>
      </trkpt>
      <trkpt lat="43.61031" lon="6.8829">
        <ele>86.400001525879</ele>
        <time>2013-06-20T15:53:34.000Z</time>
      </trkpt>
      <trkpt lat="43.61032" lon="6.88288">
        <ele>86.800003051758</ele>
        <time>2013-06-20T15:53:35.000Z</time>
      </trkpt>
      <trkpt lat="43.61033" lon="6.88287">
        <ele>87</ele>
        <time>2013-06-20T15:53:36.000Z</time>
      </trkpt>
      <trkpt lat="43.61035" lon="6.88284">
        <ele>87.800003051758</ele>
        <time>2013-06-20T15:53:38.000Z</time>
      </trkpt>
      <trkpt lat="43.61037" lon="6.88282">
        <ele>88</ele>
        <time>2013-06-20T15:53:40.000Z</time>
      </trkpt>
      <trkpt lat="43.61041" lon="6.88278">
        <ele>88.400001525879</ele>
        <time>2013-06-20T15:53:42.000Z</time>
      </trkpt>
      <trkpt lat="43.61046" lon="6.88275">
        <ele>88.800003051758</ele>
        <time>2013-06-20T15:53:44.000Z</time>
      </trkpt>
      <trkpt lat="43.61049" lon="6.88274">
        <ele>89</ele>
        <time>2013-06-20T15:53:45.000Z</time>
      </trkpt>
      <trkpt lat="43.61053" lon="6.88273">
        <ele>89.800003051758</ele>
        <time>2013-06-20T15:53:47.000Z</time>
      </trkpt>
      <trkpt lat="43.61056" lon="6.88273">
        <ele>90.400001525879</ele>
        <time>2013-06-20T15:53:49.000Z</time>
      </trkpt>
      <trkpt lat="43.6106" lon="6.88271">
        <ele>90.400001525879</ele>
        <time>2013-06-20T15:53:51.000Z</time>
      </trkpt>
      <trkpt lat="43.61065" lon="6.88269">
        <ele>91</ele>
        <time>2013-06-20T15:53:53.000Z</time>
      </trkpt>
      <trkpt lat="43.61069" lon="6.88266">
        <ele>91.400001525879</ele>
        <time>2013-06-20T15:53:55.000Z</time>
      </trkpt>
      <trkpt lat="43.61072" lon="6.88264">
        <ele>91.800003051758</ele>
        <time>2013-06-20T15:53:56.000Z</time>
      </trkpt>
      <trkpt lat="43.61078" lon="6.88261">
        <ele>92.400001525879</ele>
        <time>2013-06-20T15:53:59.000Z</time>
      </trkpt>
      <trkpt lat="43.61081" lon="6.8826">
        <ele>92.800003051758</ele>
        <time>2013-06-20T15:54:01.000Z</time>
      </trkpt>
      <trkpt lat="43.61082" lon="6.88259">
        <ele>93</ele>
        <time>2013-06-20T15:54:02.000Z</time>
      </trkpt>
      <trkpt lat="43.61084" lon="6.88258">
        <ele>93</ele>
        <time>2013-06-20T15:54:03.000Z</time>
      </trkpt>
      <trkpt lat="43.61091" lon="6.88255">
        <ele>93.800003051758</ele>
        <time>2013-06-20T15:54:07.000Z</time>
      </trkpt>
      <trkpt lat="43.61094" lon="6.88254">
        <ele>94</ele>
        <time>2013-06-20T15:54:09.000Z</time>
      </trkpt>
      <trkpt lat="43.61097" lon="6.88252">
        <ele>94.800003051758</ele>
        <time>2013-06-20T15:54:11.000Z</time>
      </trkpt>
      <trkpt lat="43.61099" lon="6.88251">
        <ele>95</ele>
        <time>2013-06-20T15:54:12.000Z</time>
      </trkpt>
      <trkpt lat="43.61105" lon="6.88248">
        <ele>95.400001525879</ele>
        <time>2013-06-20T15:54:15.000Z</time>
      </trkpt>
      <trkpt lat="43.61107" lon="6.88247">
        <ele>95.400001525879</ele>
        <time>2013-06-20T15:54:16.000Z</time>
      </trkpt>
      <trkpt lat="43.61109" lon="6.88246">
        <ele>96</ele>
        <time>2013-06-20T15:54:17.000Z</time>
      </trkpt>
      <trkpt lat="43.61111" lon="6.88245">
        <ele>96</ele>
        <time>2013-06-20T15:54:18.000Z</time>
      </trkpt>
      <trkpt lat="43.61114" lon="6.88243">
        <ele>96.800003051758</ele>
        <time>2013-06-20T15:54:20.000Z</time>
      </trkpt>
      <trkpt lat="43.61118" lon="6.88242">
        <ele>97</ele>
        <time>2013-06-20T15:54:22.000Z</time>
      </trkpt>
      <trkpt lat="43.61122" lon="6.88241">
        <ele>97.400001525879</ele>
        <time>2013-06-20T15:54:24.000Z</time>
      </trkpt>
      <trkpt lat="43.61124" lon="6.88241">
        <ele>97.400001525879</ele>
        <time>2013-06-20T15:54:25.000Z</time>
      </trkpt>
      <trkpt lat="43.61128" lon="6.88243">
        <ele>98</ele>
        <time>2013-06-20T15:54:27.000Z</time>
      </trkpt>
      <trkpt lat="43.6113" lon="6.88244">
        <ele>98.400001525879</ele>
        <time>2013-06-20T15:54:28.000Z</time>
      </trkpt>
      <trkpt lat="43.61135" lon="6.8824">
        <ele>99</ele>
        <time>2013-06-20T15:54:31.000Z</time>
      </trkpt>
      <trkpt lat="43.6114" lon="6.88235">
        <ele>99.400001525879</ele>
        <time>2013-06-20T15:54:33.000Z</time>
      </trkpt>
      <trkpt lat="43.61145" lon="6.88231">
        <ele>99.400001525879</ele>
        <time>2013-06-20T15:54:35.000Z</time>
      </trkpt>
      <trkpt lat="43.61146" lon="6.88229">
        <ele>100</ele>
        <time>2013-06-20T15:54:36.000Z</time>
      </trkpt>
      <trkpt lat="43.61149" lon="6.88226">
        <ele>100.40000152588</ele>
        <time>2013-06-20T15:54:38.000Z</time>
      </trkpt>
      <trkpt lat="43.61152" lon="6.88222">
        <ele>101</ele>
        <time>2013-06-20T15:54:40.000Z</time>
      </trkpt>
      <trkpt lat="43.61155" lon="6.88219">
        <ele>101.40000152588</ele>
        <time>2013-06-20T15:54:42.000Z</time>
      </trkpt>
      <trkpt lat="43.61156" lon="6.88217">
        <ele>101.80000305176</ele>
        <time>2013-06-20T15:54:43.000Z</time>
      </trkpt>
      <trkpt lat="43.61157" lon="6.88215">
        <ele>102</ele>
        <time>2013-06-20T15:54:44.000Z</time>
      </trkpt>
      <trkpt lat="43.61159" lon="6.8821">
        <ele>103</ele>
        <time>2013-06-20T15:54:47.000Z</time>
      </trkpt>
      <trkpt lat="43.61161" lon="6.88204">
        <ele>103.40000152588</ele>
        <time>2013-06-20T15:54:49.000Z</time>
      </trkpt>
      <trkpt lat="43.61163" lon="6.88199">
        <ele>103.80000305176</ele>
        <time>2013-06-20T15:54:51.000Z</time>
      </trkpt>
      <trkpt lat="43.61169" lon="6.88184">
        <ele>104.40000152588</ele>
        <time>2013-06-20T15:54:56.000Z</time>
      </trkpt>
      <trkpt lat="43.61171" lon="6.88177">
        <ele>105</ele>
        <time>2013-06-20T15:54:58.000Z</time>
      </trkpt>
      <trkpt lat="43.61174" lon="6.88171">
        <ele>105.40000152588</ele>
        <time>2013-06-20T15:55:00.000Z</time>
      </trkpt>
      <trkpt lat="43.61176" lon="6.88166">
        <ele>106</ele>
        <time>2013-06-20T15:55:02.000Z</time>
      </trkpt>
      <trkpt lat="43.61179" lon="6.88161">
        <ele>106.40000152588</ele>
        <time>2013-06-20T15:55:04.000Z</time>
      </trkpt>
      <trkpt lat="43.61184" lon="6.88156">
        <ele>107</ele>
        <time>2013-06-20T15:55:06.000Z</time>
      </trkpt>
      <trkpt lat="43.61188" lon="6.88153">
        <ele>107.40000152588</ele>
        <time>2013-06-20T15:55:08.000Z</time>
      </trkpt>
      <trkpt lat="43.6119" lon="6.88149">
        <ele>107.80000305176</ele>
        <time>2013-06-20T15:55:10.000Z</time>
      </trkpt>
      <trkpt lat="43.61193" lon="6.88145">
        <ele>108</ele>
        <time>2013-06-20T15:55:12.000Z</time>
      </trkpt>
      <trkpt lat="43.61194" lon="6.88138">
        <ele>108.80000305176</ele>
        <time>2013-06-20T15:55:15.000Z</time>
      </trkpt>
      <trkpt lat="43.61196" lon="6.88132">
        <ele>109.40000152588</ele>
        <time>2013-06-20T15:55:17.000Z</time>
      </trkpt>
      <trkpt lat="43.61198" lon="6.88127">
        <ele>109.80000305176</ele>
        <time>2013-06-20T15:55:19.000Z</time>
      </trkpt>
      <trkpt lat="43.612" lon="6.88122">
        <ele>110</ele>
        <time>2013-06-20T15:55:21.000Z</time>
      </trkpt>
      <trkpt lat="43.61201" lon="6.88117">
        <ele>110.80000305176</ele>
        <time>2013-06-20T15:55:23.000Z</time>
      </trkpt>
      <trkpt lat="43.61203" lon="6.88112">
        <ele>111.40000152588</ele>
        <time>2013-06-20T15:55:25.000Z</time>
      </trkpt>
      <trkpt lat="43.61205" lon="6.88107">
        <ele>112</ele>
        <time>2013-06-20T15:55:27.000Z</time>
      </trkpt>
      <trkpt lat="43.61207" lon="6.88106">
        <ele>112</ele>
        <time>2013-06-20T15:55:28.000Z</time>
      </trkpt>
      <trkpt lat="43.61206" lon="6.88103">
        <ele>112.40000152588</ele>
        <time>2013-06-20T15:55:31.000Z</time>
      </trkpt>
      <trkpt lat="43.61205" lon="6.88099">
        <ele>113</ele>
        <time>2013-06-20T15:55:33.000Z</time>
      </trkpt>
      <trkpt lat="43.61205" lon="6.88094">
        <ele>113.80000305176</ele>
        <time>2013-06-20T15:55:35.000Z</time>
      </trkpt>
      <trkpt lat="43.61204" lon="6.88091">
        <ele>114</ele>
        <time>2013-06-20T15:55:36.000Z</time>
      </trkpt>
      <trkpt lat="43.61204" lon="6.88081">
        <ele>114.40000152588</ele>
        <time>2013-06-20T15:55:39.000Z</time>
      </trkpt>
      <trkpt lat="43.61202" lon="6.88076">
        <ele>115</ele>
        <time>2013-06-20T15:55:41.000Z</time>
      </trkpt>
      <trkpt lat="43.612" lon="6.8807">
        <ele>115.40000152588</ele>
        <time>2013-06-20T15:55:43.000Z</time>
      </trkpt>
      <trkpt lat="43.61198" lon="6.88066">
        <ele>116</ele>
        <time>2013-06-20T15:55:45.000Z</time>
      </trkpt>
      <trkpt lat="43.612" lon="6.88061">
        <ele>116.40000152588</ele>
        <time>2013-06-20T15:55:47.000Z</time>
      </trkpt>
      <trkpt lat="43.61201" lon="6.88058">
        <ele>116.80000305176</ele>
        <time>2013-06-20T15:55:49.000Z</time>
      </trkpt>
      <trkpt lat="43.61203" lon="6.88054">
        <ele>117</ele>
        <time>2013-06-20T15:55:51.000Z</time>
      </trkpt>
      <trkpt lat="43.61203" lon="6.88053">
        <ele>117</ele>
        <time>2013-06-20T15:55:52.000Z</time>
      </trkpt>
      <trkpt lat="43.61206" lon="6.88047">
        <ele>118</ele>
        <time>2013-06-20T15:55:55.000Z</time>
      </trkpt>
      <trkpt lat="43.61208" lon="6.88043">
        <ele>118.40000152588</ele>
        <time>2013-06-20T15:55:57.000Z</time>
      </trkpt>
      <trkpt lat="43.61212" lon="6.8804">
        <ele>119</ele>
        <time>2013-06-20T15:55:59.000Z</time>
      </trkpt>
      <trkpt lat="43.61214" lon="6.88037">
        <ele>119.40000152588</ele>
        <time>2013-06-20T15:56:01.000Z</time>
      </trkpt>
      <trkpt lat="43.61217" lon="6.88033">
        <ele>120</ele>
        <time>2013-06-20T15:56:03.000Z</time>
      </trkpt>
      <trkpt lat="43.6122" lon="6.88031">
        <ele>120.40000152588</ele>
        <time>2013-06-20T15:56:05.000Z</time>
      </trkpt>
      <trkpt lat="43.61218" lon="6.88028">
        <ele>121</ele>
        <time>2013-06-20T15:56:07.000Z</time>
      </trkpt>
      <trkpt lat="43.61216" lon="6.88028">
        <ele>121</ele>
        <time>2013-06-20T15:56:08.000Z</time>
      </trkpt>
      <trkpt lat="43.61208" lon="6.88045">
        <ele>122</ele>
        <time>2013-06-20T15:56:13.000Z</time>
      </trkpt>
      <trkpt lat="43.61205" lon="6.88053">
        <ele>122.40000152588</ele>
        <time>2013-06-20T15:56:15.000Z</time>
      </trkpt>
      <trkpt lat="43.61204" lon="6.88056">
        <ele>122.80000305176</ele>
        <time>2013-06-20T15:56:16.000Z</time>
      </trkpt>
      <trkpt lat="43.61204" lon="6.88058">
        <ele>123</ele>
        <time>2013-06-20T15:56:17.000Z</time>
      </trkpt>
      <trkpt lat="43.61202" lon="6.88061">
        <ele>123.40000152588</ele>
        <time>2013-06-20T15:56:19.000Z</time>
      </trkpt>
      <trkpt lat="43.612" lon="6.88064">
        <ele>123.80000305176</ele>
        <time>2013-06-20T15:56:21.000Z</time>
      </trkpt>
      <trkpt lat="43.61194" lon="6.88073">
        <ele>124.40000152588</ele>
        <time>2013-06-20T15:56:25.000Z</time>
      </trkpt>
      <trkpt lat="43.61191" lon="6.88079">
        <ele>125</ele>
        <time>2013-06-20T15:56:27.000Z</time>
      </trkpt>
      <trkpt lat="43.6119" lon="6.88084">
        <ele>125.40000152588</ele>
        <time>2013-06-20T15:56:29.000Z</time>
      </trkpt>
      <trkpt lat="43.6119" lon="6.88088">
        <ele>125.80000305176</ele>
        <time>2013-06-20T15:56:31.000Z</time>
      </trkpt>
      <trkpt lat="43.6119" lon="6.88092">
        <ele>126</ele>
        <time>2013-06-20T15:56:33.000Z</time>
      </trkpt>
      <trkpt lat="43.61191" lon="6.88094">
        <ele>126.40000152588</ele>
        <time>2013-06-20T15:56:34.000Z</time>
      </trkpt>
      <trkpt lat="43.61191" lon="6.88099">
        <ele>127</ele>
        <time>2013-06-20T15:56:36.000Z</time>
      </trkpt>
      <trkpt lat="43.61191" lon="6.88104">
        <ele>127.40000152588</ele>
        <time>2013-06-20T15:56:38.000Z</time>
      </trkpt>
      <trkpt lat="43.61191" lon="6.88109">
        <ele>127.80000305176</ele>
        <time>2013-06-20T15:56:40.000Z</time>
      </trkpt>
      <trkpt lat="43.61191" lon="6.88114">
        <ele>128</ele>
        <time>2013-06-20T15:56:42.000Z</time>
      </trkpt>
      <trkpt lat="43.61192" lon="6.88116">
        <ele>128.19999694824</ele>
        <time>2013-06-20T15:56:43.000Z</time>
      </trkpt>
      <trkpt lat="43.61192" lon="6.88122">
        <ele>129</ele>
        <time>2013-06-20T15:56:45.000Z</time>
      </trkpt>
      <trkpt lat="43.61193" lon="6.88127">
        <ele>129.19999694824</ele>
        <time>2013-06-20T15:56:47.000Z</time>
      </trkpt>
      <trkpt lat="43.61194" lon="6.88133">
        <ele>129.80000305176</ele>
        <time>2013-06-20T15:56:49.000Z</time>
      </trkpt>
      <trkpt lat="43.61194" lon="6.88138">
        <ele>130</ele>
        <time>2013-06-20T15:56:51.000Z</time>
      </trkpt>
      <trkpt lat="43.61193" lon="6.88147">
        <ele>130.80000305176</ele>
        <time>2013-06-20T15:56:55.000Z</time>
      </trkpt>
      <trkpt lat="43.61192" lon="6.88151">
        <ele>131.19999694824</ele>
        <time>2013-06-20T15:56:57.000Z</time>
      </trkpt>
      <trkpt lat="43.61192" lon="6.88156">
        <ele>131.80000305176</ele>
        <time>2013-06-20T15:56:59.000Z</time>
      </trkpt>
      <trkpt lat="43.61192" lon="6.88161">
        <ele>132</ele>
        <time>2013-06-20T15:57:01.000Z</time>
      </trkpt>
      <trkpt lat="43.61192" lon="6.88166">
        <ele>132.19999694824</ele>
        <time>2013-06-20T15:57:03.000Z</time>
      </trkpt>
      <trkpt lat="43.61192" lon="6.88179">
        <ele>133</ele>
        <time>2013-06-20T15:57:08.000Z</time>
      </trkpt>
      <trkpt lat="43.61192" lon="6.88184">
        <ele>133.60000610352</ele>
        <time>2013-06-20T15:57:10.000Z</time>
      </trkpt>
      <trkpt lat="43.61192" lon="6.88189">
        <ele>134</ele>
        <time>2013-06-20T15:57:12.000Z</time>
      </trkpt>
      <trkpt lat="43.61192" lon="6.88194">
        <ele>134.19999694824</ele>
        <time>2013-06-20T15:57:14.000Z</time>
      </trkpt>
      <trkpt lat="43.61192" lon="6.88198">
        <ele>134.60000610352</ele>
        <time>2013-06-20T15:57:16.000Z</time>
      </trkpt>
      <trkpt lat="43.61193" lon="6.88205">
        <ele>135</ele>
        <time>2013-06-20T15:57:19.000Z</time>
      </trkpt>
      <trkpt lat="43.61194" lon="6.8821">
        <ele>135.60000610352</ele>
        <time>2013-06-20T15:57:21.000Z</time>
      </trkpt>
      <trkpt lat="43.61196" lon="6.88215">
        <ele>136</ele>
        <time>2013-06-20T15:57:23.000Z</time>
      </trkpt>
      <trkpt lat="43.61199" lon="6.88218">
        <ele>136.19999694824</ele>
        <time>2013-06-20T15:57:25.000Z</time>
      </trkpt>
      <trkpt lat="43.61201" lon="6.8822">
        <ele>136.80000305176</ele>
        <time>2013-06-20T15:57:26.000Z</time>
      </trkpt>
      <trkpt lat="43.61203" lon="6.88221">
        <ele>137</ele>
        <time>2013-06-20T15:57:27.000Z</time>
      </trkpt>
      <trkpt lat="43.61208" lon="6.88223">
        <ele>137.80000305176</ele>
        <time>2013-06-20T15:57:30.000Z</time>
      </trkpt>
      <trkpt lat="43.61213" lon="6.88224">
        <ele>138</ele>
        <time>2013-06-20T15:57:32.000Z</time>
      </trkpt>
      <trkpt lat="43.61217" lon="6.88222">
        <ele>138.60000610352</ele>
        <time>2013-06-20T15:57:34.000Z</time>
      </trkpt>
      <trkpt lat="43.6123" lon="6.88211">
        <ele>139.19999694824</ele>
        <time>2013-06-20T15:57:41.000Z</time>
      </trkpt>
      <trkpt lat="43.61233" lon="6.88208">
        <ele>140</ele>
        <time>2013-06-20T15:57:43.000Z</time>
      </trkpt>
      <trkpt lat="43.61237" lon="6.88207">
        <ele>140.19999694824</ele>
        <time>2013-06-20T15:57:45.000Z</time>
      </trkpt>
      <trkpt lat="43.6124" lon="6.88206">
        <ele>140.80000305176</ele>
        <time>2013-06-20T15:57:47.000Z</time>
      </trkpt>
      <trkpt lat="43.61244" lon="6.88208">
        <ele>141.19999694824</ele>
        <time>2013-06-20T15:57:49.000Z</time>
      </trkpt>
      <trkpt lat="43.61247" lon="6.88209">
        <ele>142</ele>
        <time>2013-06-20T15:57:51.000Z</time>
      </trkpt>
      <trkpt lat="43.61251" lon="6.88211">
        <ele>142</ele>
        <time>2013-06-20T15:57:53.000Z</time>
      </trkpt>
      <trkpt lat="43.61255" lon="6.88213">
        <ele>142.60000610352</ele>
        <time>2013-06-20T15:57:55.000Z</time>
      </trkpt>
      <trkpt lat="43.6126" lon="6.88214">
        <ele>143</ele>
        <time>2013-06-20T15:57:58.000Z</time>
      </trkpt>
      <trkpt lat="43.61263" lon="6.88214">
        <ele>143.80000305176</ele>
        <time>2013-06-20T15:58:00.000Z</time>
      </trkpt>
      <trkpt lat="43.61267" lon="6.88213">
        <ele>144</ele>
        <time>2013-06-20T15:58:02.000Z</time>
      </trkpt>
      <trkpt lat="43.61271" lon="6.88211">
        <ele>144.60000610352</ele>
        <time>2013-06-20T15:58:04.000Z</time>
      </trkpt>
      <trkpt lat="43.61274" lon="6.88208">
        <ele>144.80000305176</ele>
        <time>2013-06-20T15:58:06.000Z</time>
      </trkpt>
      <trkpt lat="43.61276" lon="6.88207">
        <ele>145</ele>
        <time>2013-06-20T15:58:07.000Z</time>
      </trkpt>
      <trkpt lat="43.61279" lon="6.88205">
        <ele>145.80000305176</ele>
        <time>2013-06-20T15:58:09.000Z</time>
      </trkpt>
      <trkpt lat="43.61282" lon="6.88203">
        <ele>146.19999694824</ele>
        <time>2013-06-20T15:58:11.000Z</time>
      </trkpt>
      <trkpt lat="43.61284" lon="6.882">
        <ele>146.80000305176</ele>
        <time>2013-06-20T15:58:13.000Z</time>
      </trkpt>
      <trkpt lat="43.61286" lon="6.88199">
        <ele>147</ele>
        <time>2013-06-20T15:58:15.000Z</time>
      </trkpt>
      <trkpt lat="43.61287" lon="6.88198">
        <ele>147</ele>
        <time>2013-06-20T15:58:16.000Z</time>
      </trkpt>
      <trkpt lat="43.61289" lon="6.88196">
        <ele>147.60000610352</ele>
        <time>2013-06-20T15:58:18.000Z</time>
      </trkpt>
      <trkpt lat="43.61286" lon="6.88191">
        <ele>148</ele>
        <time>2013-06-20T15:58:23.000Z</time>
      </trkpt>
      <trkpt lat="43.61283" lon="6.8819">
        <ele>148.60000610352</ele>
        <time>2013-06-20T15:58:24.000Z</time>
      </trkpt>
      <trkpt lat="43.61281" lon="6.88191">
        <ele>148.80000305176</ele>
        <time>2013-06-20T15:58:25.000Z</time>
      </trkpt>
      <trkpt lat="43.61279" lon="6.88192">
        <ele>149</ele>
        <time>2013-06-20T15:58:26.000Z</time>
      </trkpt>
      <trkpt lat="43.61276" lon="6.88194">
        <ele>149.19999694824</ele>
        <time>2013-06-20T15:58:28.000Z</time>
      </trkpt>
      <trkpt lat="43.61273" lon="6.88197">
        <ele>149.60000610352</ele>
        <time>2013-06-20T15:58:30.000Z</time>
      </trkpt>
      <trkpt lat="43.61268" lon="6.88199">
        <ele>150</ele>
        <time>2013-06-20T15:58:33.000Z</time>
      </trkpt>
      <trkpt lat="43.61259" lon="6.88195">
        <ele>150</ele>
        <time>2013-06-20T15:58:37.000Z</time>
      </trkpt>
      <trkpt lat="43.61254" lon="6.88187">
        <ele>151</ele>
        <time>2013-06-20T15:58:40.000Z</time>
      </trkpt>
      <trkpt lat="43.61253" lon="6.88184">
        <ele>151</ele>
        <time>2013-06-20T15:58:41.000Z</time>
      </trkpt>
      <trkpt lat="43.61249" lon="6.88176">
        <ele>151.60000610352</ele>
        <time>2013-06-20T15:58:44.000Z</time>
      </trkpt>
      <trkpt lat="43.61248" lon="6.88173">
        <ele>151.80000305176</ele>
        <time>2013-06-20T15:58:45.000Z</time>
      </trkpt>
      <trkpt lat="43.61247" lon="6.88166">
        <ele>152.19999694824</ele>
        <time>2013-06-20T15:58:48.000Z</time>
      </trkpt>
      <trkpt lat="43.61247" lon="6.88164">
        <ele>152.60000610352</ele>
        <time>2013-06-20T15:58:49.000Z</time>
      </trkpt>
      <trkpt lat="43.61247" lon="6.88157">
        <ele>153.19999694824</ele>
        <time>2013-06-20T15:58:52.000Z</time>
      </trkpt>
      <trkpt lat="43.61247" lon="6.88155">
        <ele>153.80000305176</ele>
        <time>2013-06-20T15:58:53.000Z</time>
      </trkpt>
      <trkpt lat="43.61247" lon="6.88152">
        <ele>154.19999694824</ele>
        <time>2013-06-20T15:58:55.000Z</time>
      </trkpt>
      <trkpt lat="43.61247" lon="6.88149">
        <ele>155</ele>
        <time>2013-06-20T15:58:57.000Z</time>
      </trkpt>
      <trkpt lat="43.61248" lon="6.88147">
        <ele>155</ele>
        <time>2013-06-20T15:58:58.000Z</time>
      </trkpt>
      <trkpt lat="43.61249" lon="6.88146">
        <ele>155.60000610352</ele>
        <time>2013-06-20T15:58:59.000Z</time>
      </trkpt>
      <trkpt lat="43.61252" lon="6.88142">
        <ele>156.19999694824</ele>
        <time>2013-06-20T15:59:01.000Z</time>
      </trkpt>
      <trkpt lat="43.61254" lon="6.8814">
        <ele>157</ele>
        <time>2013-06-20T15:59:03.000Z</time>
      </trkpt>
      <trkpt lat="43.61257" lon="6.88138">
        <ele>157.19999694824</ele>
        <time>2013-06-20T15:59:05.000Z</time>
      </trkpt>
      <trkpt lat="43.6126" lon="6.88137">
        <ele>158</ele>
        <time>2013-06-20T15:59:07.000Z</time>
      </trkpt>
      <trkpt lat="43.61263" lon="6.88136">
        <ele>158.60000610352</ele>
        <time>2013-06-20T15:59:09.000Z</time>
      </trkpt>
      <trkpt lat="43.61266" lon="6.88136">
        <ele>159</ele>
        <time>2013-06-20T15:59:11.000Z</time>
      </trkpt>
      <trkpt lat="43.61269" lon="6.88134">
        <ele>159.60000610352</ele>
        <time>2013-06-20T15:59:13.000Z</time>
      </trkpt>
      <trkpt lat="43.61272" lon="6.88133">
        <ele>160</ele>
        <time>2013-06-20T15:59:15.000Z</time>
      </trkpt>
      <trkpt lat="43.61275" lon="6.8813">
        <ele>160.80000305176</ele>
        <time>2013-06-20T15:59:17.000Z</time>
      </trkpt>
      <trkpt lat="43.61277" lon="6.88128">
        <ele>161.19999694824</ele>
        <time>2013-06-20T15:59:19.000Z</time>
      </trkpt>
      <trkpt lat="43.6128" lon="6.88125">
        <ele>161.80000305176</ele>
        <time>2013-06-20T15:59:21.000Z</time>
      </trkpt>
      <trkpt lat="43.61283" lon="6.88122">
        <ele>162</ele>
        <time>2013-06-20T15:59:23.000Z</time>
      </trkpt>
      <trkpt lat="43.61284" lon="6.8812">
        <ele>162.19999694824</ele>
        <time>2013-06-20T15:59:24.000Z</time>
      </trkpt>
      <trkpt lat="43.61287" lon="6.88116">
        <ele>163</ele>
        <time>2013-06-20T15:59:26.000Z</time>
      </trkpt>
      <trkpt lat="43.61289" lon="6.88113">
        <ele>163.60000610352</ele>
        <time>2013-06-20T15:59:28.000Z</time>
      </trkpt>
      <trkpt lat="43.61291" lon="6.88109">
        <ele>164</ele>
        <time>2013-06-20T15:59:30.000Z</time>
      </trkpt>
      <trkpt lat="43.61293" lon="6.88106">
        <ele>164</ele>
        <time>2013-06-20T15:59:32.000Z</time>
      </trkpt>
      <trkpt lat="43.61294" lon="6.88104">
        <ele>164.60000610352</ele>
        <time>2013-06-20T15:59:33.000Z</time>
      </trkpt>
      <trkpt lat="43.61296" lon="6.88101">
        <ele>165</ele>
        <time>2013-06-20T15:59:35.000Z</time>
      </trkpt>
      <trkpt lat="43.61298" lon="6.88098">
        <ele>165.80000305176</ele>
        <time>2013-06-20T15:59:37.000Z</time>
      </trkpt>
      <trkpt lat="43.61299" lon="6.88097">
        <ele>166</ele>
        <time>2013-06-20T15:59:38.000Z</time>
      </trkpt>
      <trkpt lat="43.61302" lon="6.88093">
        <ele>166.80000305176</ele>
        <time>2013-06-20T15:59:40.000Z</time>
      </trkpt>
      <trkpt lat="43.61304" lon="6.88089">
        <ele>167.19999694824</ele>
        <time>2013-06-20T15:59:42.000Z</time>
      </trkpt>
      <trkpt lat="43.61306" lon="6.88085">
        <ele>168</ele>
        <time>2013-06-20T15:59:44.000Z</time>
      </trkpt>
      <trkpt lat="43.61307" lon="6.88083">
        <ele>168.19999694824</ele>
        <time>2013-06-20T15:59:45.000Z</time>
      </trkpt>
      <trkpt lat="43.61309" lon="6.88079">
        <ele>169</ele>
        <time>2013-06-20T15:59:47.000Z</time>
      </trkpt>
      <trkpt lat="43.61309" lon="6.88078">
        <ele>169.19999694824</ele>
        <time>2013-06-20T15:59:48.000Z</time>
      </trkpt>
      <trkpt lat="43.61311" lon="6.88072">
        <ele>170</ele>
        <time>2013-06-20T15:59:51.000Z</time>
      </trkpt>
      <trkpt lat="43.61312" lon="6.88067">
        <ele>170.19999694824</ele>
        <time>2013-06-20T15:59:53.000Z</time>
      </trkpt>
      <trkpt lat="43.61313" lon="6.88062">
        <ele>171</ele>
        <time>2013-06-20T15:59:55.000Z</time>
      </trkpt>
      <trkpt lat="43.61313" lon="6.88059">
        <ele>171</ele>
        <time>2013-06-20T15:59:56.000Z</time>
      </trkpt>
      <trkpt lat="43.61313" lon="6.88049">
        <ele>172</ele>
        <time>2013-06-20T15:59:59.000Z</time>
      </trkpt>
      <trkpt lat="43.61315" lon="6.88043">
        <ele>172.19999694824</ele>
        <time>2013-06-20T16:00:01.000Z</time>
      </trkpt>
      <trkpt lat="43.61315" lon="6.88041">
        <ele>172.60000610352</ele>
        <time>2013-06-20T16:00:02.000Z</time>
      </trkpt>
      <trkpt lat="43.61315" lon="6.88038">
        <ele>172.60000610352</ele>
        <time>2013-06-20T16:00:03.000Z</time>
      </trkpt>
      <trkpt lat="43.61316" lon="6.88032">
        <ele>173</ele>
        <time>2013-06-20T16:00:05.000Z</time>
      </trkpt>
      <trkpt lat="43.61317" lon="6.8803">
        <ele>173.19999694824</ele>
        <time>2013-06-20T16:00:06.000Z</time>
      </trkpt>
      <trkpt lat="43.61317" lon="6.88028">
        <ele>173.60000610352</ele>
        <time>2013-06-20T16:00:07.000Z</time>
      </trkpt>
      <trkpt lat="43.61319" lon="6.88023">
        <ele>174</ele>
        <time>2013-06-20T16:00:09.000Z</time>
      </trkpt>
      <trkpt lat="43.6132" lon="6.88018">
        <ele>174.60000610352</ele>
        <time>2013-06-20T16:00:11.000Z</time>
      </trkpt>
      <trkpt lat="43.61321" lon="6.88016">
        <ele>174.60000610352</ele>
        <time>2013-06-20T16:00:12.000Z</time>
      </trkpt>
      <trkpt lat="43.61324" lon="6.88012">
        <ele>175</ele>
        <time>2013-06-20T16:00:15.000Z</time>
      </trkpt>
      <trkpt lat="43.61327" lon="6.8801">
        <ele>175.80000305176</ele>
        <time>2013-06-20T16:00:17.000Z</time>
      </trkpt>
      <trkpt lat="43.61331" lon="6.88009">
        <ele>176</ele>
        <time>2013-06-20T16:00:19.000Z</time>
      </trkpt>
      <trkpt lat="43.61334" lon="6.88009">
        <ele>176.60000610352</ele>
        <time>2013-06-20T16:00:21.000Z</time>
      </trkpt>
      <trkpt lat="43.61337" lon="6.88009">
        <ele>177</ele>
        <time>2013-06-20T16:00:23.000Z</time>
      </trkpt>
      <trkpt lat="43.61343" lon="6.88008">
        <ele>177.19999694824</ele>
        <time>2013-06-20T16:00:26.000Z</time>
      </trkpt>
      <trkpt lat="43.61348" lon="6.88007">
        <ele>178</ele>
        <time>2013-06-20T16:00:28.000Z</time>
      </trkpt>
      <trkpt lat="43.61349" lon="6.88005">
        <ele>178.19999694824</ele>
        <time>2013-06-20T16:00:29.000Z</time>
      </trkpt>
      <trkpt lat="43.61353" lon="6.88">
        <ele>179</ele>
        <time>2013-06-20T16:00:32.000Z</time>
      </trkpt>
      <trkpt lat="43.61355" lon="6.87995">
        <ele>179.19999694824</ele>
        <time>2013-06-20T16:00:34.000Z</time>
      </trkpt>
      <trkpt lat="43.61357" lon="6.8799">
        <ele>180</ele>
        <time>2013-06-20T16:00:36.000Z</time>
      </trkpt>
      <trkpt lat="43.61359" lon="6.87985">
        <ele>180.60000610352</ele>
        <time>2013-06-20T16:00:38.000Z</time>
      </trkpt>
      <trkpt lat="43.61361" lon="6.87979">
        <ele>181</ele>
        <time>2013-06-20T16:00:40.000Z</time>
      </trkpt>
      <trkpt lat="43.61363" lon="6.87977">
        <ele>181</ele>
        <time>2013-06-20T16:00:41.000Z</time>
      </trkpt>
      <trkpt lat="43.61364" lon="6.87975">
        <ele>181.60000610352</ele>
        <time>2013-06-20T16:00:42.000Z</time>
      </trkpt>
      <trkpt lat="43.61366" lon="6.8797">
        <ele>182</ele>
        <time>2013-06-20T16:00:44.000Z</time>
      </trkpt>
      <trkpt lat="43.61369" lon="6.87966">
        <ele>182.60000610352</ele>
        <time>2013-06-20T16:00:46.000Z</time>
      </trkpt>
      <trkpt lat="43.61371" lon="6.87961">
        <ele>183</ele>
        <time>2013-06-20T16:00:48.000Z</time>
      </trkpt>
      <trkpt lat="43.61374" lon="6.87955">
        <ele>183.19999694824</ele>
        <time>2013-06-20T16:00:50.000Z</time>
      </trkpt>
      <trkpt lat="43.61377" lon="6.87947">
        <ele>184</ele>
        <time>2013-06-20T16:00:53.000Z</time>
      </trkpt>
      <trkpt lat="43.61379" lon="6.87941">
        <ele>184.60000610352</ele>
        <time>2013-06-20T16:00:55.000Z</time>
      </trkpt>
      <trkpt lat="43.61382" lon="6.87936">
        <ele>185</ele>
        <time>2013-06-20T16:00:57.000Z</time>
      </trkpt>
      <trkpt lat="43.61387" lon="6.87931">
        <ele>185.60000610352</ele>
        <time>2013-06-20T16:00:59.000Z</time>
      </trkpt>
      <trkpt lat="43.61391" lon="6.87926">
        <ele>185.80000305176</ele>
        <time>2013-06-20T16:01:01.000Z</time>
      </trkpt>
      <trkpt lat="43.61396" lon="6.87919">
        <ele>186.19999694824</ele>
        <time>2013-06-20T16:01:04.000Z</time>
      </trkpt>
      <trkpt lat="43.61399" lon="6.87914">
        <ele>187</ele>
        <time>2013-06-20T16:01:06.000Z</time>
      </trkpt>
      <trkpt lat="43.61401" lon="6.8791">
        <ele>187.19999694824</ele>
        <time>2013-06-20T16:01:08.000Z</time>
      </trkpt>
      <trkpt lat="43.61404" lon="6.87906">
        <ele>187.80000305176</ele>
        <time>2013-06-20T16:01:10.000Z</time>
      </trkpt>
      <trkpt lat="43.61406" lon="6.87904">
        <ele>188</ele>
        <time>2013-06-20T16:01:12.000Z</time>
      </trkpt>
      <trkpt lat="43.6141" lon="6.87903">
        <ele>188.80000305176</ele>
        <time>2013-06-20T16:01:17.000Z</time>
      </trkpt>
      <trkpt lat="43.61414" lon="6.87903">
        <ele>189</ele>
        <time>2013-06-20T16:01:19.000Z</time>
      </trkpt>
      <trkpt lat="43.61417" lon="6.87905">
        <ele>189.60000610352</ele>
        <time>2013-06-20T16:01:21.000Z</time>
      </trkpt>
      <trkpt lat="43.61422" lon="6.87907">
        <ele>190</ele>
        <time>2013-06-20T16:01:23.000Z</time>
      </trkpt>
      <trkpt lat="43.61427" lon="6.87908">
        <ele>190</ele>
        <time>2013-06-20T16:01:25.000Z</time>
      </trkpt>
      <trkpt lat="43.6144" lon="6.87904">
        <ele>191</ele>
        <time>2013-06-20T16:01:31.000Z</time>
      </trkpt>
      <trkpt lat="43.61445" lon="6.87903">
        <ele>191.19999694824</ele>
        <time>2013-06-20T16:01:33.000Z</time>
      </trkpt>
      <trkpt lat="43.61449" lon="6.87903">
        <ele>191.80000305176</ele>
        <time>2013-06-20T16:01:35.000Z</time>
      </trkpt>
      <trkpt lat="43.61451" lon="6.87904">
        <ele>192</ele>
        <time>2013-06-20T16:01:36.000Z</time>
      </trkpt>
      <trkpt lat="43.61452" lon="6.87905">
        <ele>192</ele>
        <time>2013-06-20T16:01:37.000Z</time>
      </trkpt>
      <trkpt lat="43.61456" lon="6.87908">
        <ele>192.60000610352</ele>
        <time>2013-06-20T16:01:39.000Z</time>
      </trkpt>
      <trkpt lat="43.61459" lon="6.87911">
        <ele>193</ele>
        <time>2013-06-20T16:01:41.000Z</time>
      </trkpt>
      <trkpt lat="43.61463" lon="6.87914">
        <ele>193.60000610352</ele>
        <time>2013-06-20T16:01:43.000Z</time>
      </trkpt>
      <trkpt lat="43.61467" lon="6.87916">
        <ele>194</ele>
        <time>2013-06-20T16:01:45.000Z</time>
      </trkpt>
      <trkpt lat="43.61471" lon="6.87918">
        <ele>194.19999694824</ele>
        <time>2013-06-20T16:01:47.000Z</time>
      </trkpt>
      <trkpt lat="43.61474" lon="6.8792">
        <ele>195</ele>
        <time>2013-06-20T16:01:49.000Z</time>
      </trkpt>
      <trkpt lat="43.61477" lon="6.87923">
        <ele>195.60000610352</ele>
        <time>2013-06-20T16:01:51.000Z</time>
      </trkpt>
      <trkpt lat="43.6148" lon="6.87925">
        <ele>196</ele>
        <time>2013-06-20T16:01:53.000Z</time>
      </trkpt>
      <trkpt lat="43.61482" lon="6.87928">
        <ele>196.60000610352</ele>
        <time>2013-06-20T16:01:55.000Z</time>
      </trkpt>
      <trkpt lat="43.61484" lon="6.87931">
        <ele>197</ele>
        <time>2013-06-20T16:01:57.000Z</time>
      </trkpt>
      <trkpt lat="43.61487" lon="6.87935">
        <ele>197.60000610352</ele>
        <time>2013-06-20T16:01:59.000Z</time>
      </trkpt>
      <trkpt lat="43.61489" lon="6.87939">
        <ele>198</ele>
        <time>2013-06-20T16:02:01.000Z</time>
      </trkpt>
      <trkpt lat="43.61492" lon="6.87943">
        <ele>198.19999694824</ele>
        <time>2013-06-20T16:02:03.000Z</time>
      </trkpt>
      <trkpt lat="43.61493" lon="6.87945">
        <ele>198.80000305176</ele>
        <time>2013-06-20T16:02:04.000Z</time>
      </trkpt>
      <trkpt lat="43.61496" lon="6.87949">
        <ele>199.19999694824</ele>
        <time>2013-06-20T16:02:06.000Z</time>
      </trkpt>
      <trkpt lat="43.61498" lon="6.87952">
        <ele>199.80000305176</ele>
        <time>2013-06-20T16:02:08.000Z</time>
      </trkpt>
      <trkpt lat="43.615" lon="6.87955">
        <ele>200.19999694824</ele>
        <time>2013-06-20T16:02:10.000Z</time>
      </trkpt>
      <trkpt lat="43.61503" lon="6.87958">
        <ele>201</ele>
        <time>2013-06-20T16:02:12.000Z</time>
      </trkpt>
      <trkpt lat="43.61506" lon="6.87961">
        <ele>201.60000610352</ele>
        <time>2013-06-20T16:02:14.000Z</time>
      </trkpt>
      <trkpt lat="43.61509" lon="6.87963">
        <ele>202</ele>
        <time>2013-06-20T16:02:16.000Z</time>
      </trkpt>
      <trkpt lat="43.61511" lon="6.87964">
        <ele>202.19999694824</ele>
        <time>2013-06-20T16:02:17.000Z</time>
      </trkpt>
      <trkpt lat="43.61514" lon="6.87966">
        <ele>203</ele>
        <time>2013-06-20T16:02:19.000Z</time>
      </trkpt>
      <trkpt lat="43.61518" lon="6.87967">
        <ele>203.80000305176</ele>
        <time>2013-06-20T16:02:21.000Z</time>
      </trkpt>
      <trkpt lat="43.61521" lon="6.87969">
        <ele>204</ele>
        <time>2013-06-20T16:02:23.000Z</time>
      </trkpt>
      <trkpt lat="43.61525" lon="6.87972">
        <ele>204.60000610352</ele>
        <time>2013-06-20T16:02:25.000Z</time>
      </trkpt>
      <trkpt lat="43.61528" lon="6.87975">
        <ele>205</ele>
        <time>2013-06-20T16:02:27.000Z</time>
      </trkpt>
      <trkpt lat="43.61531" lon="6.87981">
        <ele>205.80000305176</ele>
        <time>2013-06-20T16:02:30.000Z</time>
      </trkpt>
      <trkpt lat="43.61533" lon="6.87984">
        <ele>206</ele>
        <time>2013-06-20T16:02:31.000Z</time>
      </trkpt>
      <trkpt lat="43.61535" lon="6.87989">
        <ele>206.60000610352</ele>
        <time>2013-06-20T16:02:33.000Z</time>
      </trkpt>
      <trkpt lat="43.61538" lon="6.87993">
        <ele>207</ele>
        <time>2013-06-20T16:02:35.000Z</time>
      </trkpt>
      <trkpt lat="43.6154" lon="6.87998">
        <ele>207.80000305176</ele>
        <time>2013-06-20T16:02:37.000Z</time>
      </trkpt>
      <trkpt lat="43.61543" lon="6.88003">
        <ele>208</ele>
        <time>2013-06-20T16:02:39.000Z</time>
      </trkpt>
      <trkpt lat="43.61545" lon="6.88006">
        <ele>208.60000610352</ele>
        <time>2013-06-20T16:02:41.000Z</time>
      </trkpt>
      <trkpt lat="43.61547" lon="6.8801">
        <ele>209</ele>
        <time>2013-06-20T16:02:43.000Z</time>
      </trkpt>
      <trkpt lat="43.61548" lon="6.88012">
        <ele>209.19999694824</ele>
        <time>2013-06-20T16:02:44.000Z</time>
      </trkpt>
      <trkpt lat="43.6155" lon="6.88015">
        <ele>210</ele>
        <time>2013-06-20T16:02:46.000Z</time>
      </trkpt>
      <trkpt lat="43.61552" lon="6.88018">
        <ele>210.60000610352</ele>
        <time>2013-06-20T16:02:48.000Z</time>
      </trkpt>
      <trkpt lat="43.61556" lon="6.88021">
        <ele>211</ele>
        <time>2013-06-20T16:02:50.000Z</time>
      </trkpt>
      <trkpt lat="43.6156" lon="6.88023">
        <ele>211</ele>
        <time>2013-06-20T16:02:52.000Z</time>
      </trkpt>
      <trkpt lat="43.61562" lon="6.88024">
        <ele>211.60000610352</ele>
        <time>2013-06-20T16:02:53.000Z</time>
      </trkpt>
      <trkpt lat="43.61566" lon="6.88025">
        <ele>212</ele>
        <time>2013-06-20T16:02:55.000Z</time>
      </trkpt>
      <trkpt lat="43.6157" lon="6.88026">
        <ele>212.80000305176</ele>
        <time>2013-06-20T16:02:57.000Z</time>
      </trkpt>
      <trkpt lat="43.61574" lon="6.88028">
        <ele>213</ele>
        <time>2013-06-20T16:02:59.000Z</time>
      </trkpt>
      <trkpt lat="43.61578" lon="6.8803">
        <ele>213.60000610352</ele>
        <time>2013-06-20T16:03:01.000Z</time>
      </trkpt>
      <trkpt lat="43.61584" lon="6.88041">
        <ele>214.19999694824</ele>
        <time>2013-06-20T16:03:07.000Z</time>
      </trkpt>
      <trkpt lat="43.61586" lon="6.88046">
        <ele>215</ele>
        <time>2013-06-20T16:03:09.000Z</time>
      </trkpt>
      <trkpt lat="43.61588" lon="6.88052">
        <ele>215.19999694824</ele>
        <time>2013-06-20T16:03:11.000Z</time>
      </trkpt>
      <trkpt lat="43.61589" lon="6.88054">
        <ele>215.60000610352</ele>
        <time>2013-06-20T16:03:12.000Z</time>
      </trkpt>
      <trkpt lat="43.61591" lon="6.88064">
        <ele>216</ele>
        <time>2013-06-20T16:03:15.000Z</time>
      </trkpt>
      <trkpt lat="43.61592" lon="6.88078">
        <ele>216.60000610352</ele>
        <time>2013-06-20T16:03:20.000Z</time>
      </trkpt>
      <trkpt lat="43.61593" lon="6.88083">
        <ele>217</ele>
        <time>2013-06-20T16:03:22.000Z</time>
      </trkpt>
      <trkpt lat="43.61593" lon="6.88089">
        <ele>217.60000610352</ele>
        <time>2013-06-20T16:03:24.000Z</time>
      </trkpt>
      <trkpt lat="43.61593" lon="6.88092">
        <ele>217.80000305176</ele>
        <time>2013-06-20T16:03:25.000Z</time>
      </trkpt>
      <trkpt lat="43.61594" lon="6.88099">
        <ele>218.19999694824</ele>
        <time>2013-06-20T16:03:28.000Z</time>
      </trkpt>
      <trkpt lat="43.61595" lon="6.88104">
        <ele>219</ele>
        <time>2013-06-20T16:03:30.000Z</time>
      </trkpt>
      <trkpt lat="43.61594" lon="6.8811">
        <ele>219.19999694824</ele>
        <time>2013-06-20T16:03:32.000Z</time>
      </trkpt>
      <trkpt lat="43.61594" lon="6.88112">
        <ele>219.60000610352</ele>
        <time>2013-06-20T16:03:33.000Z</time>
      </trkpt>
      <trkpt lat="43.61594" lon="6.88115">
        <ele>219.80000305176</ele>
        <time>2013-06-20T16:03:34.000Z</time>
      </trkpt>
      <trkpt lat="43.61594" lon="6.8812">
        <ele>220</ele>
        <time>2013-06-20T16:03:36.000Z</time>
      </trkpt>
      <trkpt lat="43.61594" lon="6.88122">
        <ele>220.60000610352</ele>
        <time>2013-06-20T16:03:37.000Z</time>
      </trkpt>
      <trkpt lat="43.61595" lon="6.88126">
        <ele>221</ele>
        <time>2013-06-20T16:03:39.000Z</time>
      </trkpt>
      <trkpt lat="43.61596" lon="6.88131">
        <ele>221.60000610352</ele>
        <time>2013-06-20T16:03:41.000Z</time>
      </trkpt>
      <trkpt lat="43.61598" lon="6.88137">
        <ele>222</ele>
        <time>2013-06-20T16:03:43.000Z</time>
      </trkpt>
      <trkpt lat="43.61601" lon="6.88144">
        <ele>222</ele>
        <time>2013-06-20T16:03:45.000Z</time>
      </trkpt>
      <trkpt lat="43.61603" lon="6.88147">
        <ele>222.60000610352</ele>
        <time>2013-06-20T16:03:46.000Z</time>
      </trkpt>
      <trkpt lat="43.61609" lon="6.88153">
        <ele>223.19999694824</ele>
        <time>2013-06-20T16:03:48.000Z</time>
      </trkpt>
      <trkpt lat="43.61614" lon="6.88156">
        <ele>223.80000305176</ele>
        <time>2013-06-20T16:03:50.000Z</time>
      </trkpt>
      <trkpt lat="43.61619" lon="6.88157">
        <ele>224</ele>
        <time>2013-06-20T16:03:52.000Z</time>
      </trkpt>
      <trkpt lat="43.61621" lon="6.88157">
        <ele>224.60000610352</ele>
        <time>2013-06-20T16:03:53.000Z</time>
      </trkpt>
      <trkpt lat="43.61625" lon="6.88156">
        <ele>225.19999694824</ele>
        <time>2013-06-20T16:03:55.000Z</time>
      </trkpt>
      <trkpt lat="43.61628" lon="6.88153">
        <ele>225.80000305176</ele>
        <time>2013-06-20T16:03:57.000Z</time>
      </trkpt>
      <trkpt lat="43.61632" lon="6.88149">
        <ele>226.19999694824</ele>
        <time>2013-06-20T16:03:59.000Z</time>
      </trkpt>
      <trkpt lat="43.61635" lon="6.88144">
        <ele>226.60000610352</ele>
        <time>2013-06-20T16:04:01.000Z</time>
      </trkpt>
      <trkpt lat="43.61637" lon="6.88141">
        <ele>226.80000305176</ele>
        <time>2013-06-20T16:04:02.000Z</time>
      </trkpt>
      <trkpt lat="43.61648" lon="6.88132">
        <ele>227.19999694824</ele>
        <time>2013-06-20T16:04:08.000Z</time>
      </trkpt>
      <trkpt lat="43.61651" lon="6.88131">
        <ele>227.60000610352</ele>
        <time>2013-06-20T16:04:10.000Z</time>
      </trkpt>
      <trkpt lat="43.6166" lon="6.8813">
        <ele>228</ele>
        <time>2013-06-20T16:04:14.000Z</time>
      </trkpt>
      <trkpt lat="43.61665" lon="6.88129">
        <ele>228.19999694824</ele>
        <time>2013-06-20T16:04:16.000Z</time>
      </trkpt>
      <trkpt lat="43.61671" lon="6.88127">
        <ele>228.80000305176</ele>
        <time>2013-06-20T16:04:18.000Z</time>
      </trkpt>
      <trkpt lat="43.61676" lon="6.88125">
        <ele>229</ele>
        <time>2013-06-20T16:04:20.000Z</time>
      </trkpt>
      <trkpt lat="43.6168" lon="6.88121">
        <ele>229.19999694824</ele>
        <time>2013-06-20T16:04:22.000Z</time>
      </trkpt>
      <trkpt lat="43.61685" lon="6.88118">
        <ele>230</ele>
        <time>2013-06-20T16:04:24.000Z</time>
      </trkpt>
      <trkpt lat="43.6169" lon="6.88115">
        <ele>230.19999694824</ele>
        <time>2013-06-20T16:04:26.000Z</time>
      </trkpt>
      <trkpt lat="43.61694" lon="6.88112">
        <ele>230.80000305176</ele>
        <time>2013-06-20T16:04:28.000Z</time>
      </trkpt>
      <trkpt lat="43.61699" lon="6.88109">
        <ele>231</ele>
        <time>2013-06-20T16:04:30.000Z</time>
      </trkpt>
      <trkpt lat="43.61701" lon="6.88108">
        <ele>231.19999694824</ele>
        <time>2013-06-20T16:04:31.000Z</time>
      </trkpt>
      <trkpt lat="43.61702" lon="6.88106">
        <ele>231.80000305176</ele>
        <time>2013-06-20T16:04:32.000Z</time>
      </trkpt>
      <trkpt lat="43.61706" lon="6.88101">
        <ele>232.60000610352</ele>
        <time>2013-06-20T16:04:35.000Z</time>
      </trkpt>
      <trkpt lat="43.6171" lon="6.88099">
        <ele>233</ele>
        <time>2013-06-20T16:04:37.000Z</time>
      </trkpt>
      <trkpt lat="43.61715" lon="6.88095">
        <ele>233</ele>
        <time>2013-06-20T16:04:39.000Z</time>
      </trkpt>
      <trkpt lat="43.6173" lon="6.88085">
        <ele>233.80000305176</ele>
        <time>2013-06-20T16:04:45.000Z</time>
      </trkpt>
      <trkpt lat="43.61732" lon="6.88084">
        <ele>233.80000305176</ele>
        <time>2013-06-20T16:04:46.000Z</time>
      </trkpt>
      <trkpt lat="43.61739" lon="6.88077">
        <ele>234</ele>
        <time>2013-06-20T16:04:51.000Z</time>
      </trkpt>
      <trkpt lat="43.61744" lon="6.8807">
        <ele>234</ele>
        <time>2013-06-20T16:04:55.000Z</time>
      </trkpt>
      <trkpt lat="43.61745" lon="6.88067">
        <ele>234</ele>
        <time>2013-06-20T16:04:56.000Z</time>
      </trkpt>
      <trkpt lat="43.61746" lon="6.88062">
        <ele>234.19999694824</ele>
        <time>2013-06-20T16:04:58.000Z</time>
      </trkpt>
      <trkpt lat="43.61754" lon="6.88039">
        <ele>234.19999694824</ele>
        <time>2013-06-20T16:05:04.000Z</time>
      </trkpt>
      <trkpt lat="43.61758" lon="6.88031">
        <ele>234.19999694824</ele>
        <time>2013-06-20T16:05:07.000Z</time>
      </trkpt>
      <trkpt lat="43.61758" lon="6.88029">
        <ele>234.19999694824</ele>
        <time>2013-06-20T16:05:11.000Z</time>
      </trkpt>
      <trkpt lat="43.61756" lon="6.88033">
        <ele>234.19999694824</ele>
        <time>2013-06-20T16:05:14.000Z</time>
      </trkpt>
      <trkpt lat="43.61747" lon="6.88047">
        <ele>234.19999694824</ele>
        <time>2013-06-20T16:05:20.000Z</time>
      </trkpt>
      <trkpt lat="43.61744" lon="6.88059">
        <ele>234.19999694824</ele>
        <time>2013-06-20T16:05:24.000Z</time>
      </trkpt>
      <trkpt lat="43.61734" lon="6.88071">
        <ele>234.60000610352</ele>
        <time>2013-06-20T16:05:31.000Z</time>
      </trkpt>
      <trkpt lat="43.61732" lon="6.88072">
        <ele>234.80000305176</ele>
        <time>2013-06-20T16:05:32.000Z</time>
      </trkpt>
      <trkpt lat="43.61728" lon="6.88073">
        <ele>235</ele>
        <time>2013-06-20T16:05:34.000Z</time>
      </trkpt>
      <trkpt lat="43.61724" lon="6.88075">
        <ele>235.19999694824</ele>
        <time>2013-06-20T16:05:36.000Z</time>
      </trkpt>
      <trkpt lat="43.61721" lon="6.88077">
        <ele>235.60000610352</ele>
        <time>2013-06-20T16:05:38.000Z</time>
      </trkpt>
      <trkpt lat="43.61718" lon="6.8808">
        <ele>235.80000305176</ele>
        <time>2013-06-20T16:05:40.000Z</time>
      </trkpt>
      <trkpt lat="43.61715" lon="6.88085">
        <ele>236</ele>
        <time>2013-06-20T16:05:45.000Z</time>
      </trkpt>
      <trkpt lat="43.61719" lon="6.88081">
        <ele>236.60000610352</ele>
        <time>2013-06-20T16:06:28.000Z</time>
      </trkpt>
      <trkpt lat="43.61719" lon="6.88082">
        <ele>236.60000610352</ele>
        <time>2013-06-20T16:06:29.000Z</time>
      </trkpt>
      <trkpt lat="43.61719" lon="6.88083">
        <ele>236.60000610352</ele>
        <time>2013-06-20T16:06:31.000Z</time>
      </trkpt>
      <trkpt lat="43.61719" lon="6.88078">
        <ele>236.60000610352</ele>
        <time>2013-06-20T16:07:07.000Z</time>
      </trkpt>
      <trkpt lat="43.6172" lon="6.88078">
        <ele>236.60000610352</ele>
        <time>2013-06-20T16:07:08.000Z</time>
      </trkpt>
      <trkpt lat="43.6173" lon="6.88075">
        <ele>236.60000610352</ele>
        <time>2013-06-20T16:07:15.000Z</time>
      </trkpt>
      <trkpt lat="43.61741" lon="6.88068">
        <ele>236.60000610352</ele>
        <time>2013-06-20T16:07:20.000Z</time>
      </trkpt>
      <trkpt lat="43.61749" lon="6.88061">
        <ele>236.60000610352</ele>
        <time>2013-06-20T16:07:24.000Z</time>
      </trkpt>
      <trkpt lat="43.61753" lon="6.88054">
        <ele>236.60000610352</ele>
        <time>2013-06-20T16:07:26.000Z</time>
      </trkpt>
      <trkpt lat="43.61758" lon="6.88034">
        <ele>236.60000610352</ele>
        <time>2013-06-20T16:07:30.000Z</time>
      </trkpt>
      <trkpt lat="43.61761" lon="6.88029">
        <ele>236.19999694824</ele>
        <time>2013-06-20T16:07:31.000Z</time>
      </trkpt>
      <trkpt lat="43.61765" lon="6.88023">
        <ele>236</ele>
        <time>2013-06-20T16:07:32.000Z</time>
      </trkpt>
      <trkpt lat="43.6178" lon="6.88006">
        <ele>235.80000305176</ele>
        <time>2013-06-20T16:07:34.000Z</time>
      </trkpt>
      <trkpt lat="43.61788" lon="6.87986">
        <ele>235.19999694824</ele>
        <time>2013-06-20T16:07:37.000Z</time>
      </trkpt>
      <trkpt lat="43.61795" lon="6.87983">
        <ele>235</ele>
        <time>2013-06-20T16:07:38.000Z</time>
      </trkpt>
      <trkpt lat="43.61799" lon="6.87977">
        <ele>235</ele>
        <time>2013-06-20T16:07:39.000Z</time>
      </trkpt>
      <trkpt lat="43.61806" lon="6.87973">
        <ele>234.80000305176</ele>
        <time>2013-06-20T16:07:40.000Z</time>
      </trkpt>
      <trkpt lat="43.61819" lon="6.87965">
        <ele>234.19999694824</ele>
        <time>2013-06-20T16:07:42.000Z</time>
      </trkpt>
      <trkpt lat="43.61825" lon="6.87959">
        <ele>234</ele>
        <time>2013-06-20T16:07:43.000Z</time>
      </trkpt>
      <trkpt lat="43.6183" lon="6.87952">
        <ele>234</ele>
        <time>2013-06-20T16:07:44.000Z</time>
      </trkpt>
      <trkpt lat="43.61838" lon="6.87939">
        <ele>233.60000610352</ele>
        <time>2013-06-20T16:07:46.000Z</time>
      </trkpt>
      <trkpt lat="43.6184" lon="6.87933">
        <ele>233.19999694824</ele>
        <time>2013-06-20T16:07:47.000Z</time>
      </trkpt>
      <trkpt lat="43.61844" lon="6.87928">
        <ele>233.19999694824</ele>
        <time>2013-06-20T16:07:48.000Z</time>
      </trkpt>
      <trkpt lat="43.61858" lon="6.87923">
        <ele>233</ele>
        <time>2013-06-20T16:07:51.000Z</time>
      </trkpt>
      <trkpt lat="43.61863" lon="6.87922">
        <ele>233</ele>
        <time>2013-06-20T16:07:52.000Z</time>
      </trkpt>
      <trkpt lat="43.61868" lon="6.87921">
        <ele>232.80000305176</ele>
        <time>2013-06-20T16:07:53.000Z</time>
      </trkpt>
      <trkpt lat="43.61884" lon="6.87903">
        <ele>232.60000610352</ele>
        <time>2013-06-20T16:07:57.000Z</time>
      </trkpt>
      <trkpt lat="43.61912" lon="6.87886">
        <ele>232.19999694824</ele>
        <time>2013-06-20T16:08:03.000Z</time>
      </trkpt>
      <trkpt lat="43.61918" lon="6.87882">
        <ele>232.19999694824</ele>
        <time>2013-06-20T16:08:04.000Z</time>
      </trkpt>
      <trkpt lat="43.61929" lon="6.87858">
        <ele>232</ele>
        <time>2013-06-20T16:08:08.000Z</time>
      </trkpt>
      <trkpt lat="43.61929" lon="6.87852">
        <ele>232</ele>
        <time>2013-06-20T16:08:09.000Z</time>
      </trkpt>
      <trkpt lat="43.61927" lon="6.87826">
        <ele>232</ele>
        <time>2013-06-20T16:08:14.000Z</time>
      </trkpt>
      <trkpt lat="43.61927" lon="6.8782">
        <ele>232.19999694824</ele>
        <time>2013-06-20T16:08:15.000Z</time>
      </trkpt>
      <trkpt lat="43.61928" lon="6.87809">
        <ele>232.80000305176</ele>
        <time>2013-06-20T16:08:17.000Z</time>
      </trkpt>
      <trkpt lat="43.61929" lon="6.87798">
        <ele>233</ele>
        <time>2013-06-20T16:08:19.000Z</time>
      </trkpt>
      <trkpt lat="43.61931" lon="6.87788">
        <ele>233</ele>
        <time>2013-06-20T16:08:21.000Z</time>
      </trkpt>
      <trkpt lat="43.61934" lon="6.87777">
        <ele>233.19999694824</ele>
        <time>2013-06-20T16:08:23.000Z</time>
      </trkpt>
      <trkpt lat="43.61935" lon="6.87763">
        <ele>233.80000305176</ele>
        <time>2013-06-20T16:08:26.000Z</time>
      </trkpt>
      <trkpt lat="43.61936" lon="6.8775">
        <ele>234.19999694824</ele>
        <time>2013-06-20T16:08:28.000Z</time>
      </trkpt>
      <trkpt lat="43.61937" lon="6.87734">
        <ele>234.80000305176</ele>
        <time>2013-06-20T16:08:30.000Z</time>
      </trkpt>
      <trkpt lat="43.61937" lon="6.87722">
        <ele>235</ele>
        <time>2013-06-20T16:08:32.000Z</time>
      </trkpt>
      <trkpt lat="43.61937" lon="6.87711">
        <ele>235.19999694824</ele>
        <time>2013-06-20T16:08:34.000Z</time>
      </trkpt>
      <trkpt lat="43.61937" lon="6.87706">
        <ele>235.60000610352</ele>
        <time>2013-06-20T16:08:35.000Z</time>
      </trkpt>
      <trkpt lat="43.6194" lon="6.87698">
        <ele>236</ele>
        <time>2013-06-20T16:08:37.000Z</time>
      </trkpt>
      <trkpt lat="43.61943" lon="6.87691">
        <ele>236.60000610352</ele>
        <time>2013-06-20T16:08:39.000Z</time>
      </trkpt>
      <trkpt lat="43.61948" lon="6.87682">
        <ele>237</ele>
        <time>2013-06-20T16:08:41.000Z</time>
      </trkpt>
      <trkpt lat="43.61952" lon="6.87677">
        <ele>237</ele>
        <time>2013-06-20T16:08:42.000Z</time>
      </trkpt>
      <trkpt lat="43.61956" lon="6.87671">
        <ele>237.19999694824</ele>
        <time>2013-06-20T16:08:43.000Z</time>
      </trkpt>
      <trkpt lat="43.61976" lon="6.87641">
        <ele>237.80000305176</ele>
        <time>2013-06-20T16:08:48.000Z</time>
      </trkpt>
      <trkpt lat="43.61998" lon="6.87607">
        <ele>238</ele>
        <time>2013-06-20T16:08:54.000Z</time>
      </trkpt>
      <trkpt lat="43.62002" lon="6.87601">
        <ele>238</ele>
        <time>2013-06-20T16:08:55.000Z</time>
      </trkpt>
      <trkpt lat="43.6201" lon="6.87589">
        <ele>237.80000305176</ele>
        <time>2013-06-20T16:08:57.000Z</time>
      </trkpt>
      <trkpt lat="43.62019" lon="6.87577">
        <ele>237.19999694824</ele>
        <time>2013-06-20T16:08:59.000Z</time>
      </trkpt>
      <trkpt lat="43.62029" lon="6.87566">
        <ele>237</ele>
        <time>2013-06-20T16:09:01.000Z</time>
      </trkpt>
      <trkpt lat="43.62036" lon="6.87561">
        <ele>237</ele>
        <time>2013-06-20T16:09:02.000Z</time>
      </trkpt>
      <trkpt lat="43.62043" lon="6.87556">
        <ele>237</ele>
        <time>2013-06-20T16:09:03.000Z</time>
      </trkpt>
      <trkpt lat="43.6205" lon="6.87551">
        <ele>236.80000305176</ele>
        <time>2013-06-20T16:09:04.000Z</time>
      </trkpt>
      <trkpt lat="43.62062" lon="6.87539">
        <ele>236.19999694824</ele>
        <time>2013-06-20T16:09:06.000Z</time>
      </trkpt>
      <trkpt lat="43.62069" lon="6.87534">
        <ele>236</ele>
        <time>2013-06-20T16:09:07.000Z</time>
      </trkpt>
      <trkpt lat="43.62076" lon="6.87529">
        <ele>236</ele>
        <time>2013-06-20T16:09:08.000Z</time>
      </trkpt>
      <trkpt lat="43.62084" lon="6.87525">
        <ele>235.80000305176</ele>
        <time>2013-06-20T16:09:09.000Z</time>
      </trkpt>
      <trkpt lat="43.62097" lon="6.87517">
        <ele>234.80000305176</ele>
        <time>2013-06-20T16:09:12.000Z</time>
      </trkpt>
      <trkpt lat="43.621" lon="6.87515">
        <ele>234.19999694824</ele>
        <time>2013-06-20T16:09:13.000Z</time>
      </trkpt>
      <trkpt lat="43.62103" lon="6.87515">
        <ele>234</ele>
        <time>2013-06-20T16:09:14.000Z</time>
      </trkpt>
      <trkpt lat="43.62107" lon="6.87515">
        <ele>233.60000610352</ele>
        <time>2013-06-20T16:09:15.000Z</time>
      </trkpt>
      <trkpt lat="43.62118" lon="6.87512">
        <ele>233</ele>
        <time>2013-06-20T16:09:17.000Z</time>
      </trkpt>
      <trkpt lat="43.62126" lon="6.8751">
        <ele>232.60000610352</ele>
        <time>2013-06-20T16:09:18.000Z</time>
      </trkpt>
      <trkpt lat="43.62133" lon="6.87509">
        <ele>232.19999694824</ele>
        <time>2013-06-20T16:09:19.000Z</time>
      </trkpt>
      <trkpt lat="43.62148" lon="6.87508">
        <ele>232</ele>
        <time>2013-06-20T16:09:21.000Z</time>
      </trkpt>
      <trkpt lat="43.62155" lon="6.87509">
        <ele>231.60000610352</ele>
        <time>2013-06-20T16:09:22.000Z</time>
      </trkpt>
      <trkpt lat="43.62161" lon="6.8751">
        <ele>231</ele>
        <time>2013-06-20T16:09:23.000Z</time>
      </trkpt>
      <trkpt lat="43.62168" lon="6.87511">
        <ele>230.80000305176</ele>
        <time>2013-06-20T16:09:24.000Z</time>
      </trkpt>
      <trkpt lat="43.62181" lon="6.87514">
        <ele>230.19999694824</ele>
        <time>2013-06-20T16:09:26.000Z</time>
      </trkpt>
      <trkpt lat="43.62193" lon="6.87518">
        <ele>229.80000305176</ele>
        <time>2013-06-20T16:09:28.000Z</time>
      </trkpt>
      <trkpt lat="43.62203" lon="6.87523">
        <ele>229.19999694824</ele>
        <time>2013-06-20T16:09:30.000Z</time>
      </trkpt>
      <trkpt lat="43.62214" lon="6.87528">
        <ele>229</ele>
        <time>2013-06-20T16:09:32.000Z</time>
      </trkpt>
      <trkpt lat="43.62246" lon="6.8754">
        <ele>228.19999694824</ele>
        <time>2013-06-20T16:09:39.000Z</time>
      </trkpt>
      <trkpt lat="43.62271" lon="6.87545">
        <ele>228</ele>
        <time>2013-06-20T16:09:44.000Z</time>
      </trkpt>
      <trkpt lat="43.62275" lon="6.87545">
        <ele>228.19999694824</ele>
        <time>2013-06-20T16:09:45.000Z</time>
      </trkpt>
      <trkpt lat="43.62282" lon="6.87545">
        <ele>228.80000305176</ele>
        <time>2013-06-20T16:09:47.000Z</time>
      </trkpt>
      <trkpt lat="43.62288" lon="6.87548">
        <ele>229</ele>
        <time>2013-06-20T16:09:49.000Z</time>
      </trkpt>
      <trkpt lat="43.62295" lon="6.87553">
        <ele>229</ele>
        <time>2013-06-20T16:09:51.000Z</time>
      </trkpt>
      <trkpt lat="43.62303" lon="6.87558">
        <ele>229.19999694824</ele>
        <time>2013-06-20T16:09:53.000Z</time>
      </trkpt>
      <trkpt lat="43.62306" lon="6.8756">
        <ele>229.60000610352</ele>
        <time>2013-06-20T16:09:54.000Z</time>
      </trkpt>
      <trkpt lat="43.62314" lon="6.87565">
        <ele>230</ele>
        <time>2013-06-20T16:09:56.000Z</time>
      </trkpt>
      <trkpt lat="43.62324" lon="6.87564">
        <ele>230.60000610352</ele>
        <time>2013-06-20T16:09:58.000Z</time>
      </trkpt>
      <trkpt lat="43.62334" lon="6.87561">
        <ele>230.80000305176</ele>
        <time>2013-06-20T16:10:00.000Z</time>
      </trkpt>
      <trkpt lat="43.62343" lon="6.87558">
        <ele>231</ele>
        <time>2013-06-20T16:10:02.000Z</time>
      </trkpt>
      <trkpt lat="43.62367" lon="6.87554">
        <ele>231.60000610352</ele>
        <time>2013-06-20T16:10:08.000Z</time>
      </trkpt>
      <trkpt lat="43.62371" lon="6.87556">
        <ele>231.80000305176</ele>
        <time>2013-06-20T16:10:09.000Z</time>
      </trkpt>
      <trkpt lat="43.62382" lon="6.87556">
        <ele>232.19999694824</ele>
        <time>2013-06-20T16:10:12.000Z</time>
      </trkpt>
      <trkpt lat="43.62387" lon="6.87553">
        <ele>232.80000305176</ele>
        <time>2013-06-20T16:10:14.000Z</time>
      </trkpt>
      <trkpt lat="43.62389" lon="6.87553">
        <ele>233</ele>
        <time>2013-06-20T16:10:15.000Z</time>
      </trkpt>
      <trkpt lat="43.62391" lon="6.87554">
        <ele>233</ele>
        <time>2013-06-20T16:10:16.000Z</time>
      </trkpt>
      <trkpt lat="43.62393" lon="6.87554">
        <ele>233</ele>
        <time>2013-06-20T16:10:17.000Z</time>
      </trkpt>
      <trkpt lat="43.62396" lon="6.87554">
        <ele>233.19999694824</ele>
        <time>2013-06-20T16:10:18.000Z</time>
      </trkpt>
      <trkpt lat="43.62404" lon="6.87553">
        <ele>233.60000610352</ele>
        <time>2013-06-20T16:10:20.000Z</time>
      </trkpt>
      <trkpt lat="43.62418" lon="6.87558">
        <ele>233.80000305176</ele>
        <time>2013-06-20T16:10:25.000Z</time>
      </trkpt>
      <trkpt lat="43.62434" lon="6.87562">
        <ele>234</ele>
        <time>2013-06-20T16:10:30.000Z</time>
      </trkpt>
      <trkpt lat="43.62437" lon="6.87563">
        <ele>234</ele>
        <time>2013-06-20T16:10:31.000Z</time>
      </trkpt>
      <trkpt lat="43.62445" lon="6.87546">
        <ele>234</ele>
        <time>2013-06-20T16:10:35.000Z</time>
      </trkpt>
      <trkpt lat="43.62445" lon="6.87541">
        <ele>234</ele>
        <time>2013-06-20T16:10:36.000Z</time>
      </trkpt>
      <trkpt lat="43.62436" lon="6.87534">
        <ele>234</ele>
        <time>2013-06-20T16:10:39.000Z</time>
      </trkpt>
      <trkpt lat="43.62431" lon="6.87535">
        <ele>234</ele>
        <time>2013-06-20T16:10:40.000Z</time>
      </trkpt>
      <trkpt lat="43.62395" lon="6.87525">
        <ele>234.19999694824</ele>
        <time>2013-06-20T16:10:48.000Z</time>
      </trkpt>
      <trkpt lat="43.62392" lon="6.87524">
        <ele>234.19999694824</ele>
        <time>2013-06-20T16:10:49.000Z</time>
      </trkpt>
      <trkpt lat="43.62381" lon="6.87518">
        <ele>234.19999694824</ele>
        <time>2013-06-20T16:10:52.000Z</time>
      </trkpt>
      <trkpt lat="43.62362" lon="6.87501">
        <ele>234.19999694824</ele>
        <time>2013-06-20T16:10:56.000Z</time>
      </trkpt>
      <trkpt lat="43.62333" lon="6.87489">
        <ele>234.19999694824</ele>
        <time>2013-06-20T16:11:00.000Z</time>
      </trkpt>
      <trkpt lat="43.62324" lon="6.87491">
        <ele>234.19999694824</ele>
        <time>2013-06-20T16:11:01.000Z</time>
      </trkpt>
      <trkpt lat="43.623" lon="6.87499">
        <ele>234.19999694824</ele>
        <time>2013-06-20T16:11:03.000Z</time>
      </trkpt>
      <trkpt lat="43.62278" lon="6.87497">
        <ele>233.80000305176</ele>
        <time>2013-06-20T16:11:06.000Z</time>
      </trkpt>
      <trkpt lat="43.62262" lon="6.87495">
        <ele>233.19999694824</ele>
        <time>2013-06-20T16:11:08.000Z</time>
      </trkpt>
      <trkpt lat="43.62254" lon="6.87494">
        <ele>233</ele>
        <time>2013-06-20T16:11:09.000Z</time>
      </trkpt>
      <trkpt lat="43.62231" lon="6.87496">
        <ele>232.80000305176</ele>
        <time>2013-06-20T16:11:12.000Z</time>
      </trkpt>
      <trkpt lat="43.62218" lon="6.87494">
        <ele>232</ele>
        <time>2013-06-20T16:11:14.000Z</time>
      </trkpt>
      <trkpt lat="43.62213" lon="6.87491">
        <ele>232</ele>
        <time>2013-06-20T16:11:15.000Z</time>
      </trkpt>
      <trkpt lat="43.62204" lon="6.87483">
        <ele>231</ele>
        <time>2013-06-20T16:11:17.000Z</time>
      </trkpt>
      <trkpt lat="43.622" lon="6.87478">
        <ele>230.80000305176</ele>
        <time>2013-06-20T16:11:18.000Z</time>
      </trkpt>
      <trkpt lat="43.62188" lon="6.87468">
        <ele>230</ele>
        <time>2013-06-20T16:11:20.000Z</time>
      </trkpt>
      <trkpt lat="43.62177" lon="6.8746">
        <ele>229.60000610352</ele>
        <time>2013-06-20T16:11:22.000Z</time>
      </trkpt>
      <trkpt lat="43.62166" lon="6.87453">
        <ele>228.80000305176</ele>
        <time>2013-06-20T16:11:24.000Z</time>
      </trkpt>
      <trkpt lat="43.62162" lon="6.87449">
        <ele>228.19999694824</ele>
        <time>2013-06-20T16:11:25.000Z</time>
      </trkpt>
      <trkpt lat="43.62151" lon="6.87433">
        <ele>227.60000610352</ele>
        <time>2013-06-20T16:11:28.000Z</time>
      </trkpt>
      <trkpt lat="43.62142" lon="6.8742">
        <ele>227</ele>
        <time>2013-06-20T16:11:30.000Z</time>
      </trkpt>
      <trkpt lat="43.62139" lon="6.87414">
        <ele>227</ele>
        <time>2013-06-20T16:11:31.000Z</time>
      </trkpt>
      <trkpt lat="43.62128" lon="6.87382">
        <ele>226.60000610352</ele>
        <time>2013-06-20T16:11:35.000Z</time>
      </trkpt>
      <trkpt lat="43.6211" lon="6.87348">
        <ele>226</ele>
        <time>2013-06-20T16:11:39.000Z</time>
      </trkpt>
      <trkpt lat="43.62108" lon="6.8734">
        <ele>226</ele>
        <time>2013-06-20T16:11:40.000Z</time>
      </trkpt>
      <trkpt lat="43.62104" lon="6.87317">
        <ele>226</ele>
        <time>2013-06-20T16:11:43.000Z</time>
      </trkpt>
      <trkpt lat="43.62098" lon="6.87295">
        <ele>225.80000305176</ele>
        <time>2013-06-20T16:11:46.000Z</time>
      </trkpt>
      <trkpt lat="43.62078" lon="6.87267">
        <ele>225.80000305176</ele>
        <time>2013-06-20T16:11:52.000Z</time>
      </trkpt>
      <trkpt lat="43.62078" lon="6.8726">
        <ele>225.80000305176</ele>
        <time>2013-06-20T16:11:53.000Z</time>
      </trkpt>
      <trkpt lat="43.62084" lon="6.87244">
        <ele>225.60000610352</ele>
        <time>2013-06-20T16:11:56.000Z</time>
      </trkpt>
      <trkpt lat="43.62085" lon="6.87211">
        <ele>225.60000610352</ele>
        <time>2013-06-20T16:12:01.000Z</time>
      </trkpt>
      <trkpt lat="43.62095" lon="6.87201">
        <ele>225.60000610352</ele>
        <time>2013-06-20T16:12:04.000Z</time>
      </trkpt>
      <trkpt lat="43.621" lon="6.87189">
        <ele>225.80000305176</ele>
        <time>2013-06-20T16:12:09.000Z</time>
      </trkpt>
      <trkpt lat="43.62101" lon="6.87187">
        <ele>226</ele>
        <time>2013-06-20T16:12:10.000Z</time>
      </trkpt>
      <trkpt lat="43.62102" lon="6.87185">
        <ele>226</ele>
        <time>2013-06-20T16:12:11.000Z</time>
      </trkpt>
      <trkpt lat="43.62107" lon="6.8718">
        <ele>226.19999694824</ele>
        <time>2013-06-20T16:12:13.000Z</time>
      </trkpt>
      <trkpt lat="43.62109" lon="6.87178">
        <ele>226.60000610352</ele>
        <time>2013-06-20T16:12:14.000Z</time>
      </trkpt>
      <trkpt lat="43.6211" lon="6.87172">
        <ele>227</ele>
        <time>2013-06-20T16:12:16.000Z</time>
      </trkpt>
      <trkpt lat="43.62107" lon="6.87166">
        <ele>227.60000610352</ele>
        <time>2013-06-20T16:12:18.000Z</time>
      </trkpt>
      <trkpt lat="43.62103" lon="6.8716">
        <ele>227.80000305176</ele>
        <time>2013-06-20T16:12:19.000Z</time>
      </trkpt>
      <trkpt lat="43.62098" lon="6.87154">
        <ele>228</ele>
        <time>2013-06-20T16:12:20.000Z</time>
      </trkpt>
      <trkpt lat="43.6209" lon="6.87146">
        <ele>228.19999694824</ele>
        <time>2013-06-20T16:12:22.000Z</time>
      </trkpt>
      <trkpt lat="43.62082" lon="6.87143">
        <ele>228.60000610352</ele>
        <time>2013-06-20T16:12:26.000Z</time>
      </trkpt>
      <trkpt lat="43.62076" lon="6.87134">
        <ele>229</ele>
        <time>2013-06-20T16:12:31.000Z</time>
      </trkpt>
      <trkpt lat="43.62075" lon="6.87132">
        <ele>229</ele>
        <time>2013-06-20T16:12:32.000Z</time>
      </trkpt>
      <trkpt lat="43.62074" lon="6.87126">
        <ele>229.60000610352</ele>
        <time>2013-06-20T16:12:34.000Z</time>
      </trkpt>
      <trkpt lat="43.62072" lon="6.87115">
        <ele>230</ele>
        <time>2013-06-20T16:12:36.000Z</time>
      </trkpt>
      <trkpt lat="43.62071" lon="6.87111">
        <ele>230</ele>
        <time>2013-06-20T16:12:37.000Z</time>
      </trkpt>
      <trkpt lat="43.62064" lon="6.87102">
        <ele>230.60000610352</ele>
        <time>2013-06-20T16:12:40.000Z</time>
      </trkpt>
      <trkpt lat="43.62062" lon="6.87098">
        <ele>231</ele>
        <time>2013-06-20T16:12:41.000Z</time>
      </trkpt>
      <trkpt lat="43.62061" lon="6.87095">
        <ele>231.19999694824</ele>
        <time>2013-06-20T16:12:42.000Z</time>
      </trkpt>
      <trkpt lat="43.62061" lon="6.87092">
        <ele>231.60000610352</ele>
        <time>2013-06-20T16:12:43.000Z</time>
      </trkpt>
      <trkpt lat="43.62058" lon="6.87085">
        <ele>232</ele>
        <time>2013-06-20T16:12:45.000Z</time>
      </trkpt>
      <trkpt lat="43.62055" lon="6.87076">
        <ele>232.60000610352</ele>
        <time>2013-06-20T16:12:47.000Z</time>
      </trkpt>
      <trkpt lat="43.62053" lon="6.87072">
        <ele>232.80000305176</ele>
        <time>2013-06-20T16:12:48.000Z</time>
      </trkpt>
      <trkpt lat="43.62052" lon="6.87067">
        <ele>233.60000610352</ele>
        <time>2013-06-20T16:12:50.000Z</time>
      </trkpt>
      <trkpt lat="43.62056" lon="6.87067">
        <ele>234.19999694824</ele>
        <time>2013-06-20T16:12:54.000Z</time>
      </trkpt>
      <trkpt lat="43.62055" lon="6.87067">
        <ele>234.60000610352</ele>
        <time>2013-06-20T16:12:55.000Z</time>
      </trkpt>
      <trkpt lat="43.62053" lon="6.87068">
        <ele>235</ele>
        <time>2013-06-20T16:12:58.000Z</time>
      </trkpt>
      <trkpt lat="43.62052" lon="6.87074">
        <ele>235.19999694824</ele>
        <time>2013-06-20T16:13:00.000Z</time>
      </trkpt>
      <trkpt lat="43.62052" lon="6.87077">
        <ele>235.19999694824</ele>
        <time>2013-06-20T16:13:01.000Z</time>
      </trkpt>
      <trkpt lat="43.62034" lon="6.87092">
        <ele>235.80000305176</ele>
        <time>2013-06-20T16:13:08.000Z</time>
      </trkpt>
      <trkpt lat="43.62015" lon="6.87101">
        <ele>236</ele>
        <time>2013-06-20T16:13:14.000Z</time>
      </trkpt>
      <trkpt lat="43.62" lon="6.87106">
        <ele>236</ele>
        <time>2013-06-20T16:13:19.000Z</time>
      </trkpt>
      <trkpt lat="43.61984" lon="6.87111">
        <ele>236</ele>
        <time>2013-06-20T16:13:25.000Z</time>
      </trkpt>
      <trkpt lat="43.61973" lon="6.8711">
        <ele>236</ele>
        <time>2013-06-20T16:13:30.000Z</time>
      </trkpt>
      <trkpt lat="43.6196" lon="6.87116">
        <ele>236</ele>
        <time>2013-06-20T16:13:35.000Z</time>
      </trkpt>
      <trkpt lat="43.61945" lon="6.87114">
        <ele>236</ele>
        <time>2013-06-20T16:13:39.000Z</time>
      </trkpt>
      <trkpt lat="43.61928" lon="6.87094">
        <ele>236</ele>
        <time>2013-06-20T16:13:45.000Z</time>
      </trkpt>
      <trkpt lat="43.61914" lon="6.87081">
        <ele>236</ele>
        <time>2013-06-20T16:13:49.000Z</time>
      </trkpt>
      <trkpt lat="43.61905" lon="6.87071">
        <ele>236</ele>
        <time>2013-06-20T16:13:52.000Z</time>
      </trkpt>
      <trkpt lat="43.61894" lon="6.87047">
        <ele>236</ele>
        <time>2013-06-20T16:13:56.000Z</time>
      </trkpt>
      <trkpt lat="43.61887" lon="6.87035">
        <ele>236</ele>
        <time>2013-06-20T16:13:58.000Z</time>
      </trkpt>
      <trkpt lat="43.61881" lon="6.87022">
        <ele>235.60000610352</ele>
        <time>2013-06-20T16:14:00.000Z</time>
      </trkpt>
      <trkpt lat="43.61875" lon="6.87006">
        <ele>235</ele>
        <time>2013-06-20T16:14:02.000Z</time>
      </trkpt>
      <trkpt lat="43.61869" lon="6.86991">
        <ele>234.19999694824</ele>
        <time>2013-06-20T16:14:04.000Z</time>
      </trkpt>
      <trkpt lat="43.61868" lon="6.86984">
        <ele>234</ele>
        <time>2013-06-20T16:14:05.000Z</time>
      </trkpt>
      <trkpt lat="43.61868" lon="6.86978">
        <ele>233.80000305176</ele>
        <time>2013-06-20T16:14:06.000Z</time>
      </trkpt>
      <trkpt lat="43.61875" lon="6.86972">
        <ele>233</ele>
        <time>2013-06-20T16:14:08.000Z</time>
      </trkpt>
      <trkpt lat="43.61879" lon="6.8697">
        <ele>232.60000610352</ele>
        <time>2013-06-20T16:14:09.000Z</time>
      </trkpt>
      <trkpt lat="43.61884" lon="6.86966">
        <ele>231.80000305176</ele>
        <time>2013-06-20T16:14:12.000Z</time>
      </trkpt>
      <trkpt lat="43.61884" lon="6.86962">
        <ele>231.60000610352</ele>
        <time>2013-06-20T16:14:13.000Z</time>
      </trkpt>
      <trkpt lat="43.61884" lon="6.86959">
        <ele>231.19999694824</ele>
        <time>2013-06-20T16:14:14.000Z</time>
      </trkpt>
      <trkpt lat="43.61884" lon="6.86951">
        <ele>230.80000305176</ele>
        <time>2013-06-20T16:14:16.000Z</time>
      </trkpt>
      <trkpt lat="43.61884" lon="6.86947">
        <ele>230</ele>
        <time>2013-06-20T16:14:18.000Z</time>
      </trkpt>
      <trkpt lat="43.61883" lon="6.86949">
        <ele>228</ele>
        <time>2013-06-20T16:14:33.000Z</time>
      </trkpt>
      <trkpt lat="43.61882" lon="6.86948">
        <ele>228</ele>
        <time>2013-06-20T16:14:35.000Z</time>
      </trkpt>
      <trkpt lat="43.61881" lon="6.86946">
        <ele>227.60000610352</ele>
        <time>2013-06-20T16:14:46.000Z</time>
      </trkpt>
      <trkpt lat="43.61882" lon="6.86947">
        <ele>227.60000610352</ele>
        <time>2013-06-20T16:14:48.000Z</time>
      </trkpt>
      <trkpt lat="43.61883" lon="6.86948">
        <ele>227.60000610352</ele>
        <time>2013-06-20T16:14:50.000Z</time>
      </trkpt>
      <trkpt lat="43.61886" lon="6.8695">
        <ele>227.60000610352</ele>
        <time>2013-06-20T16:14:54.000Z</time>
      </trkpt>
      <trkpt lat="43.61894" lon="6.86958">
        <ele>227.60000610352</ele>
        <time>2013-06-20T16:16:36.000Z</time>
      </trkpt>
      <trkpt lat="43.61895" lon="6.86959">
        <ele>227.60000610352</ele>
        <time>2013-06-20T16:16:39.000Z</time>
      </trkpt>
      <trkpt lat="43.61895" lon="6.8696">
        <ele>227.60000610352</ele>
        <time>2013-06-20T16:16:40.000Z</time>
      </trkpt>
      <trkpt lat="43.61889" lon="6.86952">
        <ele>225.19999694824</ele>
        <time>2013-06-20T16:17:44.000Z</time>
      </trkpt>
      <trkpt lat="43.61889" lon="6.86952">
        <ele>225.19999694824</ele>
        <time>2013-06-20T16:17:45.000Z</time>
      </trkpt>
      <trkpt lat="43.61889" lon="6.86953">
        <ele>225.19999694824</ele>
        <time>2013-06-20T16:17:46.000Z</time>
      </trkpt>
      <trkpt lat="43.61888" lon="6.86954">
        <ele>225.19999694824</ele>
        <time>2013-06-20T16:17:47.000Z</time>
      </trkpt>
      <trkpt lat="43.61888" lon="6.86954">
        <ele>225.19999694824</ele>
        <time>2013-06-20T16:17:48.000Z</time>
      </trkpt>
      <trkpt lat="43.61887" lon="6.86944">
        <ele>225.19999694824</ele>
        <time>2013-06-20T16:18:24.000Z</time>
      </trkpt>
      <trkpt lat="43.61887" lon="6.86943">
        <ele>225.19999694824</ele>
        <time>2013-06-20T16:18:25.000Z</time>
      </trkpt>
      <trkpt lat="43.61887" lon="6.86941">
        <ele>225.19999694824</ele>
        <time>2013-06-20T16:18:27.000Z</time>
      </trkpt>
      <trkpt lat="43.61887" lon="6.8694">
        <ele>225.19999694824</ele>
        <time>2013-06-20T16:18:28.000Z</time>
      </trkpt>
      <trkpt lat="43.61891" lon="6.86941">
        <ele>227.60000610352</ele>
        <time>2013-06-20T16:24:18.000Z</time>
      </trkpt>
      <trkpt lat="43.61892" lon="6.8694">
        <ele>227.60000610352</ele>
        <time>2013-06-20T16:24:19.000Z</time>
      </trkpt>
      <trkpt lat="43.61893" lon="6.86938">
        <ele>227.60000610352</ele>
        <time>2013-06-20T16:24:20.000Z</time>
      </trkpt>
      <trkpt lat="43.61895" lon="6.86935">
        <ele>227.60000610352</ele>
        <time>2013-06-20T16:24:21.000Z</time>
      </trkpt>
      <trkpt lat="43.61899" lon="6.86926">
        <ele>227.60000610352</ele>
        <time>2013-06-20T16:24:23.000Z</time>
      </trkpt>
      <trkpt lat="43.61905" lon="6.86908">
        <ele>227.60000610352</ele>
        <time>2013-06-20T16:24:24.000Z</time>
      </trkpt>
      <trkpt lat="43.61914" lon="6.86897">
        <ele>227.60000610352</ele>
        <time>2013-06-20T16:24:26.000Z</time>
      </trkpt>
      <trkpt lat="43.6192" lon="6.86873">
        <ele>227.60000610352</ele>
        <time>2013-06-20T16:24:30.000Z</time>
      </trkpt>
      <trkpt lat="43.61926" lon="6.86841">
        <ele>227.19999694824</ele>
        <time>2013-06-20T16:24:34.000Z</time>
      </trkpt>
      <trkpt lat="43.61928" lon="6.86833">
        <ele>227</ele>
        <time>2013-06-20T16:24:35.000Z</time>
      </trkpt>
      <trkpt lat="43.61933" lon="6.86816">
        <ele>226.80000305176</ele>
        <time>2013-06-20T16:24:37.000Z</time>
      </trkpt>
      <trkpt lat="43.61937" lon="6.86809">
        <ele>226.60000610352</ele>
        <time>2013-06-20T16:24:38.000Z</time>
      </trkpt>
      <trkpt lat="43.6194" lon="6.86801">
        <ele>226.60000610352</ele>
        <time>2013-06-20T16:24:39.000Z</time>
      </trkpt>
      <trkpt lat="43.61949" lon="6.86774">
        <ele>226</ele>
        <time>2013-06-20T16:24:42.000Z</time>
      </trkpt>
      <trkpt lat="43.61956" lon="6.86756">
        <ele>225.80000305176</ele>
        <time>2013-06-20T16:24:44.000Z</time>
      </trkpt>
      <trkpt lat="43.61964" lon="6.86739">
        <ele>225.19999694824</ele>
        <time>2013-06-20T16:24:46.000Z</time>
      </trkpt>
      <trkpt lat="43.61968" lon="6.8673">
        <ele>225</ele>
        <time>2013-06-20T16:24:47.000Z</time>
      </trkpt>
      <trkpt lat="43.61971" lon="6.86721">
        <ele>225</ele>
        <time>2013-06-20T16:24:48.000Z</time>
      </trkpt>
      <trkpt lat="43.61977" lon="6.86705">
        <ele>224.60000610352</ele>
        <time>2013-06-20T16:24:50.000Z</time>
      </trkpt>
      <trkpt lat="43.61985" lon="6.86691">
        <ele>224.19999694824</ele>
        <time>2013-06-20T16:24:52.000Z</time>
      </trkpt>
      <trkpt lat="43.61987" lon="6.86684">
        <ele>224</ele>
        <time>2013-06-20T16:24:53.000Z</time>
      </trkpt>
      <trkpt lat="43.61988" lon="6.86668">
        <ele>223.60000610352</ele>
        <time>2013-06-20T16:24:55.000Z</time>
      </trkpt>
      <trkpt lat="43.61994" lon="6.86649">
        <ele>223</ele>
        <time>2013-06-20T16:24:57.000Z</time>
      </trkpt>
      <trkpt lat="43.61998" lon="6.86639">
        <ele>222.80000305176</ele>
        <time>2013-06-20T16:24:58.000Z</time>
      </trkpt>
      <trkpt lat="43.6201" lon="6.86614">
        <ele>222.19999694824</ele>
        <time>2013-06-20T16:25:01.000Z</time>
      </trkpt>
      <trkpt lat="43.62012" lon="6.86606">
        <ele>222.19999694824</ele>
        <time>2013-06-20T16:25:02.000Z</time>
      </trkpt>
      <trkpt lat="43.62006" lon="6.8658">
        <ele>222</ele>
        <time>2013-06-20T16:25:06.000Z</time>
      </trkpt>
      <trkpt lat="43.62003" lon="6.86577">
        <ele>221.80000305176</ele>
        <time>2013-06-20T16:25:07.000Z</time>
      </trkpt>
      <trkpt lat="43.61993" lon="6.86571">
        <ele>221.60000610352</ele>
        <time>2013-06-20T16:25:11.000Z</time>
      </trkpt>
      <trkpt lat="43.6199" lon="6.86569">
        <ele>221.60000610352</ele>
        <time>2013-06-20T16:25:12.000Z</time>
      </trkpt>
      <trkpt lat="43.61967" lon="6.8657">
        <ele>221.19999694824</ele>
        <time>2013-06-20T16:25:16.000Z</time>
      </trkpt>
      <trkpt lat="43.61951" lon="6.86574">
        <ele>221.19999694824</ele>
        <time>2013-06-20T16:25:19.000Z</time>
      </trkpt>
      <trkpt lat="43.61935" lon="6.86569">
        <ele>221.19999694824</ele>
        <time>2013-06-20T16:25:23.000Z</time>
      </trkpt>
      <trkpt lat="43.61933" lon="6.86563">
        <ele>221.19999694824</ele>
        <time>2013-06-20T16:25:24.000Z</time>
      </trkpt>
      <trkpt lat="43.61927" lon="6.86546">
        <ele>221.19999694824</ele>
        <time>2013-06-20T16:25:27.000Z</time>
      </trkpt>
      <trkpt lat="43.61944" lon="6.86528">
        <ele>221</ele>
        <time>2013-06-20T16:25:32.000Z</time>
      </trkpt>
      <trkpt lat="43.61948" lon="6.86526">
        <ele>221</ele>
        <time>2013-06-20T16:25:33.000Z</time>
      </trkpt>
      <trkpt lat="43.61958" lon="6.86519">
        <ele>221.80000305176</ele>
        <time>2013-06-20T16:25:36.000Z</time>
      </trkpt>
      <trkpt lat="43.61965" lon="6.86509">
        <ele>222</ele>
        <time>2013-06-20T16:25:38.000Z</time>
      </trkpt>
      <trkpt lat="43.61967" lon="6.86505">
        <ele>222</ele>
        <time>2013-06-20T16:25:39.000Z</time>
      </trkpt>
      <trkpt lat="43.61968" lon="6.86502">
        <ele>222</ele>
        <time>2013-06-20T16:25:40.000Z</time>
      </trkpt>
      <trkpt lat="43.61969" lon="6.86497">
        <ele>222.19999694824</ele>
        <time>2013-06-20T16:25:42.000Z</time>
      </trkpt>
      <trkpt lat="43.61968" lon="6.86494">
        <ele>222.60000610352</ele>
        <time>2013-06-20T16:25:43.000Z</time>
      </trkpt>
      <trkpt lat="43.61968" lon="6.86486">
        <ele>222.60000610352</ele>
        <time>2013-06-20T16:25:45.000Z</time>
      </trkpt>
      <trkpt lat="43.61964" lon="6.86473">
        <ele>223.19999694824</ele>
        <time>2013-06-20T16:25:48.000Z</time>
      </trkpt>
      <trkpt lat="43.61962" lon="6.86466">
        <ele>223.80000305176</ele>
        <time>2013-06-20T16:25:50.000Z</time>
      </trkpt>
      <trkpt lat="43.61961" lon="6.8646">
        <ele>224</ele>
        <time>2013-06-20T16:25:52.000Z</time>
      </trkpt>
      <trkpt lat="43.6196" lon="6.86457">
        <ele>224</ele>
        <time>2013-06-20T16:25:53.000Z</time>
      </trkpt>
      <trkpt lat="43.61958" lon="6.86451">
        <ele>224.60000610352</ele>
        <time>2013-06-20T16:25:55.000Z</time>
      </trkpt>
      <trkpt lat="43.61956" lon="6.86445">
        <ele>225</ele>
        <time>2013-06-20T16:25:57.000Z</time>
      </trkpt>
      <trkpt lat="43.61955" lon="6.86438">
        <ele>225.60000610352</ele>
        <time>2013-06-20T16:25:59.000Z</time>
      </trkpt>
      <trkpt lat="43.61956" lon="6.86436">
        <ele>225.80000305176</ele>
        <time>2013-06-20T16:26:00.000Z</time>
      </trkpt>
      <trkpt lat="43.61957" lon="6.86433">
        <ele>226</ele>
        <time>2013-06-20T16:26:01.000Z</time>
      </trkpt>
      <trkpt lat="43.61959" lon="6.86432">
        <ele>226.19999694824</ele>
        <time>2013-06-20T16:26:02.000Z</time>
      </trkpt>
      <trkpt lat="43.61964" lon="6.86429">
        <ele>227</ele>
        <time>2013-06-20T16:26:04.000Z</time>
      </trkpt>
      <trkpt lat="43.61968" lon="6.86423">
        <ele>227.60000610352</ele>
        <time>2013-06-20T16:26:06.000Z</time>
      </trkpt>
      <trkpt lat="43.6197" lon="6.86416">
        <ele>228</ele>
        <time>2013-06-20T16:26:08.000Z</time>
      </trkpt>
      <trkpt lat="43.61973" lon="6.86409">
        <ele>228</ele>
        <time>2013-06-20T16:26:10.000Z</time>
      </trkpt>
      <trkpt lat="43.61976" lon="6.86398">
        <ele>228.80000305176</ele>
        <time>2013-06-20T16:26:14.000Z</time>
      </trkpt>
      <trkpt lat="43.61984" lon="6.86383">
        <ele>229</ele>
        <time>2013-06-20T16:26:19.000Z</time>
      </trkpt>
      <trkpt lat="43.61986" lon="6.8638">
        <ele>229</ele>
        <time>2013-06-20T16:26:20.000Z</time>
      </trkpt>
      <trkpt lat="43.61992" lon="6.86368">
        <ele>229.19999694824</ele>
        <time>2013-06-20T16:26:24.000Z</time>
      </trkpt>
      <trkpt lat="43.61994" lon="6.86365">
        <ele>229.60000610352</ele>
        <time>2013-06-20T16:26:25.000Z</time>
      </trkpt>
      <trkpt lat="43.61998" lon="6.8636">
        <ele>230</ele>
        <time>2013-06-20T16:26:27.000Z</time>
      </trkpt>
      <trkpt lat="43.62002" lon="6.86355">
        <ele>230.19999694824</ele>
        <time>2013-06-20T16:26:29.000Z</time>
      </trkpt>
      <trkpt lat="43.62006" lon="6.8635">
        <ele>230.80000305176</ele>
        <time>2013-06-20T16:26:31.000Z</time>
      </trkpt>
      <trkpt lat="43.6201" lon="6.86345">
        <ele>231</ele>
        <time>2013-06-20T16:26:33.000Z</time>
      </trkpt>
      <trkpt lat="43.62013" lon="6.86338">
        <ele>231</ele>
        <time>2013-06-20T16:26:35.000Z</time>
      </trkpt>
      <trkpt lat="43.62008" lon="6.86314">
        <ele>231.60000610352</ele>
        <time>2013-06-20T16:26:40.000Z</time>
      </trkpt>
      <trkpt lat="43.62007" lon="6.86316">
        <ele>231.19999694824</ele>
        <time>2013-06-20T16:26:43.000Z</time>
      </trkpt>
      <trkpt lat="43.62006" lon="6.86317">
        <ele>231</ele>
        <time>2013-06-20T16:26:45.000Z</time>
      </trkpt>
      <trkpt lat="43.62007" lon="6.86316">
        <ele>230</ele>
        <time>2013-06-20T16:27:04.000Z</time>
      </trkpt>
      <trkpt lat="43.62006" lon="6.86315">
        <ele>230</ele>
        <time>2013-06-20T16:27:06.000Z</time>
      </trkpt>
      <trkpt lat="43.62006" lon="6.86314">
        <ele>230</ele>
        <time>2013-06-20T16:27:08.000Z</time>
      </trkpt>
      <trkpt lat="43.62006" lon="6.86313">
        <ele>230</ele>
        <time>2013-06-20T16:27:09.000Z</time>
      </trkpt>
      <trkpt lat="43.62006" lon="6.86313">
        <ele>230</ele>
        <time>2013-06-20T16:27:30.000Z</time>
      </trkpt>
      <trkpt lat="43.62006" lon="6.86313">
        <ele>230</ele>
        <time>2013-06-20T16:27:31.000Z</time>
      </trkpt>
      <trkpt lat="43.62007" lon="6.86315">
        <ele>230</ele>
        <time>2013-06-20T16:27:32.000Z</time>
      </trkpt>
      <trkpt lat="43.62007" lon="6.86317">
        <ele>230</ele>
        <time>2013-06-20T16:27:34.000Z</time>
      </trkpt>
      <trkpt lat="43.62008" lon="6.86317">
        <ele>230</ele>
        <time>2013-06-20T16:27:39.000Z</time>
      </trkpt>
      <trkpt lat="43.62008" lon="6.86317">
        <ele>230</ele>
        <time>2013-06-20T16:27:40.000Z</time>
      </trkpt>
      <trkpt lat="43.62009" lon="6.86313">
        <ele>230</ele>
        <time>2013-06-20T16:27:44.000Z</time>
      </trkpt>
      <trkpt lat="43.62005" lon="6.86303">
        <ele>230</ele>
        <time>2013-06-20T16:27:48.000Z</time>
      </trkpt>
      <trkpt lat="43.62003" lon="6.86297">
        <ele>230</ele>
        <time>2013-06-20T16:27:49.000Z</time>
      </trkpt>
      <trkpt lat="43.62" lon="6.86277">
        <ele>229</ele>
        <time>2013-06-20T16:27:52.000Z</time>
      </trkpt>
      <trkpt lat="43.61997" lon="6.86263">
        <ele>227.80000305176</ele>
        <time>2013-06-20T16:27:54.000Z</time>
      </trkpt>
      <trkpt lat="43.61997" lon="6.86258">
        <ele>227</ele>
        <time>2013-06-20T16:27:55.000Z</time>
      </trkpt>
      <trkpt lat="43.62" lon="6.86256">
        <ele>226</ele>
        <time>2013-06-20T16:27:56.000Z</time>
      </trkpt>
      <trkpt lat="43.62004" lon="6.8625">
        <ele>224.60000610352</ele>
        <time>2013-06-20T16:27:58.000Z</time>
      </trkpt>
      <trkpt lat="43.62005" lon="6.86241">
        <ele>223</ele>
        <time>2013-06-20T16:28:00.000Z</time>
      </trkpt>
      <trkpt lat="43.62008" lon="6.86233">
        <ele>221.60000610352</ele>
        <time>2013-06-20T16:28:02.000Z</time>
      </trkpt>
      <trkpt lat="43.62012" lon="6.86229">
        <ele>220</ele>
        <time>2013-06-20T16:28:04.000Z</time>
      </trkpt>
      <trkpt lat="43.62013" lon="6.86223">
        <ele>219</ele>
        <time>2013-06-20T16:28:06.000Z</time>
      </trkpt>
      <trkpt lat="43.62014" lon="6.86216">
        <ele>217.60000610352</ele>
        <time>2013-06-20T16:28:08.000Z</time>
      </trkpt>
      <trkpt lat="43.62015" lon="6.86213">
        <ele>217</ele>
        <time>2013-06-20T16:28:09.000Z</time>
      </trkpt>
      <trkpt lat="43.62017" lon="6.8621">
        <ele>216.60000610352</ele>
        <time>2013-06-20T16:28:10.000Z</time>
      </trkpt>
      <trkpt lat="43.62019" lon="6.86203">
        <ele>215.80000305176</ele>
        <time>2013-06-20T16:28:12.000Z</time>
      </trkpt>
      <trkpt lat="43.62019" lon="6.86199">
        <ele>215.19999694824</ele>
        <time>2013-06-20T16:28:13.000Z</time>
      </trkpt>
      <trkpt lat="43.62018" lon="6.86197">
        <ele>215</ele>
        <time>2013-06-20T16:28:14.000Z</time>
      </trkpt>
      <trkpt lat="43.62016" lon="6.86194">
        <ele>214.60000610352</ele>
        <time>2013-06-20T16:28:15.000Z</time>
      </trkpt>
      <trkpt lat="43.62013" lon="6.86188">
        <ele>213.60000610352</ele>
        <time>2013-06-20T16:28:17.000Z</time>
      </trkpt>
      <trkpt lat="43.62013" lon="6.86184">
        <ele>213</ele>
        <time>2013-06-20T16:28:18.000Z</time>
      </trkpt>
      <trkpt lat="43.62013" lon="6.86172">
        <ele>212.19999694824</ele>
        <time>2013-06-20T16:28:20.000Z</time>
      </trkpt>
      <trkpt lat="43.62013" lon="6.86167">
        <ele>212</ele>
        <time>2013-06-20T16:28:21.000Z</time>
      </trkpt>
      <trkpt lat="43.62011" lon="6.86149">
        <ele>210.80000305176</ele>
        <time>2013-06-20T16:28:24.000Z</time>
      </trkpt>
      <trkpt lat="43.6201" lon="6.86141">
        <ele>210</ele>
        <time>2013-06-20T16:28:26.000Z</time>
      </trkpt>
      <trkpt lat="43.62008" lon="6.86134">
        <ele>209.60000610352</ele>
        <time>2013-06-20T16:28:28.000Z</time>
      </trkpt>
      <trkpt lat="43.62005" lon="6.86123">
        <ele>208.80000305176</ele>
        <time>2013-06-20T16:28:32.000Z</time>
      </trkpt>
      <trkpt lat="43.62005" lon="6.8612">
        <ele>208.19999694824</ele>
        <time>2013-06-20T16:28:33.000Z</time>
      </trkpt>
      <trkpt lat="43.62008" lon="6.86103">
        <ele>207.80000305176</ele>
        <time>2013-06-20T16:28:36.000Z</time>
      </trkpt>
      <trkpt lat="43.62009" lon="6.86091">
        <ele>207.19999694824</ele>
        <time>2013-06-20T16:28:38.000Z</time>
      </trkpt>
      <trkpt lat="43.62011" lon="6.86086">
        <ele>207</ele>
        <time>2013-06-20T16:28:39.000Z</time>
      </trkpt>
      <trkpt lat="43.62011" lon="6.86081">
        <ele>206.60000610352</ele>
        <time>2013-06-20T16:28:40.000Z</time>
      </trkpt>
      <trkpt lat="43.62011" lon="6.86074">
        <ele>206.19999694824</ele>
        <time>2013-06-20T16:28:41.000Z</time>
      </trkpt>
      <trkpt lat="43.62008" lon="6.8606">
        <ele>205.80000305176</ele>
        <time>2013-06-20T16:28:43.000Z</time>
      </trkpt>
      <trkpt lat="43.62003" lon="6.86046">
        <ele>205.19999694824</ele>
        <time>2013-06-20T16:28:45.000Z</time>
      </trkpt>
      <trkpt lat="43.62" lon="6.8604">
        <ele>205</ele>
        <time>2013-06-20T16:28:46.000Z</time>
      </trkpt>
      <trkpt lat="43.61997" lon="6.86015">
        <ele>204.60000610352</ele>
        <time>2013-06-20T16:28:50.000Z</time>
      </trkpt>
      <trkpt lat="43.61993" lon="6.86005">
        <ele>204</ele>
        <time>2013-06-20T16:28:55.000Z</time>
      </trkpt>
      <trkpt lat="43.61993" lon="6.85999">
        <ele>204</ele>
        <time>2013-06-20T16:28:57.000Z</time>
      </trkpt>
      <trkpt lat="43.61996" lon="6.85981">
        <ele>204</ele>
        <time>2013-06-20T16:29:01.000Z</time>
      </trkpt>
      <trkpt lat="43.62003" lon="6.85965">
        <ele>203.80000305176</ele>
        <time>2013-06-20T16:29:05.000Z</time>
      </trkpt>
      <trkpt lat="43.62005" lon="6.85941">
        <ele>203.80000305176</ele>
        <time>2013-06-20T16:29:09.000Z</time>
      </trkpt>
      <trkpt lat="43.61999" lon="6.85921">
        <ele>203.80000305176</ele>
        <time>2013-06-20T16:29:14.000Z</time>
      </trkpt>
      <trkpt lat="43.61992" lon="6.85902">
        <ele>203.60000610352</ele>
        <time>2013-06-20T16:29:19.000Z</time>
      </trkpt>
      <trkpt lat="43.61991" lon="6.85897">
        <ele>203.80000305176</ele>
        <time>2013-06-20T16:29:20.000Z</time>
      </trkpt>
      <trkpt lat="43.6199" lon="6.85893">
        <ele>204</ele>
        <time>2013-06-20T16:29:21.000Z</time>
      </trkpt>
      <trkpt lat="43.6198" lon="6.85886">
        <ele>204.19999694824</ele>
        <time>2013-06-20T16:29:24.000Z</time>
      </trkpt>
      <trkpt lat="43.61974" lon="6.85885">
        <ele>204.80000305176</ele>
        <time>2013-06-20T16:29:25.000Z</time>
      </trkpt>
      <trkpt lat="43.61969" lon="6.85886">
        <ele>205</ele>
        <time>2013-06-20T16:29:26.000Z</time>
      </trkpt>
      <trkpt lat="43.61964" lon="6.85887">
        <ele>205.19999694824</ele>
        <time>2013-06-20T16:29:27.000Z</time>
      </trkpt>
      <trkpt lat="43.6196" lon="6.85887">
        <ele>205.80000305176</ele>
        <time>2013-06-20T16:29:28.000Z</time>
      </trkpt>
      <trkpt lat="43.61953" lon="6.85889">
        <ele>206.60000610352</ele>
        <time>2013-06-20T16:29:30.000Z</time>
      </trkpt>
      <trkpt lat="43.61947" lon="6.85889">
        <ele>207.19999694824</ele>
        <time>2013-06-20T16:29:32.000Z</time>
      </trkpt>
      <trkpt lat="43.61945" lon="6.85888">
        <ele>207.60000610352</ele>
        <time>2013-06-20T16:29:33.000Z</time>
      </trkpt>
      <trkpt lat="43.61942" lon="6.85884">
        <ele>208.19999694824</ele>
        <time>2013-06-20T16:29:35.000Z</time>
      </trkpt>
      <trkpt lat="43.61945" lon="6.85866">
        <ele>209.19999694824</ele>
        <time>2013-06-20T16:29:38.000Z</time>
      </trkpt>
      <trkpt lat="43.61949" lon="6.85852">
        <ele>210</ele>
        <time>2013-06-20T16:29:40.000Z</time>
      </trkpt>
      <trkpt lat="43.61951" lon="6.85846">
        <ele>210.60000610352</ele>
        <time>2013-06-20T16:29:41.000Z</time>
      </trkpt>
      <trkpt lat="43.61952" lon="6.85841">
        <ele>211</ele>
        <time>2013-06-20T16:29:42.000Z</time>
      </trkpt>
      <trkpt lat="43.61954" lon="6.85829">
        <ele>211.80000305176</ele>
        <time>2013-06-20T16:29:44.000Z</time>
      </trkpt>
      <trkpt lat="43.61956" lon="6.8582">
        <ele>212.80000305176</ele>
        <time>2013-06-20T16:29:46.000Z</time>
      </trkpt>
      <trkpt lat="43.61959" lon="6.85811">
        <ele>213.60000610352</ele>
        <time>2013-06-20T16:29:48.000Z</time>
      </trkpt>
      <trkpt lat="43.61963" lon="6.85803">
        <ele>214</ele>
        <time>2013-06-20T16:29:50.000Z</time>
      </trkpt>
      <trkpt lat="43.61966" lon="6.85795">
        <ele>214.60000610352</ele>
        <time>2013-06-20T16:29:52.000Z</time>
      </trkpt>
      <trkpt lat="43.61971" lon="6.85786">
        <ele>215</ele>
        <time>2013-06-20T16:29:55.000Z</time>
      </trkpt>
      <trkpt lat="43.61968" lon="6.85777">
        <ele>215.80000305176</ele>
        <time>2013-06-20T16:29:59.000Z</time>
      </trkpt>
      <trkpt lat="43.61963" lon="6.85779">
        <ele>216</ele>
        <time>2013-06-20T16:30:01.000Z</time>
      </trkpt>
      <trkpt lat="43.61962" lon="6.8578">
        <ele>216.19999694824</ele>
        <time>2013-06-20T16:30:02.000Z</time>
      </trkpt>
      <trkpt lat="43.61968" lon="6.85785">
        <ele>217</ele>
        <time>2013-06-20T16:30:05.000Z</time>
      </trkpt>
      <trkpt lat="43.61971" lon="6.85787">
        <ele>217.19999694824</ele>
        <time>2013-06-20T16:30:06.000Z</time>
      </trkpt>
      <trkpt lat="43.61981" lon="6.85792">
        <ele>217.80000305176</ele>
        <time>2013-06-20T16:30:09.000Z</time>
      </trkpt>
      <trkpt lat="43.61989" lon="6.85798">
        <ele>218</ele>
        <time>2013-06-20T16:30:13.000Z</time>
      </trkpt>
      <trkpt lat="43.61996" lon="6.85802">
        <ele>218.60000610352</ele>
        <time>2013-06-20T16:30:18.000Z</time>
      </trkpt>
      <trkpt lat="43.61996" lon="6.85803">
        <ele>218.60000610352</ele>
        <time>2013-06-20T16:30:20.000Z</time>
      </trkpt>
      <trkpt lat="43.61993" lon="6.85806">
        <ele>219</ele>
        <time>2013-06-20T16:30:37.000Z</time>
      </trkpt>
      <trkpt lat="43.61993" lon="6.85806">
        <ele>219</ele>
        <time>2013-06-20T16:30:38.000Z</time>
      </trkpt>
      <trkpt lat="43.61993" lon="6.85811">
        <ele>219</ele>
        <time>2013-06-20T16:30:41.000Z</time>
      </trkpt>
      <trkpt lat="43.61994" lon="6.85813">
        <ele>219</ele>
        <time>2013-06-20T16:30:45.000Z</time>
      </trkpt>
      <trkpt lat="43.61994" lon="6.85816">
        <ele>219</ele>
        <time>2013-06-20T16:30:47.000Z</time>
      </trkpt>
      <trkpt lat="43.61994" lon="6.85818">
        <ele>219</ele>
        <time>2013-06-20T16:30:49.000Z</time>
      </trkpt>
      <trkpt lat="43.61994" lon="6.85818">
        <ele>219</ele>
        <time>2013-06-20T16:30:53.000Z</time>
      </trkpt>
      <trkpt lat="43.61996" lon="6.8582">
        <ele>219</ele>
        <time>2013-06-20T16:30:55.000Z</time>
      </trkpt>
      <trkpt lat="43.62" lon="6.8582">
        <ele>218.80000305176</ele>
        <time>2013-06-20T16:30:59.000Z</time>
      </trkpt>
      <trkpt lat="43.62002" lon="6.85819">
        <ele>218.19999694824</ele>
        <time>2013-06-20T16:31:01.000Z</time>
      </trkpt>
      <trkpt lat="43.62003" lon="6.85819">
        <ele>218</ele>
        <time>2013-06-20T16:31:03.000Z</time>
      </trkpt>
      <trkpt lat="43.62004" lon="6.8582">
        <ele>218</ele>
        <time>2013-06-20T16:31:04.000Z</time>
      </trkpt>
      <trkpt lat="43.62005" lon="6.85823">
        <ele>217.80000305176</ele>
        <time>2013-06-20T16:31:05.000Z</time>
      </trkpt>
      <trkpt lat="43.62006" lon="6.85834">
        <ele>217.60000610352</ele>
        <time>2013-06-20T16:31:07.000Z</time>
      </trkpt>
      <trkpt lat="43.62008" lon="6.8584">
        <ele>217.60000610352</ele>
        <time>2013-06-20T16:31:08.000Z</time>
      </trkpt>
      <trkpt lat="43.62008" lon="6.85845">
        <ele>217</ele>
        <time>2013-06-20T16:31:11.000Z</time>
      </trkpt>
      <trkpt lat="43.62007" lon="6.85843">
        <ele>216.80000305176</ele>
        <time>2013-06-20T16:31:12.000Z</time>
      </trkpt>
      <trkpt lat="43.62007" lon="6.85841">
        <ele>216.60000610352</ele>
        <time>2013-06-20T16:31:13.000Z</time>
      </trkpt>
      <trkpt lat="43.62007" lon="6.85839">
        <ele>216</ele>
        <time>2013-06-20T16:31:15.000Z</time>
      </trkpt>
      <trkpt lat="43.62007" lon="6.85838">
        <ele>216</ele>
        <time>2013-06-20T16:31:16.000Z</time>
      </trkpt>
      <trkpt lat="43.62005" lon="6.85839">
        <ele>215.60000610352</ele>
        <time>2013-06-20T16:31:19.000Z</time>
      </trkpt>
      <trkpt lat="43.62004" lon="6.8584">
        <ele>215.60000610352</ele>
        <time>2013-06-20T16:31:20.000Z</time>
      </trkpt>
      <trkpt lat="43.62004" lon="6.8584">
        <ele>215.19999694824</ele>
        <time>2013-06-20T16:31:21.000Z</time>
      </trkpt>
      <trkpt lat="43.61998" lon="6.85842">
        <ele>214.60000610352</ele>
        <time>2013-06-20T16:32:31.000Z</time>
      </trkpt>
      <trkpt lat="43.61998" lon="6.85841">
        <ele>214.60000610352</ele>
        <time>2013-06-20T16:32:32.000Z</time>
      </trkpt>
      <trkpt lat="43.61998" lon="6.85833">
        <ele>214.60000610352</ele>
        <time>2013-06-20T16:32:37.000Z</time>
      </trkpt>
      <trkpt lat="43.61998" lon="6.85821">
        <ele>214.80000305176</ele>
        <time>2013-06-20T16:32:47.000Z</time>
      </trkpt>
      <trkpt lat="43.61998" lon="6.85821">
        <ele>215</ele>
        <time>2013-06-20T16:32:49.000Z</time>
      </trkpt>
      <trkpt lat="43.61997" lon="6.85821">
        <ele>215.19999694824</ele>
        <time>2013-06-20T16:32:51.000Z</time>
      </trkpt>
      <trkpt lat="43.61999" lon="6.85821">
        <ele>216</ele>
        <time>2013-06-20T16:33:03.000Z</time>
      </trkpt>
      <trkpt lat="43.61999" lon="6.8582">
        <ele>216.19999694824</ele>
        <time>2013-06-20T16:33:05.000Z</time>
      </trkpt>
      <trkpt lat="43.61997" lon="6.85818">
        <ele>216.60000610352</ele>
        <time>2013-06-20T16:33:07.000Z</time>
      </trkpt>
      <trkpt lat="43.61996" lon="6.85815">
        <ele>217</ele>
        <time>2013-06-20T16:33:09.000Z</time>
      </trkpt>
      <trkpt lat="43.61995" lon="6.85812">
        <ele>217.19999694824</ele>
        <time>2013-06-20T16:33:11.000Z</time>
      </trkpt>
      <trkpt lat="43.61995" lon="6.85808">
        <ele>217.60000610352</ele>
        <time>2013-06-20T16:33:13.000Z</time>
      </trkpt>
      <trkpt lat="43.61996" lon="6.85806">
        <ele>217.80000305176</ele>
        <time>2013-06-20T16:33:15.000Z</time>
      </trkpt>
      <trkpt lat="43.61999" lon="6.85801">
        <ele>218.19999694824</ele>
        <time>2013-06-20T16:33:22.000Z</time>
      </trkpt>
      <trkpt lat="43.61998" lon="6.85803">
        <ele>220</ele>
        <time>2013-06-20T16:33:32.000Z</time>
      </trkpt>
      <trkpt lat="43.61998" lon="6.85804">
        <ele>220</ele>
        <time>2013-06-20T16:33:33.000Z</time>
      </trkpt>
      <trkpt lat="43.61998" lon="6.85805">
        <ele>220</ele>
        <time>2013-06-20T16:33:34.000Z</time>
      </trkpt>
      <trkpt lat="43.61998" lon="6.85806">
        <ele>220</ele>
        <time>2013-06-20T16:33:35.000Z</time>
      </trkpt>
      <trkpt lat="43.61998" lon="6.85807">
        <ele>220</ele>
        <time>2013-06-20T16:33:36.000Z</time>
      </trkpt>
      <trkpt lat="43.61999" lon="6.85807">
        <ele>220.60000610352</ele>
        <time>2013-06-20T16:33:46.000Z</time>
      </trkpt>
      <trkpt lat="43.61999" lon="6.85807">
        <ele>220.60000610352</ele>
        <time>2013-06-20T16:33:47.000Z</time>
      </trkpt>
      <trkpt lat="43.62" lon="6.85808">
        <ele>220.80000305176</ele>
        <time>2013-06-20T16:33:49.000Z</time>
      </trkpt>
      <trkpt lat="43.62002" lon="6.85808">
        <ele>220.80000305176</ele>
        <time>2013-06-20T16:33:51.000Z</time>
      </trkpt>
      <trkpt lat="43.62003" lon="6.85804">
        <ele>220.80000305176</ele>
        <time>2013-06-20T16:33:57.000Z</time>
      </trkpt>
      <trkpt lat="43.62004" lon="6.85804">
        <ele>220.80000305176</ele>
        <time>2013-06-20T16:34:02.000Z</time>
      </trkpt>
      <trkpt lat="43.62004" lon="6.85803">
        <ele>220.80000305176</ele>
        <time>2013-06-20T16:34:03.000Z</time>
      </trkpt>
      <trkpt lat="43.62001" lon="6.858">
        <ele>220.80000305176</ele>
        <time>2013-06-20T16:34:07.000Z</time>
      </trkpt>
      <trkpt lat="43.62" lon="6.85798">
        <ele>220.80000305176</ele>
        <time>2013-06-20T16:34:10.000Z</time>
      </trkpt>
      <trkpt lat="43.61998" lon="6.85795">
        <ele>220.80000305176</ele>
        <time>2013-06-20T16:34:13.000Z</time>
      </trkpt>
      <trkpt lat="43.61998" lon="6.85795">
        <ele>220.80000305176</ele>
        <time>2013-06-20T16:34:14.000Z</time>
      </trkpt>
      <trkpt lat="43.61996" lon="6.85792">
        <ele>220.80000305176</ele>
        <time>2013-06-20T16:34:20.000Z</time>
      </trkpt>
      <trkpt lat="43.61995" lon="6.85793">
        <ele>220.80000305176</ele>
        <time>2013-06-20T16:34:21.000Z</time>
      </trkpt>
      <trkpt lat="43.61987" lon="6.85792">
        <ele>220.80000305176</ele>
        <time>2013-06-20T16:34:24.000Z</time>
      </trkpt>
      <trkpt lat="43.61968" lon="6.85779">
        <ele>220.80000305176</ele>
        <time>2013-06-20T16:34:29.000Z</time>
      </trkpt>
      <trkpt lat="43.61962" lon="6.85763">
        <ele>220.80000305176</ele>
        <time>2013-06-20T16:34:33.000Z</time>
      </trkpt>
      <trkpt lat="43.61968" lon="6.85734">
        <ele>220.80000305176</ele>
        <time>2013-06-20T16:34:39.000Z</time>
      </trkpt>
      <trkpt lat="43.61969" lon="6.85729">
        <ele>220.80000305176</ele>
        <time>2013-06-20T16:34:40.000Z</time>
      </trkpt>
      <trkpt lat="43.61968" lon="6.85714">
        <ele>221</ele>
        <time>2013-06-20T16:34:43.000Z</time>
      </trkpt>
      <trkpt lat="43.61961" lon="6.85708">
        <ele>221.19999694824</ele>
        <time>2013-06-20T16:34:45.000Z</time>
      </trkpt>
      <trkpt lat="43.61953" lon="6.85704">
        <ele>221.80000305176</ele>
        <time>2013-06-20T16:34:47.000Z</time>
      </trkpt>
      <trkpt lat="43.61948" lon="6.85704">
        <ele>221.80000305176</ele>
        <time>2013-06-20T16:34:48.000Z</time>
      </trkpt>
      <trkpt lat="43.61944" lon="6.85704">
        <ele>222</ele>
        <time>2013-06-20T16:34:49.000Z</time>
      </trkpt>
      <trkpt lat="43.61936" lon="6.85705">
        <ele>222</ele>
        <time>2013-06-20T16:34:51.000Z</time>
      </trkpt>
      <trkpt lat="43.61932" lon="6.85705">
        <ele>222.19999694824</ele>
        <time>2013-06-20T16:34:52.000Z</time>
      </trkpt>
      <trkpt lat="43.61927" lon="6.85705">
        <ele>223</ele>
        <time>2013-06-20T16:34:54.000Z</time>
      </trkpt>
      <trkpt lat="43.61925" lon="6.85705">
        <ele>223.19999694824</ele>
        <time>2013-06-20T16:34:56.000Z</time>
      </trkpt>
      <trkpt lat="43.61926" lon="6.85705">
        <ele>224</ele>
        <time>2013-06-20T16:35:01.000Z</time>
      </trkpt>
      <trkpt lat="43.61926" lon="6.85705">
        <ele>224</ele>
        <time>2013-06-20T16:35:03.000Z</time>
      </trkpt>
      <trkpt lat="43.61926" lon="6.85705">
        <ele>224.19999694824</ele>
        <time>2013-06-20T16:35:04.000Z</time>
      </trkpt>
      <trkpt lat="43.61925" lon="6.85705">
        <ele>224.19999694824</ele>
        <time>2013-06-20T16:35:05.000Z</time>
      </trkpt>
      <trkpt lat="43.61917" lon="6.85705">
        <ele>224.60000610352</ele>
        <time>2013-06-20T16:35:09.000Z</time>
      </trkpt>
      <trkpt lat="43.61914" lon="6.85704">
        <ele>224.60000610352</ele>
        <time>2013-06-20T16:35:10.000Z</time>
      </trkpt>
      <trkpt lat="43.61898" lon="6.85698">
        <ele>224.80000305176</ele>
        <time>2013-06-20T16:35:14.000Z</time>
      </trkpt>
      <trkpt lat="43.61878" lon="6.85693">
        <ele>224.80000305176</ele>
        <time>2013-06-20T16:35:19.000Z</time>
      </trkpt>
      <trkpt lat="43.61874" lon="6.85693">
        <ele>225</ele>
        <time>2013-06-20T16:35:20.000Z</time>
      </trkpt>
      <trkpt lat="43.61857" lon="6.85696">
        <ele>225</ele>
        <time>2013-06-20T16:35:25.000Z</time>
      </trkpt>
      <trkpt lat="43.61849" lon="6.85695">
        <ele>225.60000610352</ele>
        <time>2013-06-20T16:35:27.000Z</time>
      </trkpt>
      <trkpt lat="43.61845" lon="6.85692">
        <ele>225.80000305176</ele>
        <time>2013-06-20T16:35:28.000Z</time>
      </trkpt>
      <trkpt lat="43.61842" lon="6.8569">
        <ele>226</ele>
        <time>2013-06-20T16:35:29.000Z</time>
      </trkpt>
      <trkpt lat="43.61836" lon="6.85687">
        <ele>226.80000305176</ele>
        <time>2013-06-20T16:35:31.000Z</time>
      </trkpt>
      <trkpt lat="43.61833" lon="6.85685">
        <ele>227</ele>
        <time>2013-06-20T16:35:32.000Z</time>
      </trkpt>
      <trkpt lat="43.61828" lon="6.85683">
        <ele>227.60000610352</ele>
        <time>2013-06-20T16:35:34.000Z</time>
      </trkpt>
      <trkpt lat="43.61826" lon="6.85683">
        <ele>228</ele>
        <time>2013-06-20T16:35:35.000Z</time>
      </trkpt>
      <trkpt lat="43.61823" lon="6.85683">
        <ele>228.19999694824</ele>
        <time>2013-06-20T16:35:36.000Z</time>
      </trkpt>
      <trkpt lat="43.61817" lon="6.85683">
        <ele>229</ele>
        <time>2013-06-20T16:35:38.000Z</time>
      </trkpt>
      <trkpt lat="43.6181" lon="6.85682">
        <ele>229.19999694824</ele>
        <time>2013-06-20T16:35:40.000Z</time>
      </trkpt>
      <trkpt lat="43.61807" lon="6.85682">
        <ele>229.80000305176</ele>
        <time>2013-06-20T16:35:41.000Z</time>
      </trkpt>
      <trkpt lat="43.61801" lon="6.85683">
        <ele>230.60000610352</ele>
        <time>2013-06-20T16:35:43.000Z</time>
      </trkpt>
      <trkpt lat="43.61794" lon="6.85684">
        <ele>231</ele>
        <time>2013-06-20T16:35:45.000Z</time>
      </trkpt>
      <trkpt lat="43.61786" lon="6.85684">
        <ele>231.60000610352</ele>
        <time>2013-06-20T16:35:47.000Z</time>
      </trkpt>
      <trkpt lat="43.61781" lon="6.85681">
        <ele>232</ele>
        <time>2013-06-20T16:35:49.000Z</time>
      </trkpt>
      <trkpt lat="43.61777" lon="6.85678">
        <ele>232.80000305176</ele>
        <time>2013-06-20T16:35:51.000Z</time>
      </trkpt>
      <trkpt lat="43.61775" lon="6.85678">
        <ele>233</ele>
        <time>2013-06-20T16:35:52.000Z</time>
      </trkpt>
      <trkpt lat="43.61773" lon="6.85678">
        <ele>233.19999694824</ele>
        <time>2013-06-20T16:35:53.000Z</time>
      </trkpt>
      <trkpt lat="43.61767" lon="6.85679">
        <ele>233.80000305176</ele>
        <time>2013-06-20T16:35:55.000Z</time>
      </trkpt>
      <trkpt lat="43.61764" lon="6.85679">
        <ele>234</ele>
        <time>2013-06-20T16:35:56.000Z</time>
      </trkpt>
      <trkpt lat="43.61755" lon="6.8568">
        <ele>234.19999694824</ele>
        <time>2013-06-20T16:35:58.000Z</time>
      </trkpt>
      <trkpt lat="43.61729" lon="6.85675">
        <ele>234.80000305176</ele>
        <time>2013-06-20T16:36:03.000Z</time>
      </trkpt>
      <trkpt lat="43.61719" lon="6.85668">
        <ele>235</ele>
        <time>2013-06-20T16:36:06.000Z</time>
      </trkpt>
      <trkpt lat="43.6171" lon="6.85661">
        <ele>235</ele>
        <time>2013-06-20T16:36:09.000Z</time>
      </trkpt>
      <trkpt lat="43.61699" lon="6.85647">
        <ele>235.19999694824</ele>
        <time>2013-06-20T16:36:14.000Z</time>
      </trkpt>
      <trkpt lat="43.6169" lon="6.85632">
        <ele>235.60000610352</ele>
        <time>2013-06-20T16:36:19.000Z</time>
      </trkpt>
      <trkpt lat="43.61685" lon="6.85625">
        <ele>235.80000305176</ele>
        <time>2013-06-20T16:36:21.000Z</time>
      </trkpt>
      <trkpt lat="43.61681" lon="6.85617">
        <ele>236</ele>
        <time>2013-06-20T16:36:23.000Z</time>
      </trkpt>
      <trkpt lat="43.61676" lon="6.85609">
        <ele>236.19999694824</ele>
        <time>2013-06-20T16:36:25.000Z</time>
      </trkpt>
      <trkpt lat="43.61671" lon="6.85601">
        <ele>236.60000610352</ele>
        <time>2013-06-20T16:36:27.000Z</time>
      </trkpt>
      <trkpt lat="43.61666" lon="6.85593">
        <ele>236.80000305176</ele>
        <time>2013-06-20T16:36:29.000Z</time>
      </trkpt>
      <trkpt lat="43.61656" lon="6.85579">
        <ele>237</ele>
        <time>2013-06-20T16:36:33.000Z</time>
      </trkpt>
      <trkpt lat="43.61644" lon="6.85561">
        <ele>237.19999694824</ele>
        <time>2013-06-20T16:36:38.000Z</time>
      </trkpt>
      <trkpt lat="43.61636" lon="6.85545">
        <ele>237.60000610352</ele>
        <time>2013-06-20T16:36:42.000Z</time>
      </trkpt>
      <trkpt lat="43.61634" lon="6.85526">
        <ele>237.60000610352</ele>
        <time>2013-06-20T16:36:45.000Z</time>
      </trkpt>
      <trkpt lat="43.61634" lon="6.85513">
        <ele>237.19999694824</ele>
        <time>2013-06-20T16:36:47.000Z</time>
      </trkpt>
      <trkpt lat="43.61646" lon="6.85487">
        <ele>237</ele>
        <time>2013-06-20T16:36:49.000Z</time>
      </trkpt>
      <trkpt lat="43.61652" lon="6.85467">
        <ele>236.80000305176</ele>
        <time>2013-06-20T16:36:51.000Z</time>
      </trkpt>
      <trkpt lat="43.61655" lon="6.85458">
        <ele>236.19999694824</ele>
        <time>2013-06-20T16:36:52.000Z</time>
      </trkpt>
      <trkpt lat="43.61659" lon="6.85441">
        <ele>235.80000305176</ele>
        <time>2013-06-20T16:36:54.000Z</time>
      </trkpt>
      <trkpt lat="43.61662" lon="6.85433">
        <ele>235.60000610352</ele>
        <time>2013-06-20T16:36:55.000Z</time>
      </trkpt>
      <trkpt lat="43.61669" lon="6.85416">
        <ele>235</ele>
        <time>2013-06-20T16:36:57.000Z</time>
      </trkpt>
      <trkpt lat="43.61679" lon="6.854">
        <ele>234</ele>
        <time>2013-06-20T16:36:59.000Z</time>
      </trkpt>
      <trkpt lat="43.61685" lon="6.85393">
        <ele>233.80000305176</ele>
        <time>2013-06-20T16:37:00.000Z</time>
      </trkpt>
      <trkpt lat="43.61688" lon="6.85386">
        <ele>233.60000610352</ele>
        <time>2013-06-20T16:37:01.000Z</time>
      </trkpt>
      <trkpt lat="43.61695" lon="6.85376">
        <ele>233</ele>
        <time>2013-06-20T16:37:03.000Z</time>
      </trkpt>
      <trkpt lat="43.61699" lon="6.85371">
        <ele>232.80000305176</ele>
        <time>2013-06-20T16:37:05.000Z</time>
      </trkpt>
      <trkpt lat="43.617" lon="6.8537">
        <ele>232.60000610352</ele>
        <time>2013-06-20T16:37:06.000Z</time>
      </trkpt>
      <trkpt lat="43.61699" lon="6.85367">
        <ele>232.19999694824</ele>
        <time>2013-06-20T16:37:08.000Z</time>
      </trkpt>
      <trkpt lat="43.61695" lon="6.85366">
        <ele>231.60000610352</ele>
        <time>2013-06-20T16:37:17.000Z</time>
      </trkpt>
      <trkpt lat="43.61695" lon="6.85366">
        <ele>231.60000610352</ele>
        <time>2013-06-20T16:37:18.000Z</time>
      </trkpt>
      <trkpt lat="43.61683" lon="6.85371">
        <ele>231.19999694824</ele>
        <time>2013-06-20T16:37:22.000Z</time>
      </trkpt>
      <trkpt lat="43.61678" lon="6.85363">
        <ele>231.19999694824</ele>
        <time>2013-06-20T16:37:25.000Z</time>
      </trkpt>
      <trkpt lat="43.6166" lon="6.85344">
        <ele>231</ele>
        <time>2013-06-20T16:37:28.000Z</time>
      </trkpt>
      <trkpt lat="43.61651" lon="6.85337">
        <ele>230.80000305176</ele>
        <time>2013-06-20T16:37:29.000Z</time>
      </trkpt>
      <trkpt lat="43.61643" lon="6.8533">
        <ele>230.60000610352</ele>
        <time>2013-06-20T16:37:30.000Z</time>
      </trkpt>
      <trkpt lat="43.61627" lon="6.8532">
        <ele>230</ele>
        <time>2013-06-20T16:37:32.000Z</time>
      </trkpt>
      <trkpt lat="43.61619" lon="6.85313">
        <ele>229.60000610352</ele>
        <time>2013-06-20T16:37:33.000Z</time>
      </trkpt>
      <trkpt lat="43.61612" lon="6.85304">
        <ele>229.19999694824</ele>
        <time>2013-06-20T16:37:34.000Z</time>
      </trkpt>
      <trkpt lat="43.61602" lon="6.85295">
        <ele>228.80000305176</ele>
        <time>2013-06-20T16:37:35.000Z</time>
      </trkpt>
      <trkpt lat="43.61583" lon="6.85277">
        <ele>227.19999694824</ele>
        <time>2013-06-20T16:37:37.000Z</time>
      </trkpt>
      <trkpt lat="43.61575" lon="6.85268">
        <ele>226.80000305176</ele>
        <time>2013-06-20T16:37:38.000Z</time>
      </trkpt>
      <trkpt lat="43.61567" lon="6.8526">
        <ele>225.80000305176</ele>
        <time>2013-06-20T16:37:39.000Z</time>
      </trkpt>
      <trkpt lat="43.6155" lon="6.85249">
        <ele>223.80000305176</ele>
        <time>2013-06-20T16:37:41.000Z</time>
      </trkpt>
      <trkpt lat="43.61543" lon="6.85246">
        <ele>222.80000305176</ele>
        <time>2013-06-20T16:37:42.000Z</time>
      </trkpt>
      <trkpt lat="43.61532" lon="6.85248">
        <ele>219.60000610352</ele>
        <time>2013-06-20T16:37:45.000Z</time>
      </trkpt>
      <trkpt lat="43.61532" lon="6.85249">
        <ele>218.60000610352</ele>
        <time>2013-06-20T16:37:46.000Z</time>
      </trkpt>
      <trkpt lat="43.61532" lon="6.8525">
        <ele>216.60000610352</ele>
        <time>2013-06-20T16:37:48.000Z</time>
      </trkpt>
      <trkpt lat="43.61531" lon="6.8525">
        <ele>215</ele>
        <time>2013-06-20T16:37:50.000Z</time>
      </trkpt>
      <trkpt lat="43.6153" lon="6.8525">
        <ele>214</ele>
        <time>2013-06-20T16:37:52.000Z</time>
      </trkpt>
      <trkpt lat="43.61528" lon="6.85249">
        <ele>213</ele>
        <time>2013-06-20T16:37:54.000Z</time>
      </trkpt>
      <trkpt lat="43.61513" lon="6.85249">
        <ele>211</ele>
        <time>2013-06-20T16:37:59.000Z</time>
      </trkpt>
      <trkpt lat="43.61498" lon="6.8524">
        <ele>210</ele>
        <time>2013-06-20T16:38:04.000Z</time>
      </trkpt>
      <trkpt lat="43.61481" lon="6.85235">
        <ele>209.60000610352</ele>
        <time>2013-06-20T16:38:09.000Z</time>
      </trkpt>
      <trkpt lat="43.61477" lon="6.85233">
        <ele>209.60000610352</ele>
        <time>2013-06-20T16:38:10.000Z</time>
      </trkpt>
      <trkpt lat="43.61468" lon="6.85228">
        <ele>209.19999694824</ele>
        <time>2013-06-20T16:38:12.000Z</time>
      </trkpt>
      <trkpt lat="43.61438" lon="6.85202">
        <ele>209</ele>
        <time>2013-06-20T16:38:17.000Z</time>
      </trkpt>
      <trkpt lat="43.61424" lon="6.85187">
        <ele>209</ele>
        <time>2013-06-20T16:38:20.000Z</time>
      </trkpt>
      <trkpt lat="43.61396" lon="6.85165">
        <ele>209</ele>
        <time>2013-06-20T16:38:25.000Z</time>
      </trkpt>
      <trkpt lat="43.61391" lon="6.8516">
        <ele>209</ele>
        <time>2013-06-20T16:38:26.000Z</time>
      </trkpt>
      <trkpt lat="43.61385" lon="6.85151">
        <ele>209.19999694824</ele>
        <time>2013-06-20T16:38:28.000Z</time>
      </trkpt>
      <trkpt lat="43.61383" lon="6.85144">
        <ele>209.60000610352</ele>
        <time>2013-06-20T16:38:29.000Z</time>
      </trkpt>
      <trkpt lat="43.61379" lon="6.85129">
        <ele>209.80000305176</ele>
        <time>2013-06-20T16:38:31.000Z</time>
      </trkpt>
      <trkpt lat="43.61364" lon="6.85104">
        <ele>210</ele>
        <time>2013-06-20T16:38:34.000Z</time>
      </trkpt>
      <trkpt lat="43.61352" lon="6.85085">
        <ele>210</ele>
        <time>2013-06-20T16:38:36.000Z</time>
      </trkpt>
      <trkpt lat="43.61342" lon="6.85061">
        <ele>209.19999694824</ele>
        <time>2013-06-20T16:38:38.000Z</time>
      </trkpt>
      <trkpt lat="43.6134" lon="6.85049">
        <ele>209</ele>
        <time>2013-06-20T16:38:39.000Z</time>
      </trkpt>
      <trkpt lat="43.61338" lon="6.8504">
        <ele>208.80000305176</ele>
        <time>2013-06-20T16:38:40.000Z</time>
      </trkpt>
      <trkpt lat="43.61336" lon="6.85031">
        <ele>208.19999694824</ele>
        <time>2013-06-20T16:38:41.000Z</time>
      </trkpt>
      <trkpt lat="43.61337" lon="6.85022">
        <ele>207.80000305176</ele>
        <time>2013-06-20T16:38:42.000Z</time>
      </trkpt>
      <trkpt lat="43.6134" lon="6.85012">
        <ele>207</ele>
        <time>2013-06-20T16:38:43.000Z</time>
      </trkpt>
      <trkpt lat="43.61343" lon="6.84987">
        <ele>205.19999694824</ele>
        <time>2013-06-20T16:38:45.000Z</time>
      </trkpt>
      <trkpt lat="43.61344" lon="6.84963">
        <ele>203.60000610352</ele>
        <time>2013-06-20T16:38:47.000Z</time>
      </trkpt>
      <trkpt lat="43.61343" lon="6.84955">
        <ele>202.60000610352</ele>
        <time>2013-06-20T16:38:48.000Z</time>
      </trkpt>
      <trkpt lat="43.61349" lon="6.84937">
        <ele>199.19999694824</ele>
        <time>2013-06-20T16:38:51.000Z</time>
      </trkpt>
      <trkpt lat="43.61355" lon="6.84921">
        <ele>197</ele>
        <time>2013-06-20T16:38:53.000Z</time>
      </trkpt>
      <trkpt lat="43.61356" lon="6.84913">
        <ele>196</ele>
        <time>2013-06-20T16:38:54.000Z</time>
      </trkpt>
      <trkpt lat="43.61357" lon="6.84904">
        <ele>195</ele>
        <time>2013-06-20T16:38:55.000Z</time>
      </trkpt>
      <trkpt lat="43.61357" lon="6.84888">
        <ele>192.19999694824</ele>
        <time>2013-06-20T16:38:57.000Z</time>
      </trkpt>
      <trkpt lat="43.61354" lon="6.84882">
        <ele>191</ele>
        <time>2013-06-20T16:38:58.000Z</time>
      </trkpt>
      <trkpt lat="43.61352" lon="6.84876">
        <ele>189.60000610352</ele>
        <time>2013-06-20T16:38:59.000Z</time>
      </trkpt>
      <trkpt lat="43.61351" lon="6.84862">
        <ele>187</ele>
        <time>2013-06-20T16:39:01.000Z</time>
      </trkpt>
      <trkpt lat="43.61356" lon="6.84851">
        <ele>184</ele>
        <time>2013-06-20T16:39:03.000Z</time>
      </trkpt>
      <trkpt lat="43.61358" lon="6.84846">
        <ele>182.80000305176</ele>
        <time>2013-06-20T16:39:04.000Z</time>
      </trkpt>
      <trkpt lat="43.61366" lon="6.84832">
        <ele>178.19999694824</ele>
        <time>2013-06-20T16:39:07.000Z</time>
      </trkpt>
      <trkpt lat="43.61372" lon="6.84821">
        <ele>175.19999694824</ele>
        <time>2013-06-20T16:39:09.000Z</time>
      </trkpt>
      <trkpt lat="43.61376" lon="6.84818">
        <ele>173.60000610352</ele>
        <time>2013-06-20T16:39:10.000Z</time>
      </trkpt>
      <trkpt lat="43.61378" lon="6.84817">
        <ele>171.80000305176</ele>
        <time>2013-06-20T16:39:11.000Z</time>
      </trkpt>
      <trkpt lat="43.61381" lon="6.84819">
        <ele>168.19999694824</ele>
        <time>2013-06-20T16:39:13.000Z</time>
      </trkpt>
      <trkpt lat="43.61383" lon="6.84821">
        <ele>165</ele>
        <time>2013-06-20T16:39:15.000Z</time>
      </trkpt>
      <trkpt lat="43.61385" lon="6.84821">
        <ele>163.60000610352</ele>
        <time>2013-06-20T16:39:16.000Z</time>
      </trkpt>
      <trkpt lat="43.61386" lon="6.84821">
        <ele>162</ele>
        <time>2013-06-20T16:39:17.000Z</time>
      </trkpt>
      <trkpt lat="43.61387" lon="6.84823">
        <ele>160.80000305176</ele>
        <time>2013-06-20T16:39:18.000Z</time>
      </trkpt>
      <trkpt lat="43.61389" lon="6.84825">
        <ele>159.19999694824</ele>
        <time>2013-06-20T16:39:19.000Z</time>
      </trkpt>
      <trkpt lat="43.61389" lon="6.8483">
        <ele>155.60000610352</ele>
        <time>2013-06-20T16:39:22.000Z</time>
      </trkpt>
      <trkpt lat="43.61386" lon="6.8483">
        <ele>153.60000610352</ele>
        <time>2013-06-20T16:39:24.000Z</time>
      </trkpt>
      <trkpt lat="43.61385" lon="6.8483">
        <ele>152.80000305176</ele>
        <time>2013-06-20T16:39:25.000Z</time>
      </trkpt>
      <trkpt lat="43.61383" lon="6.8483">
        <ele>150.60000610352</ele>
        <time>2013-06-20T16:39:28.000Z</time>
      </trkpt>
      <trkpt lat="43.61384" lon="6.84832">
        <ele>150</ele>
        <time>2013-06-20T16:39:29.000Z</time>
      </trkpt>
      <trkpt lat="43.61387" lon="6.84835">
        <ele>149.19999694824</ele>
        <time>2013-06-20T16:39:31.000Z</time>
      </trkpt>
      <trkpt lat="43.6139" lon="6.84839">
        <ele>149</ele>
        <time>2013-06-20T16:39:33.000Z</time>
      </trkpt>
      <trkpt lat="43.61395" lon="6.84845">
        <ele>148.60000610352</ele>
        <time>2013-06-20T16:39:35.000Z</time>
      </trkpt>
      <trkpt lat="43.61397" lon="6.84848">
        <ele>148.60000610352</ele>
        <time>2013-06-20T16:39:36.000Z</time>
      </trkpt>
      <trkpt lat="43.61401" lon="6.84852">
        <ele>148</ele>
        <time>2013-06-20T16:39:39.000Z</time>
      </trkpt>
      <trkpt lat="43.61406" lon="6.84851">
        <ele>147</ele>
        <time>2013-06-20T16:39:40.000Z</time>
      </trkpt>
      <trkpt lat="43.61411" lon="6.84852">
        <ele>146</ele>
        <time>2013-06-20T16:39:42.000Z</time>
      </trkpt>
      <trkpt lat="43.61417" lon="6.84859">
        <ele>144.60000610352</ele>
        <time>2013-06-20T16:39:44.000Z</time>
      </trkpt>
      <trkpt lat="43.61418" lon="6.84862">
        <ele>143.80000305176</ele>
        <time>2013-06-20T16:39:45.000Z</time>
      </trkpt>
      <trkpt lat="43.61419" lon="6.84864">
        <ele>142.80000305176</ele>
        <time>2013-06-20T16:39:46.000Z</time>
      </trkpt>
      <trkpt lat="43.61422" lon="6.84867">
        <ele>141</ele>
        <time>2013-06-20T16:39:48.000Z</time>
      </trkpt>
      <trkpt lat="43.61428" lon="6.84871">
        <ele>139</ele>
        <time>2013-06-20T16:39:50.000Z</time>
      </trkpt>
      <trkpt lat="43.61431" lon="6.8487">
        <ele>138</ele>
        <time>2013-06-20T16:39:51.000Z</time>
      </trkpt>
      <trkpt lat="43.61432" lon="6.84862">
        <ele>136</ele>
        <time>2013-06-20T16:39:53.000Z</time>
      </trkpt>
      <trkpt lat="43.61432" lon="6.84856">
        <ele>135</ele>
        <time>2013-06-20T16:39:54.000Z</time>
      </trkpt>
      <trkpt lat="43.61433" lon="6.84848">
        <ele>134</ele>
        <time>2013-06-20T16:39:55.000Z</time>
      </trkpt>
      <trkpt lat="43.61432" lon="6.84822">
        <ele>130.80000305176</ele>
        <time>2013-06-20T16:39:58.000Z</time>
      </trkpt>
      <trkpt lat="43.61435" lon="6.84817">
        <ele>129.80000305176</ele>
        <time>2013-06-20T16:39:59.000Z</time>
      </trkpt>
      <trkpt lat="43.61436" lon="6.84811">
        <ele>128.80000305176</ele>
        <time>2013-06-20T16:40:00.000Z</time>
      </trkpt>
      <trkpt lat="43.61438" lon="6.84808">
        <ele>127.40000152588</ele>
        <time>2013-06-20T16:40:01.000Z</time>
      </trkpt>
      <trkpt lat="43.61446" lon="6.84799">
        <ele>125.80000305176</ele>
        <time>2013-06-20T16:40:03.000Z</time>
      </trkpt>
      <trkpt lat="43.61447" lon="6.84794">
        <ele>124.40000152588</ele>
        <time>2013-06-20T16:40:04.000Z</time>
      </trkpt>
      <trkpt lat="43.61448" lon="6.84791">
        <ele>123.40000152588</ele>
        <time>2013-06-20T16:40:05.000Z</time>
      </trkpt>
      <trkpt lat="43.61451" lon="6.84787">
        <ele>122.40000152588</ele>
        <time>2013-06-20T16:40:06.000Z</time>
      </trkpt>
      <trkpt lat="43.61457" lon="6.84782">
        <ele>120</ele>
        <time>2013-06-20T16:40:08.000Z</time>
      </trkpt>
      <trkpt lat="43.61464" lon="6.8478">
        <ele>117.80000305176</ele>
        <time>2013-06-20T16:40:10.000Z</time>
      </trkpt>
      <trkpt lat="43.61469" lon="6.84775">
        <ele>115.40000152588</ele>
        <time>2013-06-20T16:40:12.000Z</time>
      </trkpt>
      <trkpt lat="43.61472" lon="6.84769">
        <ele>113</ele>
        <time>2013-06-20T16:40:14.000Z</time>
      </trkpt>
      <trkpt lat="43.61469" lon="6.84764">
        <ele>111.80000305176</ele>
        <time>2013-06-20T16:40:15.000Z</time>
      </trkpt>
      <trkpt lat="43.61465" lon="6.84759">
        <ele>106</ele>
        <time>2013-06-20T16:40:22.000Z</time>
      </trkpt>
      <trkpt lat="43.61465" lon="6.84759">
        <ele>105.40000152588</ele>
        <time>2013-06-20T16:40:23.000Z</time>
      </trkpt>
      <trkpt lat="43.61466" lon="6.84759">
        <ele>105</ele>
        <time>2013-06-20T16:40:24.000Z</time>
      </trkpt>
      <trkpt lat="43.61467" lon="6.84759">
        <ele>104.40000152588</ele>
        <time>2013-06-20T16:40:26.000Z</time>
      </trkpt>
      <trkpt lat="43.61468" lon="6.84759">
        <ele>103.80000305176</ele>
        <time>2013-06-20T16:40:28.000Z</time>
      </trkpt>
      <trkpt lat="43.61469" lon="6.84758">
        <ele>103</ele>
        <time>2013-06-20T16:40:30.000Z</time>
      </trkpt>
      <trkpt lat="43.6147" lon="6.84757">
        <ele>102.40000152588</ele>
        <time>2013-06-20T16:40:33.000Z</time>
      </trkpt>
      <trkpt lat="43.61475" lon="6.84753">
        <ele>101</ele>
        <time>2013-06-20T16:40:56.000Z</time>
      </trkpt>
      <trkpt lat="43.61474" lon="6.84752">
        <ele>101</ele>
        <time>2013-06-20T16:40:57.000Z</time>
      </trkpt>
      <trkpt lat="43.61473" lon="6.84747">
        <ele>101</ele>
        <time>2013-06-20T16:40:58.000Z</time>
      </trkpt>
      <trkpt lat="43.61472" lon="6.84739">
        <ele>101</ele>
        <time>2013-06-20T16:41:00.000Z</time>
      </trkpt>
      <trkpt lat="43.61465" lon="6.84711">
        <ele>101</ele>
        <time>2013-06-20T16:41:02.000Z</time>
      </trkpt>
      <trkpt lat="43.61451" lon="6.84682">
        <ele>100</ele>
        <time>2013-06-20T16:41:05.000Z</time>
      </trkpt>
      <trkpt lat="43.61447" lon="6.84675">
        <ele>99.800003051758</ele>
        <time>2013-06-20T16:41:06.000Z</time>
      </trkpt>
      <trkpt lat="43.61436" lon="6.84666">
        <ele>99</ele>
        <time>2013-06-20T16:41:08.000Z</time>
      </trkpt>
      <trkpt lat="43.61431" lon="6.84663">
        <ele>98.400001525879</ele>
        <time>2013-06-20T16:41:09.000Z</time>
      </trkpt>
      <trkpt lat="43.61428" lon="6.84659">
        <ele>97.800003051758</ele>
        <time>2013-06-20T16:41:10.000Z</time>
      </trkpt>
      <trkpt lat="43.61425" lon="6.84656">
        <ele>97</ele>
        <time>2013-06-20T16:41:11.000Z</time>
      </trkpt>
      <trkpt lat="43.61418" lon="6.84647">
        <ele>96</ele>
        <time>2013-06-20T16:41:13.000Z</time>
      </trkpt>
      <trkpt lat="43.61413" lon="6.84643">
        <ele>95</ele>
        <time>2013-06-20T16:41:14.000Z</time>
      </trkpt>
      <trkpt lat="43.61403" lon="6.84633">
        <ele>93.800003051758</ele>
        <time>2013-06-20T16:41:16.000Z</time>
      </trkpt>
      <trkpt lat="43.61398" lon="6.84628">
        <ele>93</ele>
        <time>2013-06-20T16:41:17.000Z</time>
      </trkpt>
      <trkpt lat="43.61384" lon="6.84618">
        <ele>91.400001525879</ele>
        <time>2013-06-20T16:41:19.000Z</time>
      </trkpt>
      <trkpt lat="43.61374" lon="6.84613">
        <ele>90.800003051758</ele>
        <time>2013-06-20T16:41:20.000Z</time>
      </trkpt>
      <trkpt lat="43.61358" lon="6.84604">
        <ele>89.400001525879</ele>
        <time>2013-06-20T16:41:22.000Z</time>
      </trkpt>
      <trkpt lat="43.61352" lon="6.84598">
        <ele>88.400001525879</ele>
        <time>2013-06-20T16:41:23.000Z</time>
      </trkpt>
      <trkpt lat="43.61349" lon="6.84594">
        <ele>87.800003051758</ele>
        <time>2013-06-20T16:41:24.000Z</time>
      </trkpt>
      <trkpt lat="43.61346" lon="6.84574">
        <ele>85</ele>
        <time>2013-06-20T16:41:27.000Z</time>
      </trkpt>
      <trkpt lat="43.61345" lon="6.84566">
        <ele>84</ele>
        <time>2013-06-20T16:41:28.000Z</time>
      </trkpt>
      <trkpt lat="43.61339" lon="6.84547">
        <ele>81</ele>
        <time>2013-06-20T16:41:31.000Z</time>
      </trkpt>
      <trkpt lat="43.61334" lon="6.84537">
        <ele>79</ele>
        <time>2013-06-20T16:41:33.000Z</time>
      </trkpt>
      <trkpt lat="43.61333" lon="6.84531">
        <ele>78</ele>
        <time>2013-06-20T16:41:34.000Z</time>
      </trkpt>
      <trkpt lat="43.6133" lon="6.84527">
        <ele>77.400001525879</ele>
        <time>2013-06-20T16:41:35.000Z</time>
      </trkpt>
      <trkpt lat="43.61322" lon="6.84521">
        <ele>75.400001525879</ele>
        <time>2013-06-20T16:41:37.000Z</time>
      </trkpt>
      <trkpt lat="43.61316" lon="6.84516">
        <ele>73.400001525879</ele>
        <time>2013-06-20T16:41:39.000Z</time>
      </trkpt>
      <trkpt lat="43.61315" lon="6.84513">
        <ele>72.800003051758</ele>
        <time>2013-06-20T16:41:40.000Z</time>
      </trkpt>
      <trkpt lat="43.6131" lon="6.84503">
        <ele>70.400001525879</ele>
        <time>2013-06-20T16:41:42.000Z</time>
      </trkpt>
      <trkpt lat="43.61299" lon="6.84489">
        <ele>67.400001525879</ele>
        <time>2013-06-20T16:41:47.000Z</time>
      </trkpt>
      <trkpt lat="43.61297" lon="6.8449">
        <ele>66</ele>
        <time>2013-06-20T16:41:48.000Z</time>
      </trkpt>
      <trkpt lat="43.61294" lon="6.84488">
        <ele>64.400001525879</ele>
        <time>2013-06-20T16:41:50.000Z</time>
      </trkpt>
      <trkpt lat="43.61291" lon="6.84482">
        <ele>62.400001525879</ele>
        <time>2013-06-20T16:41:53.000Z</time>
      </trkpt>
      <trkpt lat="43.6129" lon="6.84482">
        <ele>61.599998474121</ele>
        <time>2013-06-20T16:41:54.000Z</time>
      </trkpt>
      <trkpt lat="43.61289" lon="6.8448">
        <ele>60.400001525879</ele>
        <time>2013-06-20T16:41:56.000Z</time>
      </trkpt>
      <trkpt lat="43.6129" lon="6.84479">
        <ele>59.400001525879</ele>
        <time>2013-06-20T16:41:57.000Z</time>
      </trkpt>
      <trkpt lat="43.61289" lon="6.84477">
        <ele>58.400001525879</ele>
        <time>2013-06-20T16:41:59.000Z</time>
      </trkpt>
      <trkpt lat="43.61291" lon="6.84471">
        <ele>58.200000762939</ele>
        <time>2013-06-20T16:42:00.000Z</time>
      </trkpt>
      <trkpt lat="43.61291" lon="6.84466">
        <ele>57.400001525879</ele>
        <time>2013-06-20T16:42:01.000Z</time>
      </trkpt>
      <trkpt lat="43.61291" lon="6.84459">
        <ele>56.599998474121</ele>
        <time>2013-06-20T16:42:04.000Z</time>
      </trkpt>
      <trkpt lat="43.61289" lon="6.84461">
        <ele>56</ele>
        <time>2013-06-20T16:42:05.000Z</time>
      </trkpt>
      <trkpt lat="43.61291" lon="6.84459">
        <ele>55.400001525879</ele>
        <time>2013-06-20T16:42:08.000Z</time>
      </trkpt>
      <trkpt lat="43.61297" lon="6.84458">
        <ele>53.599998474121</ele>
        <time>2013-06-20T16:42:17.000Z</time>
      </trkpt>
      <trkpt lat="43.61299" lon="6.84458">
        <ele>53.400001525879</ele>
        <time>2013-06-20T16:42:19.000Z</time>
      </trkpt>
      <trkpt lat="43.61301" lon="6.84457">
        <ele>53.400001525879</ele>
        <time>2013-06-20T16:42:21.000Z</time>
      </trkpt>
      <trkpt lat="43.61309" lon="6.84457">
        <ele>53.200000762939</ele>
        <time>2013-06-20T16:42:27.000Z</time>
      </trkpt>
      <trkpt lat="43.61283" lon="6.84476">
        <ele>52.599998474121</ele>
        <time>2013-06-20T16:44:02.000Z</time>
      </trkpt>
      <trkpt lat="43.61285" lon="6.84476">
        <ele>52.599998474121</ele>
        <time>2013-06-20T16:44:03.000Z</time>
      </trkpt>
      <trkpt lat="43.61293" lon="6.84476">
        <ele>52.599998474121</ele>
        <time>2013-06-20T16:44:11.000Z</time>
      </trkpt>
      <trkpt lat="43.61289" lon="6.84467">
        <ele>52.599998474121</ele>
        <time>2013-06-20T16:44:56.000Z</time>
      </trkpt>
      <trkpt lat="43.61291" lon="6.84464">
        <ele>52.599998474121</ele>
        <time>2013-06-20T16:44:58.000Z</time>
      </trkpt>
      <trkpt lat="43.61295" lon="6.84464">
        <ele>52.599998474121</ele>
        <time>2013-06-20T16:45:00.000Z</time>
      </trkpt>
      <trkpt lat="43.61299" lon="6.84463">
        <ele>52.599998474121</ele>
        <time>2013-06-20T16:45:03.000Z</time>
      </trkpt>
      <trkpt lat="43.61297" lon="6.84458">
        <ele>52.599998474121</ele>
        <time>2013-06-20T16:45:17.000Z</time>
      </trkpt>
      <trkpt lat="43.61297" lon="6.84458">
        <ele>52.599998474121</ele>
        <time>2013-06-20T16:45:18.000Z</time>
      </trkpt>
      <trkpt lat="43.61299" lon="6.84457">
        <ele>52.599998474121</ele>
        <time>2013-06-20T16:45:24.000Z</time>
      </trkpt>
      <trkpt lat="43.61301" lon="6.84457">
        <ele>52.599998474121</ele>
        <time>2013-06-20T16:45:28.000Z</time>
      </trkpt>
      <trkpt lat="43.61301" lon="6.84455">
        <ele>52.599998474121</ele>
        <time>2013-06-20T16:45:29.000Z</time>
      </trkpt>
      <trkpt lat="43.61302" lon="6.84451">
        <ele>52.599998474121</ele>
        <time>2013-06-20T16:45:32.000Z</time>
      </trkpt>
      <trkpt lat="43.61296" lon="6.84442">
        <ele>53</ele>
        <time>2013-06-20T16:45:34.000Z</time>
      </trkpt>
      <trkpt lat="43.61296" lon="6.84438">
        <ele>53.400001525879</ele>
        <time>2013-06-20T16:45:36.000Z</time>
      </trkpt>
      <trkpt lat="43.61297" lon="6.84437">
        <ele>53.400001525879</ele>
        <time>2013-06-20T16:45:37.000Z</time>
      </trkpt>
      <trkpt lat="43.61295" lon="6.84435">
        <ele>53.599998474121</ele>
        <time>2013-06-20T16:45:39.000Z</time>
      </trkpt>
      <trkpt lat="43.61296" lon="6.84426">
        <ele>54.200000762939</ele>
        <time>2013-06-20T16:45:42.000Z</time>
      </trkpt>
      <trkpt lat="43.61288" lon="6.84418">
        <ele>54.400001525879</ele>
        <time>2013-06-20T16:45:47.000Z</time>
      </trkpt>
      <trkpt lat="43.61288" lon="6.84415">
        <ele>54.400001525879</ele>
        <time>2013-06-20T16:45:48.000Z</time>
      </trkpt>
      <trkpt lat="43.61284" lon="6.84404">
        <ele>54.599998474121</ele>
        <time>2013-06-20T16:45:52.000Z</time>
      </trkpt>
      <trkpt lat="43.61277" lon="6.84403">
        <ele>54.599998474121</ele>
        <time>2013-06-20T16:45:57.000Z</time>
      </trkpt>
      <trkpt lat="43.61277" lon="6.84406">
        <ele>55</ele>
        <time>2013-06-20T16:46:01.000Z</time>
      </trkpt>
      <trkpt lat="43.61276" lon="6.84404">
        <ele>55</ele>
        <time>2013-06-20T16:46:38.000Z</time>
      </trkpt>
      <trkpt lat="43.61278" lon="6.84404">
        <ele>55</ele>
        <time>2013-06-20T16:46:42.000Z</time>
      </trkpt>
      <trkpt lat="43.61281" lon="6.84406">
        <ele>55</ele>
        <time>2013-06-20T16:46:44.000Z</time>
      </trkpt>
      <trkpt lat="43.61284" lon="6.84413">
        <ele>55</ele>
        <time>2013-06-20T16:46:53.000Z</time>
      </trkpt>
      <trkpt lat="43.61283" lon="6.84412">
        <ele>55</ele>
        <time>2013-06-20T16:46:57.000Z</time>
      </trkpt>
      <trkpt lat="43.61284" lon="6.8441">
        <ele>55</ele>
        <time>2013-06-20T16:47:02.000Z</time>
      </trkpt>
      <trkpt lat="43.61288" lon="6.84416">
        <ele>55</ele>
        <time>2013-06-20T16:47:10.000Z</time>
      </trkpt>
      <trkpt lat="43.61291" lon="6.8442">
        <ele>55</ele>
        <time>2013-06-20T16:47:14.000Z</time>
      </trkpt>
      <trkpt lat="43.61293" lon="6.84426">
        <ele>55</ele>
        <time>2013-06-20T16:47:18.000Z</time>
      </trkpt>
      <trkpt lat="43.61294" lon="6.84427">
        <ele>55</ele>
        <time>2013-06-20T16:47:19.000Z</time>
      </trkpt>
      <trkpt lat="43.61293" lon="6.84437">
        <ele>55</ele>
        <time>2013-06-20T16:47:24.000Z</time>
      </trkpt>
      <trkpt lat="43.61294" lon="6.84445">
        <ele>55</ele>
        <time>2013-06-20T16:47:27.000Z</time>
      </trkpt>
      <trkpt lat="43.61299" lon="6.84454">
        <ele>55</ele>
        <time>2013-06-20T16:47:31.000Z</time>
      </trkpt>
      <trkpt lat="43.61302" lon="6.84463">
        <ele>55</ele>
        <time>2013-06-20T16:47:36.000Z</time>
      </trkpt>
      <trkpt lat="43.61307" lon="6.84476">
        <ele>55</ele>
        <time>2013-06-20T16:47:46.000Z</time>
      </trkpt>
      <trkpt lat="43.61311" lon="6.84481">
        <ele>55.200000762939</ele>
        <time>2013-06-20T16:47:49.000Z</time>
      </trkpt>
      <trkpt lat="43.61313" lon="6.84482">
        <ele>55.400001525879</ele>
        <time>2013-06-20T16:47:50.000Z</time>
      </trkpt>
      <trkpt lat="43.61316" lon="6.84488">
        <ele>56</ele>
        <time>2013-06-20T16:47:53.000Z</time>
      </trkpt>
      <trkpt lat="43.61317" lon="6.84489">
        <ele>56.200000762939</ele>
        <time>2013-06-20T16:47:54.000Z</time>
      </trkpt>
      <trkpt lat="43.61319" lon="6.84491">
        <ele>57</ele>
        <time>2013-06-20T16:47:56.000Z</time>
      </trkpt>
      <trkpt lat="43.61321" lon="6.84492">
        <ele>57.400001525879</ele>
        <time>2013-06-20T16:47:58.000Z</time>
      </trkpt>
      <trkpt lat="43.61323" lon="6.84494">
        <ele>58</ele>
        <time>2013-06-20T16:48:00.000Z</time>
      </trkpt>
      <trkpt lat="43.61324" lon="6.84495">
        <ele>58.599998474121</ele>
        <time>2013-06-20T16:48:02.000Z</time>
      </trkpt>
      <trkpt lat="43.61326" lon="6.84497">
        <ele>59.200000762939</ele>
        <time>2013-06-20T16:48:04.000Z</time>
      </trkpt>
      <trkpt lat="43.61328" lon="6.84499">
        <ele>59.599998474121</ele>
        <time>2013-06-20T16:48:06.000Z</time>
      </trkpt>
      <trkpt lat="43.61333" lon="6.84501">
        <ele>61</ele>
        <time>2013-06-20T16:48:17.000Z</time>
      </trkpt>
      <trkpt lat="43.61335" lon="6.84502">
        <ele>61.400001525879</ele>
        <time>2013-06-20T16:48:19.000Z</time>
      </trkpt>
      <trkpt lat="43.61338" lon="6.84503">
        <ele>61.599998474121</ele>
        <time>2013-06-20T16:48:21.000Z</time>
      </trkpt>
      <trkpt lat="43.61341" lon="6.84505">
        <ele>62.200000762939</ele>
        <time>2013-06-20T16:48:23.000Z</time>
      </trkpt>
      <trkpt lat="43.61343" lon="6.84507">
        <ele>62.400001525879</ele>
        <time>2013-06-20T16:48:25.000Z</time>
      </trkpt>
      <trkpt lat="43.61345" lon="6.84511">
        <ele>62.599998474121</ele>
        <time>2013-06-20T16:48:27.000Z</time>
      </trkpt>
      <trkpt lat="43.61346" lon="6.84513">
        <ele>63.200000762939</ele>
        <time>2013-06-20T16:48:28.000Z</time>
      </trkpt>
      <trkpt lat="43.61348" lon="6.84517">
        <ele>63.599998474121</ele>
        <time>2013-06-20T16:48:30.000Z</time>
      </trkpt>
      <trkpt lat="43.6135" lon="6.8452">
        <ele>64.400001525879</ele>
        <time>2013-06-20T16:48:32.000Z</time>
      </trkpt>
      <trkpt lat="43.61352" lon="6.84522">
        <ele>64.800003051758</ele>
        <time>2013-06-20T16:48:34.000Z</time>
      </trkpt>
      <trkpt lat="43.61353" lon="6.84523">
        <ele>65</ele>
        <time>2013-06-20T16:48:35.000Z</time>
      </trkpt>
      <trkpt lat="43.61356" lon="6.84526">
        <ele>65.800003051758</ele>
        <time>2013-06-20T16:48:37.000Z</time>
      </trkpt>
      <trkpt lat="43.61357" lon="6.84526">
        <ele>66</ele>
        <time>2013-06-20T16:48:38.000Z</time>
      </trkpt>
      <trkpt lat="43.61359" lon="6.84528">
        <ele>66</ele>
        <time>2013-06-20T16:48:39.000Z</time>
      </trkpt>
      <trkpt lat="43.61361" lon="6.8453">
        <ele>66.400001525879</ele>
        <time>2013-06-20T16:48:41.000Z</time>
      </trkpt>
      <trkpt lat="43.61363" lon="6.84533">
        <ele>67</ele>
        <time>2013-06-20T16:48:43.000Z</time>
      </trkpt>
      <trkpt lat="43.61364" lon="6.84537">
        <ele>67.800003051758</ele>
        <time>2013-06-20T16:48:45.000Z</time>
      </trkpt>
      <trkpt lat="43.61366" lon="6.84541">
        <ele>68.400001525879</ele>
        <time>2013-06-20T16:48:47.000Z</time>
      </trkpt>
      <trkpt lat="43.61367" lon="6.84543">
        <ele>68.800003051758</ele>
        <time>2013-06-20T16:48:48.000Z</time>
      </trkpt>
      <trkpt lat="43.61368" lon="6.84546">
        <ele>69.400001525879</ele>
        <time>2013-06-20T16:48:50.000Z</time>
      </trkpt>
      <trkpt lat="43.61369" lon="6.84548">
        <ele>70</ele>
        <time>2013-06-20T16:48:52.000Z</time>
      </trkpt>
      <trkpt lat="43.6137" lon="6.84545">
        <ele>72.400001525879</ele>
        <time>2013-06-20T16:49:09.000Z</time>
      </trkpt>
      <trkpt lat="43.6137" lon="6.84548">
        <ele>72.400001525879</ele>
        <time>2013-06-20T16:49:11.000Z</time>
      </trkpt>
      <trkpt lat="43.61371" lon="6.84551">
        <ele>72.400001525879</ele>
        <time>2013-06-20T16:49:13.000Z</time>
      </trkpt>
      <trkpt lat="43.61372" lon="6.84554">
        <ele>72.800003051758</ele>
        <time>2013-06-20T16:49:15.000Z</time>
      </trkpt>
      <trkpt lat="43.61373" lon="6.84556">
        <ele>73</ele>
        <time>2013-06-20T16:49:17.000Z</time>
      </trkpt>
      <trkpt lat="43.61373" lon="6.84559">
        <ele>73.400001525879</ele>
        <time>2013-06-20T16:49:19.000Z</time>
      </trkpt>
      <trkpt lat="43.61374" lon="6.84562">
        <ele>73.800003051758</ele>
        <time>2013-06-20T16:49:21.000Z</time>
      </trkpt>
      <trkpt lat="43.61374" lon="6.84563">
        <ele>74</ele>
        <time>2013-06-20T16:49:22.000Z</time>
      </trkpt>
      <trkpt lat="43.61375" lon="6.84565">
        <ele>74.400001525879</ele>
        <time>2013-06-20T16:49:24.000Z</time>
      </trkpt>
      <trkpt lat="43.61377" lon="6.84568">
        <ele>75</ele>
        <time>2013-06-20T16:49:26.000Z</time>
      </trkpt>
      <trkpt lat="43.61378" lon="6.84571">
        <ele>75.400001525879</ele>
        <time>2013-06-20T16:49:28.000Z</time>
      </trkpt>
      <trkpt lat="43.61379" lon="6.84574">
        <ele>76</ele>
        <time>2013-06-20T16:49:30.000Z</time>
      </trkpt>
      <trkpt lat="43.61381" lon="6.84576">
        <ele>76.800003051758</ele>
        <time>2013-06-20T16:49:32.000Z</time>
      </trkpt>
      <trkpt lat="43.61383" lon="6.84579">
        <ele>77</ele>
        <time>2013-06-20T16:49:34.000Z</time>
      </trkpt>
      <trkpt lat="43.61385" lon="6.84583">
        <ele>77.400001525879</ele>
        <time>2013-06-20T16:49:36.000Z</time>
      </trkpt>
      <trkpt lat="43.61387" lon="6.84588">
        <ele>78</ele>
        <time>2013-06-20T16:49:39.000Z</time>
      </trkpt>
      <trkpt lat="43.61392" lon="6.84594">
        <ele>78.400001525879</ele>
        <time>2013-06-20T16:49:43.000Z</time>
      </trkpt>
      <trkpt lat="43.61394" lon="6.84598">
        <ele>79</ele>
        <time>2013-06-20T16:49:45.000Z</time>
      </trkpt>
      <trkpt lat="43.61396" lon="6.84602">
        <ele>79.400001525879</ele>
        <time>2013-06-20T16:49:47.000Z</time>
      </trkpt>
      <trkpt lat="43.61397" lon="6.84603">
        <ele>79.400001525879</ele>
        <time>2013-06-20T16:49:48.000Z</time>
      </trkpt>
      <trkpt lat="43.61399" lon="6.84606">
        <ele>79.800003051758</ele>
        <time>2013-06-20T16:49:50.000Z</time>
      </trkpt>
      <trkpt lat="43.614" lon="6.84607">
        <ele>80</ele>
        <time>2013-06-20T16:49:51.000Z</time>
      </trkpt>
      <trkpt lat="43.614" lon="6.84609">
        <ele>80</ele>
        <time>2013-06-20T16:49:52.000Z</time>
      </trkpt>
      <trkpt lat="43.61405" lon="6.84613">
        <ele>80.400001525879</ele>
        <time>2013-06-20T16:49:56.000Z</time>
      </trkpt>
      <trkpt lat="43.61408" lon="6.84618">
        <ele>80.800003051758</ele>
        <time>2013-06-20T16:49:59.000Z</time>
      </trkpt>
      <trkpt lat="43.61409" lon="6.8462">
        <ele>81.400001525879</ele>
        <time>2013-06-20T16:50:01.000Z</time>
      </trkpt>
      <trkpt lat="43.61411" lon="6.84623">
        <ele>81.400001525879</ele>
        <time>2013-06-20T16:50:03.000Z</time>
      </trkpt>
      <trkpt lat="43.61413" lon="6.84625">
        <ele>82</ele>
        <time>2013-06-20T16:50:05.000Z</time>
      </trkpt>
      <trkpt lat="43.61416" lon="6.84627">
        <ele>82</ele>
        <time>2013-06-20T16:50:07.000Z</time>
      </trkpt>
      <trkpt lat="43.61418" lon="6.84629">
        <ele>82.400001525879</ele>
        <time>2013-06-20T16:50:08.000Z</time>
      </trkpt>
      <trkpt lat="43.61421" lon="6.84632">
        <ele>83</ele>
        <time>2013-06-20T16:50:10.000Z</time>
      </trkpt>
      <trkpt lat="43.61424" lon="6.84635">
        <ele>83.400001525879</ele>
        <time>2013-06-20T16:50:12.000Z</time>
      </trkpt>
      <trkpt lat="43.61426" lon="6.84637">
        <ele>83.800003051758</ele>
        <time>2013-06-20T16:50:14.000Z</time>
      </trkpt>
      <trkpt lat="43.61427" lon="6.84638">
        <ele>84</ele>
        <time>2013-06-20T16:50:16.000Z</time>
      </trkpt>
      <trkpt lat="43.61428" lon="6.84638">
        <ele>84.400001525879</ele>
        <time>2013-06-20T16:50:17.000Z</time>
      </trkpt>
      <trkpt lat="43.61429" lon="6.84639">
        <ele>85</ele>
        <time>2013-06-20T16:50:19.000Z</time>
      </trkpt>
      <trkpt lat="43.6143" lon="6.84641">
        <ele>85.400001525879</ele>
        <time>2013-06-20T16:50:21.000Z</time>
      </trkpt>
      <trkpt lat="43.61431" lon="6.84643">
        <ele>86</ele>
        <time>2013-06-20T16:50:23.000Z</time>
      </trkpt>
      <trkpt lat="43.61432" lon="6.84645">
        <ele>86.400001525879</ele>
        <time>2013-06-20T16:50:25.000Z</time>
      </trkpt>
      <trkpt lat="43.61433" lon="6.84647">
        <ele>86.800003051758</ele>
        <time>2013-06-20T16:50:27.000Z</time>
      </trkpt>
      <trkpt lat="43.61433" lon="6.84649">
        <ele>87.400001525879</ele>
        <time>2013-06-20T16:50:29.000Z</time>
      </trkpt>
      <trkpt lat="43.61434" lon="6.84651">
        <ele>87.800003051758</ele>
        <time>2013-06-20T16:50:31.000Z</time>
      </trkpt>
      <trkpt lat="43.61436" lon="6.84653">
        <ele>88</ele>
        <time>2013-06-20T16:50:33.000Z</time>
      </trkpt>
      <trkpt lat="43.61439" lon="6.84656">
        <ele>88.400001525879</ele>
        <time>2013-06-20T16:50:35.000Z</time>
      </trkpt>
      <trkpt lat="43.61444" lon="6.8466">
        <ele>89</ele>
        <time>2013-06-20T16:50:38.000Z</time>
      </trkpt>
      <trkpt lat="43.61447" lon="6.84662">
        <ele>89.400001525879</ele>
        <time>2013-06-20T16:50:40.000Z</time>
      </trkpt>
      <trkpt lat="43.6145" lon="6.84663">
        <ele>90</ele>
        <time>2013-06-20T16:50:42.000Z</time>
      </trkpt>
      <trkpt lat="43.61453" lon="6.84665">
        <ele>90.400001525879</ele>
        <time>2013-06-20T16:50:44.000Z</time>
      </trkpt>
      <trkpt lat="43.61454" lon="6.84667">
        <ele>90.800003051758</ele>
        <time>2013-06-20T16:50:46.000Z</time>
      </trkpt>
      <trkpt lat="43.61456" lon="6.84669">
        <ele>91</ele>
        <time>2013-06-20T16:50:48.000Z</time>
      </trkpt>
      <trkpt lat="43.61457" lon="6.84672">
        <ele>91.400001525879</ele>
        <time>2013-06-20T16:50:50.000Z</time>
      </trkpt>
      <trkpt lat="43.61458" lon="6.84675">
        <ele>92</ele>
        <time>2013-06-20T16:50:52.000Z</time>
      </trkpt>
      <trkpt lat="43.61459" lon="6.84677">
        <ele>92</ele>
        <time>2013-06-20T16:50:53.000Z</time>
      </trkpt>
      <trkpt lat="43.61459" lon="6.8468">
        <ele>92.400001525879</ele>
        <time>2013-06-20T16:50:56.000Z</time>
      </trkpt>
      <trkpt lat="43.61459" lon="6.84681">
        <ele>92.800003051758</ele>
        <time>2013-06-20T16:50:57.000Z</time>
      </trkpt>
      <trkpt lat="43.6146" lon="6.84683">
        <ele>93</ele>
        <time>2013-06-20T16:50:59.000Z</time>
      </trkpt>
      <trkpt lat="43.6146" lon="6.84684">
        <ele>93</ele>
        <time>2013-06-20T16:51:00.000Z</time>
      </trkpt>
      <trkpt lat="43.61462" lon="6.84688">
        <ele>93.800003051758</ele>
        <time>2013-06-20T16:51:04.000Z</time>
      </trkpt>
      <trkpt lat="43.61463" lon="6.84689">
        <ele>94</ele>
        <time>2013-06-20T16:51:06.000Z</time>
      </trkpt>
      <trkpt lat="43.61464" lon="6.8469">
        <ele>94.400001525879</ele>
        <time>2013-06-20T16:51:08.000Z</time>
      </trkpt>
      <trkpt lat="43.61465" lon="6.84693">
        <ele>95</ele>
        <time>2013-06-20T16:51:10.000Z</time>
      </trkpt>
      <trkpt lat="43.61467" lon="6.84696">
        <ele>95</ele>
        <time>2013-06-20T16:51:12.000Z</time>
      </trkpt>
      <trkpt lat="43.61467" lon="6.84697">
        <ele>95.400001525879</ele>
        <time>2013-06-20T16:51:13.000Z</time>
      </trkpt>
      <trkpt lat="43.61469" lon="6.847">
        <ele>96</ele>
        <time>2013-06-20T16:51:15.000Z</time>
      </trkpt>
      <trkpt lat="43.61471" lon="6.84702">
        <ele>96.400001525879</ele>
        <time>2013-06-20T16:51:17.000Z</time>
      </trkpt>
      <trkpt lat="43.61472" lon="6.84704">
        <ele>96.800003051758</ele>
        <time>2013-06-20T16:51:18.000Z</time>
      </trkpt>
      <trkpt lat="43.61473" lon="6.84705">
        <ele>97</ele>
        <time>2013-06-20T16:51:19.000Z</time>
      </trkpt>
      <trkpt lat="43.61476" lon="6.84708">
        <ele>97.800003051758</ele>
        <time>2013-06-20T16:51:21.000Z</time>
      </trkpt>
      <trkpt lat="43.61478" lon="6.8471">
        <ele>98.400001525879</ele>
        <time>2013-06-20T16:51:23.000Z</time>
      </trkpt>
      <trkpt lat="43.6148" lon="6.8471">
        <ele>98.800003051758</ele>
        <time>2013-06-20T16:51:25.000Z</time>
      </trkpt>
      <trkpt lat="43.6148" lon="6.84711">
        <ele>99</ele>
        <time>2013-06-20T16:51:27.000Z</time>
      </trkpt>
      <trkpt lat="43.6148" lon="6.84716">
        <ele>100.40000152588</ele>
        <time>2013-06-20T16:52:20.000Z</time>
      </trkpt>
      <trkpt lat="43.61481" lon="6.84718">
        <ele>100.40000152588</ele>
        <time>2013-06-20T16:52:22.000Z</time>
      </trkpt>
      <trkpt lat="43.6148" lon="6.8473">
        <ele>100.40000152588</ele>
        <time>2013-06-20T16:52:27.000Z</time>
      </trkpt>
      <trkpt lat="43.61478" lon="6.84755">
        <ele>100.40000152588</ele>
        <time>2013-06-20T16:52:31.000Z</time>
      </trkpt>
      <trkpt lat="43.61478" lon="6.84762">
        <ele>100.40000152588</ele>
        <time>2013-06-20T16:52:32.000Z</time>
      </trkpt>
      <trkpt lat="43.61475" lon="6.8479">
        <ele>100.40000152588</ele>
        <time>2013-06-20T16:52:36.000Z</time>
      </trkpt>
      <trkpt lat="43.61474" lon="6.84806">
        <ele>100.40000152588</ele>
        <time>2013-06-20T16:52:39.000Z</time>
      </trkpt>
      <trkpt lat="43.61475" lon="6.84811">
        <ele>100.40000152588</ele>
        <time>2013-06-20T16:52:40.000Z</time>
      </trkpt>
      <trkpt lat="43.61481" lon="6.8483">
        <ele>100.40000152588</ele>
        <time>2013-06-20T16:52:43.000Z</time>
      </trkpt>
      <trkpt lat="43.61486" lon="6.84848">
        <ele>100</ele>
        <time>2013-06-20T16:52:44.000Z</time>
      </trkpt>
      <trkpt lat="43.6149" lon="6.84855">
        <ele>99.800003051758</ele>
        <time>2013-06-20T16:52:45.000Z</time>
      </trkpt>
      <trkpt lat="43.61492" lon="6.84859">
        <ele>99.400001525879</ele>
        <time>2013-06-20T16:52:46.000Z</time>
      </trkpt>
      <trkpt lat="43.61499" lon="6.84877">
        <ele>98.800003051758</ele>
        <time>2013-06-20T16:52:48.000Z</time>
      </trkpt>
      <trkpt lat="43.61504" lon="6.84886">
        <ele>98.400001525879</ele>
        <time>2013-06-20T16:52:49.000Z</time>
      </trkpt>
      <trkpt lat="43.6151" lon="6.84896">
        <ele>97.400001525879</ele>
        <time>2013-06-20T16:52:51.000Z</time>
      </trkpt>
      <trkpt lat="43.61511" lon="6.84896">
        <ele>97</ele>
        <time>2013-06-20T16:52:52.000Z</time>
      </trkpt>
      <trkpt lat="43.6152" lon="6.84885">
        <ele>96.400001525879</ele>
        <time>2013-06-20T16:52:54.000Z</time>
      </trkpt>
      <trkpt lat="43.61524" lon="6.84887">
        <ele>96</ele>
        <time>2013-06-20T16:52:55.000Z</time>
      </trkpt>
      <trkpt lat="43.61531" lon="6.84884">
        <ele>95.800003051758</ele>
        <time>2013-06-20T16:52:57.000Z</time>
      </trkpt>
      <trkpt lat="43.61534" lon="6.84889">
        <ele>95.400001525879</ele>
        <time>2013-06-20T16:52:58.000Z</time>
      </trkpt>
      <trkpt lat="43.61538" lon="6.849">
        <ele>95</ele>
        <time>2013-06-20T16:53:01.000Z</time>
      </trkpt>
      <trkpt lat="43.61555" lon="6.84934">
        <ele>94</ele>
        <time>2013-06-20T16:53:07.000Z</time>
      </trkpt>
      <trkpt lat="43.61557" lon="6.84936">
        <ele>94</ele>
        <time>2013-06-20T16:53:09.000Z</time>
      </trkpt>
      <trkpt lat="43.61561" lon="6.84939">
        <ele>94</ele>
        <time>2013-06-20T16:53:12.000Z</time>
      </trkpt>
      <trkpt lat="43.61565" lon="6.84939">
        <ele>94.400001525879</ele>
        <time>2013-06-20T16:53:14.000Z</time>
      </trkpt>
      <trkpt lat="43.61568" lon="6.84941">
        <ele>94.400001525879</ele>
        <time>2013-06-20T16:53:15.000Z</time>
      </trkpt>
      <trkpt lat="43.61573" lon="6.84945">
        <ele>94.800003051758</ele>
        <time>2013-06-20T16:53:18.000Z</time>
      </trkpt>
      <trkpt lat="43.61576" lon="6.84949">
        <ele>95</ele>
        <time>2013-06-20T16:53:19.000Z</time>
      </trkpt>
      <trkpt lat="43.61581" lon="6.84951">
        <ele>95.400001525879</ele>
        <time>2013-06-20T16:53:20.000Z</time>
      </trkpt>
      <trkpt lat="43.61584" lon="6.84952">
        <ele>95.400001525879</ele>
        <time>2013-06-20T16:53:21.000Z</time>
      </trkpt>
      <trkpt lat="43.61586" lon="6.84953">
        <ele>96</ele>
        <time>2013-06-20T16:53:23.000Z</time>
      </trkpt>
      <trkpt lat="43.6159" lon="6.84956">
        <ele>96.400001525879</ele>
        <time>2013-06-20T16:53:25.000Z</time>
      </trkpt>
      <trkpt lat="43.61598" lon="6.8496">
        <ele>96.400001525879</ele>
        <time>2013-06-20T16:53:27.000Z</time>
      </trkpt>
      <trkpt lat="43.61603" lon="6.84959">
        <ele>96.800003051758</ele>
        <time>2013-06-20T16:53:28.000Z</time>
      </trkpt>
      <trkpt lat="43.61622" lon="6.84959">
        <ele>97.400001525879</ele>
        <time>2013-06-20T16:53:34.000Z</time>
      </trkpt>
      <trkpt lat="43.61623" lon="6.8496">
        <ele>97.800003051758</ele>
        <time>2013-06-20T16:53:35.000Z</time>
      </trkpt>
      <trkpt lat="43.61625" lon="6.84961">
        <ele>98</ele>
        <time>2013-06-20T16:53:36.000Z</time>
      </trkpt>
      <trkpt lat="43.61629" lon="6.84962">
        <ele>98.400001525879</ele>
        <time>2013-06-20T16:53:38.000Z</time>
      </trkpt>
      <trkpt lat="43.6163" lon="6.84966">
        <ele>98.400001525879</ele>
        <time>2013-06-20T16:53:40.000Z</time>
      </trkpt>
      <trkpt lat="43.61631" lon="6.84965">
        <ele>99</ele>
        <time>2013-06-20T16:53:41.000Z</time>
      </trkpt>
      <trkpt lat="43.61633" lon="6.84965">
        <ele>99</ele>
        <time>2013-06-20T16:53:42.000Z</time>
      </trkpt>
      <trkpt lat="43.61634" lon="6.84965">
        <ele>99.400001525879</ele>
        <time>2013-06-20T16:53:43.000Z</time>
      </trkpt>
      <trkpt lat="43.61635" lon="6.84968">
        <ele>100</ele>
        <time>2013-06-20T16:53:45.000Z</time>
      </trkpt>
      <trkpt lat="43.61636" lon="6.84973">
        <ele>100.40000152588</ele>
        <time>2013-06-20T16:53:47.000Z</time>
      </trkpt>
      <trkpt lat="43.61638" lon="6.84978">
        <ele>100.80000305176</ele>
        <time>2013-06-20T16:53:49.000Z</time>
      </trkpt>
      <trkpt lat="43.6165" lon="6.84981">
        <ele>101</ele>
        <time>2013-06-20T16:53:53.000Z</time>
      </trkpt>
      <trkpt lat="43.61657" lon="6.84986">
        <ele>101.40000152588</ele>
        <time>2013-06-20T16:53:57.000Z</time>
      </trkpt>
      <trkpt lat="43.61669" lon="6.84998">
        <ele>102</ele>
        <time>2013-06-20T16:54:03.000Z</time>
      </trkpt>
      <trkpt lat="43.61673" lon="6.85">
        <ele>102.40000152588</ele>
        <time>2013-06-20T16:54:05.000Z</time>
      </trkpt>
      <trkpt lat="43.61675" lon="6.85003">
        <ele>102.40000152588</ele>
        <time>2013-06-20T16:54:06.000Z</time>
      </trkpt>
      <trkpt lat="43.61678" lon="6.85008">
        <ele>103</ele>
        <time>2013-06-20T16:54:08.000Z</time>
      </trkpt>
      <trkpt lat="43.61683" lon="6.85014">
        <ele>103.40000152588</ele>
        <time>2013-06-20T16:54:10.000Z</time>
      </trkpt>
      <trkpt lat="43.61688" lon="6.85019">
        <ele>104</ele>
        <time>2013-06-20T16:54:12.000Z</time>
      </trkpt>
      <trkpt lat="43.61691" lon="6.8502">
        <ele>104</ele>
        <time>2013-06-20T16:54:13.000Z</time>
      </trkpt>
      <trkpt lat="43.61693" lon="6.85022">
        <ele>104.40000152588</ele>
        <time>2013-06-20T16:54:14.000Z</time>
      </trkpt>
      <trkpt lat="43.61698" lon="6.85027">
        <ele>104.80000305176</ele>
        <time>2013-06-20T16:54:16.000Z</time>
      </trkpt>
      <trkpt lat="43.61708" lon="6.85036">
        <ele>105</ele>
        <time>2013-06-20T16:54:18.000Z</time>
      </trkpt>
      <trkpt lat="43.61727" lon="6.85045">
        <ele>105.40000152588</ele>
        <time>2013-06-20T16:54:22.000Z</time>
      </trkpt>
      <trkpt lat="43.61735" lon="6.85043">
        <ele>105.40000152588</ele>
        <time>2013-06-20T16:54:24.000Z</time>
      </trkpt>
      <trkpt lat="43.61749" lon="6.85029">
        <ele>105.80000305176</ele>
        <time>2013-06-20T16:54:28.000Z</time>
      </trkpt>
      <trkpt lat="43.61756" lon="6.85026">
        <ele>106</ele>
        <time>2013-06-20T16:54:31.000Z</time>
      </trkpt>
      <trkpt lat="43.6177" lon="6.8502">
        <ele>106</ele>
        <time>2013-06-20T16:54:35.000Z</time>
      </trkpt>
      <trkpt lat="43.6177" lon="6.85018">
        <ele>106</ele>
        <time>2013-06-20T16:54:39.000Z</time>
      </trkpt>
      <trkpt lat="43.61769" lon="6.8502">
        <ele>106.40000152588</ele>
        <time>2013-06-20T16:54:40.000Z</time>
      </trkpt>
      <trkpt lat="43.6177" lon="6.85021">
        <ele>106.80000305176</ele>
        <time>2013-06-20T16:54:42.000Z</time>
      </trkpt>
      <trkpt lat="43.61771" lon="6.8502">
        <ele>107</ele>
        <time>2013-06-20T16:54:44.000Z</time>
      </trkpt>
      <trkpt lat="43.61771" lon="6.85018">
        <ele>107.40000152588</ele>
        <time>2013-06-20T16:54:46.000Z</time>
      </trkpt>
      <trkpt lat="43.61772" lon="6.85017">
        <ele>107.80000305176</ele>
        <time>2013-06-20T16:54:48.000Z</time>
      </trkpt>
      <trkpt lat="43.61774" lon="6.85017">
        <ele>108</ele>
        <time>2013-06-20T16:54:51.000Z</time>
      </trkpt>
      <trkpt lat="43.61775" lon="6.85019">
        <ele>109</ele>
        <time>2013-06-20T16:54:55.000Z</time>
      </trkpt>
      <trkpt lat="43.61779" lon="6.85023">
        <ele>109</ele>
        <time>2013-06-20T16:54:56.000Z</time>
      </trkpt>
      <trkpt lat="43.61789" lon="6.85025">
        <ele>109.40000152588</ele>
        <time>2013-06-20T16:54:59.000Z</time>
      </trkpt>
      <trkpt lat="43.61793" lon="6.85025">
        <ele>109.80000305176</ele>
        <time>2013-06-20T16:55:01.000Z</time>
      </trkpt>
      <trkpt lat="43.61797" lon="6.8503">
        <ele>110</ele>
        <time>2013-06-20T16:55:03.000Z</time>
      </trkpt>
      <trkpt lat="43.61803" lon="6.85033">
        <ele>110.40000152588</ele>
        <time>2013-06-20T16:55:06.000Z</time>
      </trkpt>
      <trkpt lat="43.61804" lon="6.85034">
        <ele>110.40000152588</ele>
        <time>2013-06-20T16:55:07.000Z</time>
      </trkpt>
      <trkpt lat="43.6181" lon="6.85036">
        <ele>111.40000152588</ele>
        <time>2013-06-20T16:55:10.000Z</time>
      </trkpt>
      <trkpt lat="43.61815" lon="6.85034">
        <ele>111.40000152588</ele>
        <time>2013-06-20T16:55:12.000Z</time>
      </trkpt>
      <trkpt lat="43.61818" lon="6.85031">
        <ele>112</ele>
        <time>2013-06-20T16:55:13.000Z</time>
      </trkpt>
      <trkpt lat="43.61822" lon="6.85027">
        <ele>112.40000152588</ele>
        <time>2013-06-20T16:55:15.000Z</time>
      </trkpt>
      <trkpt lat="43.61824" lon="6.85027">
        <ele>113</ele>
        <time>2013-06-20T16:55:17.000Z</time>
      </trkpt>
      <trkpt lat="43.61827" lon="6.85025">
        <ele>113.40000152588</ele>
        <time>2013-06-20T16:55:19.000Z</time>
      </trkpt>
      <trkpt lat="43.61829" lon="6.85023">
        <ele>113.80000305176</ele>
        <time>2013-06-20T16:55:20.000Z</time>
      </trkpt>
      <trkpt lat="43.61832" lon="6.85022">
        <ele>114.40000152588</ele>
        <time>2013-06-20T16:55:22.000Z</time>
      </trkpt>
      <trkpt lat="43.61835" lon="6.85019">
        <ele>115</ele>
        <time>2013-06-20T16:55:24.000Z</time>
      </trkpt>
      <trkpt lat="43.61838" lon="6.85016">
        <ele>115.40000152588</ele>
        <time>2013-06-20T16:55:26.000Z</time>
      </trkpt>
      <trkpt lat="43.61841" lon="6.85016">
        <ele>115.40000152588</ele>
        <time>2013-06-20T16:55:28.000Z</time>
      </trkpt>
      <trkpt lat="43.61844" lon="6.85015">
        <ele>116</ele>
        <time>2013-06-20T16:55:30.000Z</time>
      </trkpt>
      <trkpt lat="43.61846" lon="6.85015">
        <ele>116.40000152588</ele>
        <time>2013-06-20T16:55:31.000Z</time>
      </trkpt>
      <trkpt lat="43.61851" lon="6.85013">
        <ele>117</ele>
        <time>2013-06-20T16:55:34.000Z</time>
      </trkpt>
      <trkpt lat="43.61852" lon="6.85013">
        <ele>117.40000152588</ele>
        <time>2013-06-20T16:55:35.000Z</time>
      </trkpt>
      <trkpt lat="43.61854" lon="6.85012">
        <ele>117.40000152588</ele>
        <time>2013-06-20T16:55:36.000Z</time>
      </trkpt>
      <trkpt lat="43.61858" lon="6.85012">
        <ele>118</ele>
        <time>2013-06-20T16:55:38.000Z</time>
      </trkpt>
      <trkpt lat="43.61859" lon="6.85012">
        <ele>118</ele>
        <time>2013-06-20T16:55:39.000Z</time>
      </trkpt>
      <trkpt lat="43.61861" lon="6.85012">
        <ele>118.40000152588</ele>
        <time>2013-06-20T16:55:41.000Z</time>
      </trkpt>
      <trkpt lat="43.61864" lon="6.85014">
        <ele>119</ele>
        <time>2013-06-20T16:55:43.000Z</time>
      </trkpt>
      <trkpt lat="43.61866" lon="6.85016">
        <ele>119.40000152588</ele>
        <time>2013-06-20T16:55:45.000Z</time>
      </trkpt>
      <trkpt lat="43.61868" lon="6.85019">
        <ele>120</ele>
        <time>2013-06-20T16:55:47.000Z</time>
      </trkpt>
      <trkpt lat="43.61869" lon="6.85021">
        <ele>120.40000152588</ele>
        <time>2013-06-20T16:55:49.000Z</time>
      </trkpt>
      <trkpt lat="43.6187" lon="6.85022">
        <ele>120.40000152588</ele>
        <time>2013-06-20T16:55:50.000Z</time>
      </trkpt>
      <trkpt lat="43.61871" lon="6.85023">
        <ele>120.80000305176</ele>
        <time>2013-06-20T16:55:51.000Z</time>
      </trkpt>
      <trkpt lat="43.61874" lon="6.85025">
        <ele>121.40000152588</ele>
        <time>2013-06-20T16:55:53.000Z</time>
      </trkpt>
      <trkpt lat="43.61876" lon="6.85027">
        <ele>121.80000305176</ele>
        <time>2013-06-20T16:55:55.000Z</time>
      </trkpt>
      <trkpt lat="43.61877" lon="6.85028">
        <ele>122</ele>
        <time>2013-06-20T16:55:56.000Z</time>
      </trkpt>
      <trkpt lat="43.61878" lon="6.85029">
        <ele>122</ele>
        <time>2013-06-20T16:55:57.000Z</time>
      </trkpt>
      <trkpt lat="43.61878" lon="6.85031">
        <ele>122.40000152588</ele>
        <time>2013-06-20T16:55:59.000Z</time>
      </trkpt>
      <trkpt lat="43.61878" lon="6.85033">
        <ele>122.80000305176</ele>
        <time>2013-06-20T16:56:00.000Z</time>
      </trkpt>
      <trkpt lat="43.61878" lon="6.85036">
        <ele>123</ele>
        <time>2013-06-20T16:56:02.000Z</time>
      </trkpt>
      <trkpt lat="43.61877" lon="6.85039">
        <ele>123.80000305176</ele>
        <time>2013-06-20T16:56:04.000Z</time>
      </trkpt>
      <trkpt lat="43.61877" lon="6.85044">
        <ele>124</ele>
        <time>2013-06-20T16:56:06.000Z</time>
      </trkpt>
      <trkpt lat="43.61879" lon="6.85047">
        <ele>124.40000152588</ele>
        <time>2013-06-20T16:56:08.000Z</time>
      </trkpt>
      <trkpt lat="43.61883" lon="6.85051">
        <ele>125</ele>
        <time>2013-06-20T16:56:12.000Z</time>
      </trkpt>
      <trkpt lat="43.61885" lon="6.85054">
        <ele>125.40000152588</ele>
        <time>2013-06-20T16:56:14.000Z</time>
      </trkpt>
      <trkpt lat="43.61887" lon="6.85057">
        <ele>126</ele>
        <time>2013-06-20T16:56:16.000Z</time>
      </trkpt>
      <trkpt lat="43.61889" lon="6.8506">
        <ele>126.40000152588</ele>
        <time>2013-06-20T16:56:18.000Z</time>
      </trkpt>
      <trkpt lat="43.61891" lon="6.85062">
        <ele>126.80000305176</ele>
        <time>2013-06-20T16:56:20.000Z</time>
      </trkpt>
      <trkpt lat="43.61893" lon="6.85067">
        <ele>127</ele>
        <time>2013-06-20T16:56:23.000Z</time>
      </trkpt>
      <trkpt lat="43.61894" lon="6.85072">
        <ele>127.80000305176</ele>
        <time>2013-06-20T16:56:25.000Z</time>
      </trkpt>
      <trkpt lat="43.61895" lon="6.85076">
        <ele>128.19999694824</ele>
        <time>2013-06-20T16:56:27.000Z</time>
      </trkpt>
      <trkpt lat="43.61897" lon="6.85078">
        <ele>128.60000610352</ele>
        <time>2013-06-20T16:56:29.000Z</time>
      </trkpt>
      <trkpt lat="43.61897" lon="6.85078">
        <ele>128.80000305176</ele>
        <time>2013-06-20T16:56:30.000Z</time>
      </trkpt>
      <trkpt lat="43.61897" lon="6.85077">
        <ele>129.19999694824</ele>
        <time>2013-06-20T16:56:34.000Z</time>
      </trkpt>
      <trkpt lat="43.61901" lon="6.8508">
        <ele>129.19999694824</ele>
        <time>2013-06-20T16:56:36.000Z</time>
      </trkpt>
      <trkpt lat="43.61909" lon="6.85084">
        <ele>130</ele>
        <time>2013-06-20T16:56:39.000Z</time>
      </trkpt>
      <trkpt lat="43.6191" lon="6.85084">
        <ele>130</ele>
        <time>2013-06-20T16:56:40.000Z</time>
      </trkpt>
      <trkpt lat="43.61914" lon="6.85088">
        <ele>130.80000305176</ele>
        <time>2013-06-20T16:56:43.000Z</time>
      </trkpt>
      <trkpt lat="43.61916" lon="6.85089">
        <ele>130.80000305176</ele>
        <time>2013-06-20T16:56:44.000Z</time>
      </trkpt>
      <trkpt lat="43.61923" lon="6.85091">
        <ele>131</ele>
        <time>2013-06-20T16:56:47.000Z</time>
      </trkpt>
      <trkpt lat="43.61935" lon="6.85096">
        <ele>131.80000305176</ele>
        <time>2013-06-20T16:56:53.000Z</time>
      </trkpt>
      <trkpt lat="43.61939" lon="6.85097">
        <ele>132</ele>
        <time>2013-06-20T16:56:55.000Z</time>
      </trkpt>
      <trkpt lat="43.61944" lon="6.85099">
        <ele>132.60000610352</ele>
        <time>2013-06-20T16:56:57.000Z</time>
      </trkpt>
      <trkpt lat="43.61949" lon="6.85099">
        <ele>132.80000305176</ele>
        <time>2013-06-20T16:56:59.000Z</time>
      </trkpt>
      <trkpt lat="43.61951" lon="6.851">
        <ele>133</ele>
        <time>2013-06-20T16:57:01.000Z</time>
      </trkpt>
      <trkpt lat="43.61954" lon="6.85101">
        <ele>133.19999694824</ele>
        <time>2013-06-20T16:57:03.000Z</time>
      </trkpt>
      <trkpt lat="43.61968" lon="6.85105">
        <ele>133.80000305176</ele>
        <time>2013-06-20T16:57:08.000Z</time>
      </trkpt>
      <trkpt lat="43.61977" lon="6.85114">
        <ele>134</ele>
        <time>2013-06-20T16:57:11.000Z</time>
      </trkpt>
      <trkpt lat="43.61988" lon="6.85131">
        <ele>134</ele>
        <time>2013-06-20T16:57:15.000Z</time>
      </trkpt>
      <trkpt lat="43.61994" lon="6.85138">
        <ele>133.60000610352</ele>
        <time>2013-06-20T16:57:17.000Z</time>
      </trkpt>
      <trkpt lat="43.61998" lon="6.85145">
        <ele>133.19999694824</ele>
        <time>2013-06-20T16:57:19.000Z</time>
      </trkpt>
      <trkpt lat="43.62" lon="6.85148">
        <ele>133</ele>
        <time>2013-06-20T16:57:20.000Z</time>
      </trkpt>
      <trkpt lat="43.62004" lon="6.85158">
        <ele>133</ele>
        <time>2013-06-20T16:57:23.000Z</time>
      </trkpt>
      <trkpt lat="43.62013" lon="6.85177">
        <ele>132.60000610352</ele>
        <time>2013-06-20T16:57:29.000Z</time>
      </trkpt>
      <trkpt lat="43.62021" lon="6.85192">
        <ele>132.60000610352</ele>
        <time>2013-06-20T16:57:35.000Z</time>
      </trkpt>
      <trkpt lat="43.62027" lon="6.85208">
        <ele>132.19999694824</ele>
        <time>2013-06-20T16:57:40.000Z</time>
      </trkpt>
      <trkpt lat="43.6203" lon="6.85214">
        <ele>132.60000610352</ele>
        <time>2013-06-20T16:57:42.000Z</time>
      </trkpt>
      <trkpt lat="43.62032" lon="6.85219">
        <ele>133</ele>
        <time>2013-06-20T16:57:44.000Z</time>
      </trkpt>
      <trkpt lat="43.62036" lon="6.85224">
        <ele>133</ele>
        <time>2013-06-20T16:57:46.000Z</time>
      </trkpt>
      <trkpt lat="43.62039" lon="6.85228">
        <ele>133.19999694824</ele>
        <time>2013-06-20T16:57:48.000Z</time>
      </trkpt>
      <trkpt lat="43.62043" lon="6.85232">
        <ele>133.80000305176</ele>
        <time>2013-06-20T16:57:50.000Z</time>
      </trkpt>
      <trkpt lat="43.62047" lon="6.85236">
        <ele>134</ele>
        <time>2013-06-20T16:57:52.000Z</time>
      </trkpt>
      <trkpt lat="43.62049" lon="6.85238">
        <ele>134.19999694824</ele>
        <time>2013-06-20T16:57:53.000Z</time>
      </trkpt>
      <trkpt lat="43.62055" lon="6.85242">
        <ele>135</ele>
        <time>2013-06-20T16:57:56.000Z</time>
      </trkpt>
      <trkpt lat="43.62059" lon="6.85244">
        <ele>135.80000305176</ele>
        <time>2013-06-20T16:57:58.000Z</time>
      </trkpt>
      <trkpt lat="43.6206" lon="6.85246">
        <ele>136</ele>
        <time>2013-06-20T16:57:59.000Z</time>
      </trkpt>
      <trkpt lat="43.62061" lon="6.85247">
        <ele>136</ele>
        <time>2013-06-20T16:58:00.000Z</time>
      </trkpt>
      <trkpt lat="43.62064" lon="6.8525">
        <ele>136.60000610352</ele>
        <time>2013-06-20T16:58:02.000Z</time>
      </trkpt>
      <trkpt lat="43.62066" lon="6.85253">
        <ele>137</ele>
        <time>2013-06-20T16:58:04.000Z</time>
      </trkpt>
      <trkpt lat="43.6207" lon="6.85256">
        <ele>137.60000610352</ele>
        <time>2013-06-20T16:58:09.000Z</time>
      </trkpt>
      <trkpt lat="43.62077" lon="6.85257">
        <ele>137.80000305176</ele>
        <time>2013-06-20T16:58:13.000Z</time>
      </trkpt>
      <trkpt lat="43.62098" lon="6.85256">
        <ele>138</ele>
        <time>2013-06-20T16:58:21.000Z</time>
      </trkpt>
      <trkpt lat="43.621" lon="6.85257">
        <ele>138</ele>
        <time>2013-06-20T16:58:22.000Z</time>
      </trkpt>
      <trkpt lat="43.62107" lon="6.85262">
        <ele>138</ele>
        <time>2013-06-20T16:58:25.000Z</time>
      </trkpt>
      <trkpt lat="43.62109" lon="6.85261">
        <ele>138</ele>
        <time>2013-06-20T16:58:26.000Z</time>
      </trkpt>
      <trkpt lat="43.62116" lon="6.85257">
        <ele>138</ele>
        <time>2013-06-20T16:58:29.000Z</time>
      </trkpt>
      <trkpt lat="43.62123" lon="6.85251">
        <ele>138.19999694824</ele>
        <time>2013-06-20T16:58:33.000Z</time>
      </trkpt>
      <trkpt lat="43.6213" lon="6.85241">
        <ele>138.19999694824</ele>
        <time>2013-06-20T16:58:38.000Z</time>
      </trkpt>
      <trkpt lat="43.6214" lon="6.85226">
        <ele>138.60000610352</ele>
        <time>2013-06-20T16:58:42.000Z</time>
      </trkpt>
      <trkpt lat="43.62144" lon="6.8522">
        <ele>139</ele>
        <time>2013-06-20T16:58:44.000Z</time>
      </trkpt>
      <trkpt lat="43.62148" lon="6.85214">
        <ele>139.19999694824</ele>
        <time>2013-06-20T16:58:46.000Z</time>
      </trkpt>
      <trkpt lat="43.6215" lon="6.85211">
        <ele>139.19999694824</ele>
        <time>2013-06-20T16:58:47.000Z</time>
      </trkpt>
      <trkpt lat="43.62156" lon="6.85205">
        <ele>139.80000305176</ele>
        <time>2013-06-20T16:58:50.000Z</time>
      </trkpt>
      <trkpt lat="43.6216" lon="6.85203">
        <ele>140</ele>
        <time>2013-06-20T16:58:52.000Z</time>
      </trkpt>
      <trkpt lat="43.62164" lon="6.85203">
        <ele>140.60000610352</ele>
        <time>2013-06-20T16:58:54.000Z</time>
      </trkpt>
      <trkpt lat="43.62165" lon="6.85203">
        <ele>140.80000305176</ele>
        <time>2013-06-20T16:58:55.000Z</time>
      </trkpt>
      <trkpt lat="43.6217" lon="6.85204">
        <ele>141.19999694824</ele>
        <time>2013-06-20T16:58:58.000Z</time>
      </trkpt>
      <trkpt lat="43.62171" lon="6.85204">
        <ele>141.60000610352</ele>
        <time>2013-06-20T16:59:00.000Z</time>
      </trkpt>
      <trkpt lat="43.62172" lon="6.85205">
        <ele>141.80000305176</ele>
        <time>2013-06-20T16:59:02.000Z</time>
      </trkpt>
      <trkpt lat="43.62174" lon="6.85201">
        <ele>144.80000305176</ele>
        <time>2013-06-20T16:59:49.000Z</time>
      </trkpt>
      <trkpt lat="43.62174" lon="6.85201">
        <ele>144.80000305176</ele>
        <time>2013-06-20T16:59:50.000Z</time>
      </trkpt>
      <trkpt lat="43.62174" lon="6.85202">
        <ele>144.80000305176</ele>
        <time>2013-06-20T16:59:51.000Z</time>
      </trkpt>
      <trkpt lat="43.62176" lon="6.85204">
        <ele>144.80000305176</ele>
        <time>2013-06-20T16:59:53.000Z</time>
      </trkpt>
      <trkpt lat="43.62182" lon="6.85209">
        <ele>144.80000305176</ele>
        <time>2013-06-20T16:59:56.000Z</time>
      </trkpt>
      <trkpt lat="43.62187" lon="6.85212">
        <ele>145</ele>
        <time>2013-06-20T16:59:58.000Z</time>
      </trkpt>
      <trkpt lat="43.62196" lon="6.85219">
        <ele>145</ele>
        <time>2013-06-20T17:00:02.000Z</time>
      </trkpt>
      <trkpt lat="43.62207" lon="6.8523">
        <ele>145</ele>
        <time>2013-06-20T17:00:07.000Z</time>
      </trkpt>
      <trkpt lat="43.62214" lon="6.8524">
        <ele>145</ele>
        <time>2013-06-20T17:00:11.000Z</time>
      </trkpt>
      <trkpt lat="43.62231" lon="6.85262">
        <ele>145</ele>
        <time>2013-06-20T17:00:16.000Z</time>
      </trkpt>
      <trkpt lat="43.62244" lon="6.85274">
        <ele>145</ele>
        <time>2013-06-20T17:00:21.000Z</time>
      </trkpt>
      <trkpt lat="43.6226" lon="6.85287">
        <ele>145</ele>
        <time>2013-06-20T17:00:27.000Z</time>
      </trkpt>
      <trkpt lat="43.62272" lon="6.85302">
        <ele>145</ele>
        <time>2013-06-20T17:00:32.000Z</time>
      </trkpt>
      <trkpt lat="43.62278" lon="6.85311">
        <ele>145</ele>
        <time>2013-06-20T17:00:35.000Z</time>
      </trkpt>
      <trkpt lat="43.62283" lon="6.85321">
        <ele>145</ele>
        <time>2013-06-20T17:00:40.000Z</time>
      </trkpt>
      <trkpt lat="43.62286" lon="6.85323">
        <ele>145</ele>
        <time>2013-06-20T17:00:43.000Z</time>
      </trkpt>
      <trkpt lat="43.62292" lon="6.85331">
        <ele>145</ele>
        <time>2013-06-20T17:00:49.000Z</time>
      </trkpt>
      <trkpt lat="43.62293" lon="6.85333">
        <ele>145</ele>
        <time>2013-06-20T17:00:50.000Z</time>
      </trkpt>
      <trkpt lat="43.62294" lon="6.85338">
        <ele>145</ele>
        <time>2013-06-20T17:00:54.000Z</time>
      </trkpt>
      <trkpt lat="43.62295" lon="6.85341">
        <ele>145</ele>
        <time>2013-06-20T17:00:57.000Z</time>
      </trkpt>
      <trkpt lat="43.62296" lon="6.85342">
        <ele>145</ele>
        <time>2013-06-20T17:00:58.000Z</time>
      </trkpt>
      <trkpt lat="43.62297" lon="6.85341">
        <ele>145</ele>
        <time>2013-06-20T17:01:00.000Z</time>
      </trkpt>
      <trkpt lat="43.62303" lon="6.85343">
        <ele>145</ele>
        <time>2013-06-20T17:01:02.000Z</time>
      </trkpt>
      <trkpt lat="43.62315" lon="6.85353">
        <ele>145</ele>
        <time>2013-06-20T17:01:07.000Z</time>
      </trkpt>
      <trkpt lat="43.6232" lon="6.85358">
        <ele>145.60000610352</ele>
        <time>2013-06-20T17:01:09.000Z</time>
      </trkpt>
      <trkpt lat="43.62323" lon="6.85361">
        <ele>145.80000305176</ele>
        <time>2013-06-20T17:01:11.000Z</time>
      </trkpt>
      <trkpt lat="43.62325" lon="6.85363">
        <ele>146</ele>
        <time>2013-06-20T17:01:13.000Z</time>
      </trkpt>
      <trkpt lat="43.62325" lon="6.85364">
        <ele>146.19999694824</ele>
        <time>2013-06-20T17:01:14.000Z</time>
      </trkpt>
      <trkpt lat="43.62326" lon="6.85366">
        <ele>147</ele>
        <time>2013-06-20T17:01:18.000Z</time>
      </trkpt>
      <trkpt lat="43.62326" lon="6.85367">
        <ele>147.60000610352</ele>
        <time>2013-06-20T17:01:19.000Z</time>
      </trkpt>
      <trkpt lat="43.62326" lon="6.85368">
        <ele>148</ele>
        <time>2013-06-20T17:01:21.000Z</time>
      </trkpt>
      <trkpt lat="43.62326" lon="6.8537">
        <ele>148.60000610352</ele>
        <time>2013-06-20T17:01:23.000Z</time>
      </trkpt>
      <trkpt lat="43.62326" lon="6.85371">
        <ele>149</ele>
        <time>2013-06-20T17:01:25.000Z</time>
      </trkpt>
      <trkpt lat="43.62326" lon="6.85372">
        <ele>149.60000610352</ele>
        <time>2013-06-20T17:01:27.000Z</time>
      </trkpt>
      <trkpt lat="43.62327" lon="6.85373">
        <ele>150</ele>
        <time>2013-06-20T17:01:29.000Z</time>
      </trkpt>
      <trkpt lat="43.62329" lon="6.85374">
        <ele>150</ele>
        <time>2013-06-20T17:01:31.000Z</time>
      </trkpt>
      <trkpt lat="43.62331" lon="6.85377">
        <ele>150.60000610352</ele>
        <time>2013-06-20T17:01:33.000Z</time>
      </trkpt>
      <trkpt lat="43.62335" lon="6.85382">
        <ele>151.19999694824</ele>
        <time>2013-06-20T17:01:36.000Z</time>
      </trkpt>
      <trkpt lat="43.62336" lon="6.85384">
        <ele>151.60000610352</ele>
        <time>2013-06-20T17:01:37.000Z</time>
      </trkpt>
      <trkpt lat="43.62339" lon="6.8539">
        <ele>152</ele>
        <time>2013-06-20T17:01:40.000Z</time>
      </trkpt>
      <trkpt lat="43.6234" lon="6.85393">
        <ele>152.19999694824</ele>
        <time>2013-06-20T17:01:41.000Z</time>
      </trkpt>
      <trkpt lat="43.62341" lon="6.85395">
        <ele>152.60000610352</ele>
        <time>2013-06-20T17:01:42.000Z</time>
      </trkpt>
      <trkpt lat="43.62342" lon="6.85397">
        <ele>152.80000305176</ele>
        <time>2013-06-20T17:01:43.000Z</time>
      </trkpt>
      <trkpt lat="43.62343" lon="6.85401">
        <ele>153.19999694824</ele>
        <time>2013-06-20T17:01:45.000Z</time>
      </trkpt>
      <trkpt lat="43.62343" lon="6.85406">
        <ele>154</ele>
        <time>2013-06-20T17:01:47.000Z</time>
      </trkpt>
      <trkpt lat="43.62344" lon="6.85407">
        <ele>154</ele>
        <time>2013-06-20T17:01:48.000Z</time>
      </trkpt>
      <trkpt lat="43.62344" lon="6.85409">
        <ele>154.19999694824</ele>
        <time>2013-06-20T17:01:49.000Z</time>
      </trkpt>
      <trkpt lat="43.62345" lon="6.85413">
        <ele>154.60000610352</ele>
        <time>2013-06-20T17:01:51.000Z</time>
      </trkpt>
      <trkpt lat="43.62347" lon="6.85421">
        <ele>155</ele>
        <time>2013-06-20T17:01:55.000Z</time>
      </trkpt>
      <trkpt lat="43.62347" lon="6.85423">
        <ele>155.60000610352</ele>
        <time>2013-06-20T17:01:56.000Z</time>
      </trkpt>
      <trkpt lat="43.62347" lon="6.85424">
        <ele>155.80000305176</ele>
        <time>2013-06-20T17:01:57.000Z</time>
      </trkpt>
      <trkpt lat="43.62348" lon="6.85427">
        <ele>156</ele>
        <time>2013-06-20T17:01:59.000Z</time>
      </trkpt>
      <trkpt lat="43.62348" lon="6.8543">
        <ele>156.60000610352</ele>
        <time>2013-06-20T17:02:01.000Z</time>
      </trkpt>
      <trkpt lat="43.6235" lon="6.85433">
        <ele>156.80000305176</ele>
        <time>2013-06-20T17:02:03.000Z</time>
      </trkpt>
      <trkpt lat="43.6235" lon="6.85435">
        <ele>157</ele>
        <time>2013-06-20T17:02:04.000Z</time>
      </trkpt>
      <trkpt lat="43.62351" lon="6.85438">
        <ele>157.19999694824</ele>
        <time>2013-06-20T17:02:06.000Z</time>
      </trkpt>
      <trkpt lat="43.62352" lon="6.85441">
        <ele>158</ele>
        <time>2013-06-20T17:02:08.000Z</time>
      </trkpt>
      <trkpt lat="43.62352" lon="6.85445">
        <ele>158.19999694824</ele>
        <time>2013-06-20T17:02:10.000Z</time>
      </trkpt>
      <trkpt lat="43.62352" lon="6.85447">
        <ele>158.60000610352</ele>
        <time>2013-06-20T17:02:11.000Z</time>
      </trkpt>
      <trkpt lat="43.62355" lon="6.85452">
        <ele>159</ele>
        <time>2013-06-20T17:02:14.000Z</time>
      </trkpt>
      <trkpt lat="43.62356" lon="6.85456">
        <ele>159</ele>
        <time>2013-06-20T17:02:16.000Z</time>
      </trkpt>
      <trkpt lat="43.62359" lon="6.85462">
        <ele>159.60000610352</ele>
        <time>2013-06-20T17:02:20.000Z</time>
      </trkpt>
      <trkpt lat="43.62362" lon="6.85467">
        <ele>160</ele>
        <time>2013-06-20T17:02:23.000Z</time>
      </trkpt>
      <trkpt lat="43.62363" lon="6.8547">
        <ele>160.60000610352</ele>
        <time>2013-06-20T17:02:25.000Z</time>
      </trkpt>
      <trkpt lat="43.62364" lon="6.85473">
        <ele>161</ele>
        <time>2013-06-20T17:02:27.000Z</time>
      </trkpt>
      <trkpt lat="43.62365" lon="6.85476">
        <ele>161.19999694824</ele>
        <time>2013-06-20T17:02:29.000Z</time>
      </trkpt>
      <trkpt lat="43.62366" lon="6.8548">
        <ele>162</ele>
        <time>2013-06-20T17:02:31.000Z</time>
      </trkpt>
      <trkpt lat="43.62366" lon="6.85481">
        <ele>162</ele>
        <time>2013-06-20T17:02:32.000Z</time>
      </trkpt>
      <trkpt lat="43.62365" lon="6.85484">
        <ele>162.60000610352</ele>
        <time>2013-06-20T17:02:34.000Z</time>
      </trkpt>
      <trkpt lat="43.62365" lon="6.85485">
        <ele>163</ele>
        <time>2013-06-20T17:02:35.000Z</time>
      </trkpt>
      <trkpt lat="43.62363" lon="6.85486">
        <ele>163.80000305176</ele>
        <time>2013-06-20T17:02:37.000Z</time>
      </trkpt>
      <trkpt lat="43.62362" lon="6.85488">
        <ele>164</ele>
        <time>2013-06-20T17:02:39.000Z</time>
      </trkpt>
      <trkpt lat="43.62362" lon="6.85489">
        <ele>165</ele>
        <time>2013-06-20T17:02:41.000Z</time>
      </trkpt>
      <trkpt lat="43.62365" lon="6.85491">
        <ele>165.60000610352</ele>
        <time>2013-06-20T17:02:43.000Z</time>
      </trkpt>
      <trkpt lat="43.62367" lon="6.85493">
        <ele>166</ele>
        <time>2013-06-20T17:02:44.000Z</time>
      </trkpt>
      <trkpt lat="43.62369" lon="6.85492">
        <ele>166</ele>
        <time>2013-06-20T17:02:45.000Z</time>
      </trkpt>
      <trkpt lat="43.62374" lon="6.85492">
        <ele>166.60000610352</ele>
        <time>2013-06-20T17:02:47.000Z</time>
      </trkpt>
      <trkpt lat="43.62378" lon="6.85491">
        <ele>167</ele>
        <time>2013-06-20T17:02:49.000Z</time>
      </trkpt>
      <trkpt lat="43.62383" lon="6.85492">
        <ele>167.19999694824</ele>
        <time>2013-06-20T17:02:52.000Z</time>
      </trkpt>
      <trkpt lat="43.62385" lon="6.85493">
        <ele>167.60000610352</ele>
        <time>2013-06-20T17:02:53.000Z</time>
      </trkpt>
      <trkpt lat="43.62391" lon="6.85494">
        <ele>168</ele>
        <time>2013-06-20T17:02:56.000Z</time>
      </trkpt>
      <trkpt lat="43.62392" lon="6.85493">
        <ele>168.19999694824</ele>
        <time>2013-06-20T17:02:57.000Z</time>
      </trkpt>
      <trkpt lat="43.62393" lon="6.8549">
        <ele>169.19999694824</ele>
        <time>2013-06-20T17:03:03.000Z</time>
      </trkpt>
      <trkpt lat="43.62393" lon="6.85489">
        <ele>169.60000610352</ele>
        <time>2013-06-20T17:03:04.000Z</time>
      </trkpt>
      <trkpt lat="43.62393" lon="6.85489">
        <ele>169.60000610352</ele>
        <time>2013-06-20T17:03:05.000Z</time>
      </trkpt>
      <trkpt lat="43.62393" lon="6.85488">
        <ele>169.80000305176</ele>
        <time>2013-06-20T17:03:07.000Z</time>
      </trkpt>
      <trkpt lat="43.62393" lon="6.85488">
        <ele>170.60000610352</ele>
        <time>2013-06-20T17:03:24.000Z</time>
      </trkpt>
      <trkpt lat="43.62394" lon="6.85489">
        <ele>170.60000610352</ele>
        <time>2013-06-20T17:03:25.000Z</time>
      </trkpt>
      <trkpt lat="43.62395" lon="6.85492">
        <ele>170.60000610352</ele>
        <time>2013-06-20T17:03:28.000Z</time>
      </trkpt>
      <trkpt lat="43.62396" lon="6.85495">
        <ele>170.60000610352</ele>
        <time>2013-06-20T17:03:30.000Z</time>
      </trkpt>
      <trkpt lat="43.62398" lon="6.85494">
        <ele>170.60000610352</ele>
        <time>2013-06-20T17:03:38.000Z</time>
      </trkpt>
      <trkpt lat="43.62398" lon="6.85493">
        <ele>170.60000610352</ele>
        <time>2013-06-20T17:03:39.000Z</time>
      </trkpt>
      <trkpt lat="43.62394" lon="6.85489">
        <ele>170.60000610352</ele>
        <time>2013-06-20T17:03:43.000Z</time>
      </trkpt>
      <trkpt lat="43.62392" lon="6.85489">
        <ele>170.60000610352</ele>
        <time>2013-06-20T17:03:46.000Z</time>
      </trkpt>
      <trkpt lat="43.62393" lon="6.8549">
        <ele>170.60000610352</ele>
        <time>2013-06-20T17:03:52.000Z</time>
      </trkpt>
      <trkpt lat="43.62395" lon="6.85491">
        <ele>170.60000610352</ele>
        <time>2013-06-20T17:03:54.000Z</time>
      </trkpt>
      <trkpt lat="43.62397" lon="6.85492">
        <ele>170.60000610352</ele>
        <time>2013-06-20T17:03:56.000Z</time>
      </trkpt>
      <trkpt lat="43.62399" lon="6.85497">
        <ele>170.60000610352</ele>
        <time>2013-06-20T17:03:58.000Z</time>
      </trkpt>
      <trkpt lat="43.62399" lon="6.85502">
        <ele>170.80000305176</ele>
        <time>2013-06-20T17:04:00.000Z</time>
      </trkpt>
      <trkpt lat="43.62399" lon="6.85504">
        <ele>171</ele>
        <time>2013-06-20T17:04:01.000Z</time>
      </trkpt>
      <trkpt lat="43.624" lon="6.85505">
        <ele>171</ele>
        <time>2013-06-20T17:04:02.000Z</time>
      </trkpt>
      <trkpt lat="43.62399" lon="6.85507">
        <ele>171.80000305176</ele>
        <time>2013-06-20T17:04:04.000Z</time>
      </trkpt>
      <trkpt lat="43.62399" lon="6.85509">
        <ele>172.19999694824</ele>
        <time>2013-06-20T17:04:06.000Z</time>
      </trkpt>
      <trkpt lat="43.62399" lon="6.8551">
        <ele>172.60000610352</ele>
        <time>2013-06-20T17:04:07.000Z</time>
      </trkpt>
      <trkpt lat="43.624" lon="6.85511">
        <ele>172.80000305176</ele>
        <time>2013-06-20T17:04:08.000Z</time>
      </trkpt>
      <trkpt lat="43.62402" lon="6.85513">
        <ele>173</ele>
        <time>2013-06-20T17:04:10.000Z</time>
      </trkpt>
      <trkpt lat="43.62404" lon="6.85514">
        <ele>173.60000610352</ele>
        <time>2013-06-20T17:04:12.000Z</time>
      </trkpt>
      <trkpt lat="43.62412" lon="6.85516">
        <ele>174</ele>
        <time>2013-06-20T17:04:18.000Z</time>
      </trkpt>
      <trkpt lat="43.62413" lon="6.85516">
        <ele>174</ele>
        <time>2013-06-20T17:04:19.000Z</time>
      </trkpt>
      <trkpt lat="43.62418" lon="6.85514">
        <ele>174.80000305176</ele>
        <time>2013-06-20T17:04:22.000Z</time>
      </trkpt>
      <trkpt lat="43.62419" lon="6.85514">
        <ele>175</ele>
        <time>2013-06-20T17:04:23.000Z</time>
      </trkpt>
      <trkpt lat="43.6242" lon="6.85514">
        <ele>175</ele>
        <time>2013-06-20T17:04:24.000Z</time>
      </trkpt>
      <trkpt lat="43.62421" lon="6.85513">
        <ele>175.19999694824</ele>
        <time>2013-06-20T17:04:25.000Z</time>
      </trkpt>
      <trkpt lat="43.62421" lon="6.85513">
        <ele>176.80000305176</ele>
        <time>2013-06-20T17:04:40.000Z</time>
      </trkpt>
      <trkpt lat="43.62421" lon="6.85513">
        <ele>176.80000305176</ele>
        <time>2013-06-20T17:04:41.000Z</time>
      </trkpt>
      <trkpt lat="43.62422" lon="6.85512">
        <ele>176.80000305176</ele>
        <time>2013-06-20T17:04:42.000Z</time>
      </trkpt>
      <trkpt lat="43.62422" lon="6.85512">
        <ele>176.80000305176</ele>
        <time>2013-06-20T17:04:44.000Z</time>
      </trkpt>
      <trkpt lat="43.62424" lon="6.85513">
        <ele>176.80000305176</ele>
        <time>2013-06-20T17:04:45.000Z</time>
      </trkpt>
      <trkpt lat="43.62425" lon="6.85513">
        <ele>177</ele>
        <time>2013-06-20T17:04:47.000Z</time>
      </trkpt>
      <trkpt lat="43.62426" lon="6.85514">
        <ele>177</ele>
        <time>2013-06-20T17:04:49.000Z</time>
      </trkpt>
      <trkpt lat="43.6243" lon="6.85515">
        <ele>177</ele>
        <time>2013-06-20T17:04:53.000Z</time>
      </trkpt>
      <trkpt lat="43.62442" lon="6.85522">
        <ele>177</ele>
        <time>2013-06-20T17:04:58.000Z</time>
      </trkpt>
      <trkpt lat="43.62452" lon="6.85527">
        <ele>177</ele>
        <time>2013-06-20T17:05:03.000Z</time>
      </trkpt>
      <trkpt lat="43.62457" lon="6.85536">
        <ele>177</ele>
        <time>2013-06-20T17:05:07.000Z</time>
      </trkpt>
      <trkpt lat="43.6246" lon="6.85575">
        <ele>177</ele>
        <time>2013-06-20T17:05:17.000Z</time>
      </trkpt>
      <trkpt lat="43.6246" lon="6.85592">
        <ele>177.19999694824</ele>
        <time>2013-06-20T17:05:22.000Z</time>
      </trkpt>
      <trkpt lat="43.6246" lon="6.85594">
        <ele>177.60000610352</ele>
        <time>2013-06-20T17:05:23.000Z</time>
      </trkpt>
      <trkpt lat="43.62461" lon="6.85596">
        <ele>177.60000610352</ele>
        <time>2013-06-20T17:05:24.000Z</time>
      </trkpt>
      <trkpt lat="43.62463" lon="6.85599">
        <ele>178</ele>
        <time>2013-06-20T17:05:26.000Z</time>
      </trkpt>
      <trkpt lat="43.62466" lon="6.85602">
        <ele>178</ele>
        <time>2013-06-20T17:05:28.000Z</time>
      </trkpt>
      <trkpt lat="43.62471" lon="6.85605">
        <ele>178.19999694824</ele>
        <time>2013-06-20T17:05:30.000Z</time>
      </trkpt>
      <trkpt lat="43.62485" lon="6.85612">
        <ele>178.80000305176</ele>
        <time>2013-06-20T17:05:36.000Z</time>
      </trkpt>
      <trkpt lat="43.6251" lon="6.85605">
        <ele>179</ele>
        <time>2013-06-20T17:05:44.000Z</time>
      </trkpt>
      <trkpt lat="43.62514" lon="6.85605">
        <ele>179</ele>
        <time>2013-06-20T17:05:45.000Z</time>
      </trkpt>
      <trkpt lat="43.62521" lon="6.8561">
        <ele>179.19999694824</ele>
        <time>2013-06-20T17:05:48.000Z</time>
      </trkpt>
      <trkpt lat="43.62524" lon="6.85618">
        <ele>179.80000305176</ele>
        <time>2013-06-20T17:05:50.000Z</time>
      </trkpt>
      <trkpt lat="43.62526" lon="6.85628">
        <ele>180</ele>
        <time>2013-06-20T17:05:52.000Z</time>
      </trkpt>
      <trkpt lat="43.62526" lon="6.85633">
        <ele>180</ele>
        <time>2013-06-20T17:05:53.000Z</time>
      </trkpt>
      <trkpt lat="43.62528" lon="6.85647">
        <ele>180.19999694824</ele>
        <time>2013-06-20T17:05:56.000Z</time>
      </trkpt>
      <trkpt lat="43.62526" lon="6.85674">
        <ele>181</ele>
        <time>2013-06-20T17:06:02.000Z</time>
      </trkpt>
      <trkpt lat="43.6252" lon="6.857">
        <ele>181.19999694824</ele>
        <time>2013-06-20T17:06:08.000Z</time>
      </trkpt>
      <trkpt lat="43.62519" lon="6.85708">
        <ele>181.80000305176</ele>
        <time>2013-06-20T17:06:10.000Z</time>
      </trkpt>
      <trkpt lat="43.62518" lon="6.85718">
        <ele>182</ele>
        <time>2013-06-20T17:06:12.000Z</time>
      </trkpt>
      <trkpt lat="43.62516" lon="6.85727">
        <ele>182.19999694824</ele>
        <time>2013-06-20T17:06:14.000Z</time>
      </trkpt>
      <trkpt lat="43.62515" lon="6.85737">
        <ele>182.60000610352</ele>
        <time>2013-06-20T17:06:16.000Z</time>
      </trkpt>
      <trkpt lat="43.62509" lon="6.85769">
        <ele>183</ele>
        <time>2013-06-20T17:06:23.000Z</time>
      </trkpt>
      <trkpt lat="43.62508" lon="6.85788">
        <ele>183.19999694824</ele>
        <time>2013-06-20T17:06:27.000Z</time>
      </trkpt>
      <trkpt lat="43.62508" lon="6.85798">
        <ele>184</ele>
        <time>2013-06-20T17:06:29.000Z</time>
      </trkpt>
      <trkpt lat="43.62508" lon="6.85808">
        <ele>184</ele>
        <time>2013-06-20T17:06:31.000Z</time>
      </trkpt>
      <trkpt lat="43.62509" lon="6.85817">
        <ele>184.60000610352</ele>
        <time>2013-06-20T17:06:33.000Z</time>
      </trkpt>
      <trkpt lat="43.62512" lon="6.85827">
        <ele>184.80000305176</ele>
        <time>2013-06-20T17:06:35.000Z</time>
      </trkpt>
      <trkpt lat="43.62516" lon="6.85854">
        <ele>185</ele>
        <time>2013-06-20T17:06:41.000Z</time>
      </trkpt>
      <trkpt lat="43.62518" lon="6.85882">
        <ele>185.19999694824</ele>
        <time>2013-06-20T17:06:47.000Z</time>
      </trkpt>
      <trkpt lat="43.62519" lon="6.85902">
        <ele>185.80000305176</ele>
        <time>2013-06-20T17:06:51.000Z</time>
      </trkpt>
      <trkpt lat="43.6252" lon="6.85912">
        <ele>186</ele>
        <time>2013-06-20T17:06:53.000Z</time>
      </trkpt>
      <trkpt lat="43.62521" lon="6.85922">
        <ele>186.19999694824</ele>
        <time>2013-06-20T17:06:55.000Z</time>
      </trkpt>
      <trkpt lat="43.62523" lon="6.85931">
        <ele>186.80000305176</ele>
        <time>2013-06-20T17:06:57.000Z</time>
      </trkpt>
      <trkpt lat="43.62525" lon="6.8594">
        <ele>187</ele>
        <time>2013-06-20T17:06:59.000Z</time>
      </trkpt>
      <trkpt lat="43.62534" lon="6.85962">
        <ele>187</ele>
        <time>2013-06-20T17:07:04.000Z</time>
      </trkpt>
      <trkpt lat="43.62547" lon="6.85987">
        <ele>187.60000610352</ele>
        <time>2013-06-20T17:07:10.000Z</time>
      </trkpt>
      <trkpt lat="43.6256" lon="6.8601">
        <ele>187.60000610352</ele>
        <time>2013-06-20T17:07:16.000Z</time>
      </trkpt>
      <trkpt lat="43.62564" lon="6.86017">
        <ele>187.80000305176</ele>
        <time>2013-06-20T17:07:18.000Z</time>
      </trkpt>
      <trkpt lat="43.62569" lon="6.86023">
        <ele>188</ele>
        <time>2013-06-20T17:07:20.000Z</time>
      </trkpt>
      <trkpt lat="43.62574" lon="6.86029">
        <ele>188.60000610352</ele>
        <time>2013-06-20T17:07:22.000Z</time>
      </trkpt>
      <trkpt lat="43.62579" lon="6.86035">
        <ele>188.80000305176</ele>
        <time>2013-06-20T17:07:24.000Z</time>
      </trkpt>
      <trkpt lat="43.62584" lon="6.86041">
        <ele>189</ele>
        <time>2013-06-20T17:07:26.000Z</time>
      </trkpt>
      <trkpt lat="43.62589" lon="6.86047">
        <ele>189.19999694824</ele>
        <time>2013-06-20T17:07:28.000Z</time>
      </trkpt>
      <trkpt lat="43.62594" lon="6.86052">
        <ele>189.80000305176</ele>
        <time>2013-06-20T17:07:30.000Z</time>
      </trkpt>
      <trkpt lat="43.62599" lon="6.86058">
        <ele>190</ele>
        <time>2013-06-20T17:07:32.000Z</time>
      </trkpt>
      <trkpt lat="43.62604" lon="6.86063">
        <ele>190.60000610352</ele>
        <time>2013-06-20T17:07:34.000Z</time>
      </trkpt>
      <trkpt lat="43.6261" lon="6.86069">
        <ele>190.80000305176</ele>
        <time>2013-06-20T17:07:36.000Z</time>
      </trkpt>
      <trkpt lat="43.62631" lon="6.86086">
        <ele>191.19999694824</ele>
        <time>2013-06-20T17:07:42.000Z</time>
      </trkpt>
      <trkpt lat="43.62642" lon="6.86092">
        <ele>191.60000610352</ele>
        <time>2013-06-20T17:07:45.000Z</time>
      </trkpt>
      <trkpt lat="43.6265" lon="6.86096">
        <ele>192</ele>
        <time>2013-06-20T17:07:47.000Z</time>
      </trkpt>
      <trkpt lat="43.62657" lon="6.86101">
        <ele>192.19999694824</ele>
        <time>2013-06-20T17:07:49.000Z</time>
      </trkpt>
      <trkpt lat="43.62663" lon="6.86106">
        <ele>192.80000305176</ele>
        <time>2013-06-20T17:07:51.000Z</time>
      </trkpt>
      <trkpt lat="43.62665" lon="6.86108">
        <ele>192.80000305176</ele>
        <time>2013-06-20T17:07:52.000Z</time>
      </trkpt>
      <trkpt lat="43.62668" lon="6.8611">
        <ele>193</ele>
        <time>2013-06-20T17:07:53.000Z</time>
      </trkpt>
      <trkpt lat="43.6267" lon="6.8611">
        <ele>193</ele>
        <time>2013-06-20T17:07:56.000Z</time>
      </trkpt>
      <trkpt lat="43.62666" lon="6.86109">
        <ele>193.19999694824</ele>
        <time>2013-06-20T17:07:59.000Z</time>
      </trkpt>
      <trkpt lat="43.62662" lon="6.86113">
        <ele>193.80000305176</ele>
        <time>2013-06-20T17:08:01.000Z</time>
      </trkpt>
      <trkpt lat="43.62661" lon="6.86116">
        <ele>194</ele>
        <time>2013-06-20T17:08:02.000Z</time>
      </trkpt>
      <trkpt lat="43.62657" lon="6.86126">
        <ele>194.60000610352</ele>
        <time>2013-06-20T17:08:05.000Z</time>
      </trkpt>
      <trkpt lat="43.62656" lon="6.8613">
        <ele>195</ele>
        <time>2013-06-20T17:08:06.000Z</time>
      </trkpt>
      <trkpt lat="43.62654" lon="6.86132">
        <ele>195</ele>
        <time>2013-06-20T17:08:07.000Z</time>
      </trkpt>
      <trkpt lat="43.62651" lon="6.86132">
        <ele>195.60000610352</ele>
        <time>2013-06-20T17:08:08.000Z</time>
      </trkpt>
      <trkpt lat="43.62647" lon="6.86132">
        <ele>196</ele>
        <time>2013-06-20T17:08:10.000Z</time>
      </trkpt>
      <trkpt lat="43.62641" lon="6.86131">
        <ele>196.60000610352</ele>
        <time>2013-06-20T17:08:12.000Z</time>
      </trkpt>
      <trkpt lat="43.62636" lon="6.8613">
        <ele>196.80000305176</ele>
        <time>2013-06-20T17:08:14.000Z</time>
      </trkpt>
      <trkpt lat="43.62634" lon="6.8613">
        <ele>197</ele>
        <time>2013-06-20T17:08:15.000Z</time>
      </trkpt>
      <trkpt lat="43.62621" lon="6.86136">
        <ele>197.60000610352</ele>
        <time>2013-06-20T17:08:20.000Z</time>
      </trkpt>
      <trkpt lat="43.62607" lon="6.86142">
        <ele>198</ele>
        <time>2013-06-20T17:08:26.000Z</time>
      </trkpt>
      <trkpt lat="43.62603" lon="6.86143">
        <ele>198.60000610352</ele>
        <time>2013-06-20T17:08:27.000Z</time>
      </trkpt>
      <trkpt lat="43.62598" lon="6.86144">
        <ele>199</ele>
        <time>2013-06-20T17:08:29.000Z</time>
      </trkpt>
      <trkpt lat="43.62592" lon="6.86145">
        <ele>199</ele>
        <time>2013-06-20T17:08:31.000Z</time>
      </trkpt>
      <trkpt lat="43.62586" lon="6.86146">
        <ele>199.60000610352</ele>
        <time>2013-06-20T17:08:33.000Z</time>
      </trkpt>
      <trkpt lat="43.62568" lon="6.86155">
        <ele>200</ele>
        <time>2013-06-20T17:08:39.000Z</time>
      </trkpt>
      <trkpt lat="43.62563" lon="6.86157">
        <ele>200.19999694824</ele>
        <time>2013-06-20T17:08:41.000Z</time>
      </trkpt>
      <trkpt lat="43.62558" lon="6.8616">
        <ele>200.80000305176</ele>
        <time>2013-06-20T17:08:43.000Z</time>
      </trkpt>
      <trkpt lat="43.62551" lon="6.86163">
        <ele>201</ele>
        <time>2013-06-20T17:08:45.000Z</time>
      </trkpt>
      <trkpt lat="43.62543" lon="6.86166">
        <ele>201.19999694824</ele>
        <time>2013-06-20T17:08:47.000Z</time>
      </trkpt>
      <trkpt lat="43.62537" lon="6.86168">
        <ele>201.60000610352</ele>
        <time>2013-06-20T17:08:48.000Z</time>
      </trkpt>
      <trkpt lat="43.62521" lon="6.86178">
        <ele>202</ele>
        <time>2013-06-20T17:08:51.000Z</time>
      </trkpt>
      <trkpt lat="43.625" lon="6.86206">
        <ele>202</ele>
        <time>2013-06-20T17:08:54.000Z</time>
      </trkpt>
      <trkpt lat="43.62493" lon="6.86222">
        <ele>201.80000305176</ele>
        <time>2013-06-20T17:08:56.000Z</time>
      </trkpt>
      <trkpt lat="43.62494" lon="6.86236">
        <ele>201.60000610352</ele>
        <time>2013-06-20T17:08:57.000Z</time>
      </trkpt>
      <trkpt lat="43.62492" lon="6.86249">
        <ele>201</ele>
        <time>2013-06-20T17:08:58.000Z</time>
      </trkpt>
      <trkpt lat="43.62486" lon="6.86275">
        <ele>200.60000610352</ele>
        <time>2013-06-20T17:09:00.000Z</time>
      </trkpt>
      <trkpt lat="43.62482" lon="6.86285">
        <ele>200</ele>
        <time>2013-06-20T17:09:01.000Z</time>
      </trkpt>
      <trkpt lat="43.6247" lon="6.86285">
        <ele>199.80000305176</ele>
        <time>2013-06-20T17:09:02.000Z</time>
      </trkpt>
      <trkpt lat="43.62458" lon="6.86274">
        <ele>199.19999694824</ele>
        <time>2013-06-20T17:09:03.000Z</time>
      </trkpt>
      <trkpt lat="43.62443" lon="6.86272">
        <ele>198.60000610352</ele>
        <time>2013-06-20T17:09:05.000Z</time>
      </trkpt>
      <trkpt lat="43.62438" lon="6.86271">
        <ele>198.19999694824</ele>
        <time>2013-06-20T17:09:06.000Z</time>
      </trkpt>
      <trkpt lat="43.62433" lon="6.86272">
        <ele>198</ele>
        <time>2013-06-20T17:09:07.000Z</time>
      </trkpt>
      <trkpt lat="43.62423" lon="6.86273">
        <ele>197.80000305176</ele>
        <time>2013-06-20T17:09:09.000Z</time>
      </trkpt>
      <trkpt lat="43.62415" lon="6.86276">
        <ele>197.80000305176</ele>
        <time>2013-06-20T17:09:11.000Z</time>
      </trkpt>
      <trkpt lat="43.62409" lon="6.8628">
        <ele>197.80000305176</ele>
        <time>2013-06-20T17:09:13.000Z</time>
      </trkpt>
      <trkpt lat="43.62402" lon="6.86285">
        <ele>198</ele>
        <time>2013-06-20T17:09:15.000Z</time>
      </trkpt>
      <trkpt lat="43.62395" lon="6.86288">
        <ele>198.19999694824</ele>
        <time>2013-06-20T17:09:17.000Z</time>
      </trkpt>
      <trkpt lat="43.62389" lon="6.86291">
        <ele>198.60000610352</ele>
        <time>2013-06-20T17:09:19.000Z</time>
      </trkpt>
      <trkpt lat="43.62383" lon="6.86294">
        <ele>199</ele>
        <time>2013-06-20T17:09:21.000Z</time>
      </trkpt>
      <trkpt lat="43.6238" lon="6.86297">
        <ele>199</ele>
        <time>2013-06-20T17:09:22.000Z</time>
      </trkpt>
      <trkpt lat="43.62375" lon="6.86302">
        <ele>199.80000305176</ele>
        <time>2013-06-20T17:09:24.000Z</time>
      </trkpt>
      <trkpt lat="43.62369" lon="6.86307">
        <ele>200</ele>
        <time>2013-06-20T17:09:26.000Z</time>
      </trkpt>
      <trkpt lat="43.62363" lon="6.86312">
        <ele>200.60000610352</ele>
        <time>2013-06-20T17:09:28.000Z</time>
      </trkpt>
      <trkpt lat="43.6236" lon="6.86314">
        <ele>200.80000305176</ele>
        <time>2013-06-20T17:09:29.000Z</time>
      </trkpt>
      <trkpt lat="43.62353" lon="6.86319">
        <ele>201.19999694824</ele>
        <time>2013-06-20T17:09:31.000Z</time>
      </trkpt>
      <trkpt lat="43.62346" lon="6.86324">
        <ele>202</ele>
        <time>2013-06-20T17:09:33.000Z</time>
      </trkpt>
      <trkpt lat="43.6234" lon="6.86329">
        <ele>202.19999694824</ele>
        <time>2013-06-20T17:09:35.000Z</time>
      </trkpt>
      <trkpt lat="43.62334" lon="6.86334">
        <ele>202.60000610352</ele>
        <time>2013-06-20T17:09:37.000Z</time>
      </trkpt>
      <trkpt lat="43.62321" lon="6.86353">
        <ele>203.19999694824</ele>
        <time>2013-06-20T17:09:42.000Z</time>
      </trkpt>
      <trkpt lat="43.62316" lon="6.86359">
        <ele>204</ele>
        <time>2013-06-20T17:09:44.000Z</time>
      </trkpt>
      <trkpt lat="43.6231" lon="6.86364">
        <ele>204.19999694824</ele>
        <time>2013-06-20T17:09:46.000Z</time>
      </trkpt>
      <trkpt lat="43.62302" lon="6.86366">
        <ele>204.80000305176</ele>
        <time>2013-06-20T17:09:48.000Z</time>
      </trkpt>
      <trkpt lat="43.62292" lon="6.86367">
        <ele>205</ele>
        <time>2013-06-20T17:09:50.000Z</time>
      </trkpt>
      <trkpt lat="43.6228" lon="6.86367">
        <ele>205.60000610352</ele>
        <time>2013-06-20T17:09:53.000Z</time>
      </trkpt>
      <trkpt lat="43.62272" lon="6.86372">
        <ele>206</ele>
        <time>2013-06-20T17:09:55.000Z</time>
      </trkpt>
      <trkpt lat="43.62264" lon="6.86378">
        <ele>206.80000305176</ele>
        <time>2013-06-20T17:09:57.000Z</time>
      </trkpt>
      <trkpt lat="43.62258" lon="6.86384">
        <ele>207.60000610352</ele>
        <time>2013-06-20T17:09:59.000Z</time>
      </trkpt>
      <trkpt lat="43.62252" lon="6.8639">
        <ele>208.19999694824</ele>
        <time>2013-06-20T17:10:01.000Z</time>
      </trkpt>
      <trkpt lat="43.62246" lon="6.86397">
        <ele>209.19999694824</ele>
        <time>2013-06-20T17:10:03.000Z</time>
      </trkpt>
      <trkpt lat="43.6224" lon="6.86402">
        <ele>210</ele>
        <time>2013-06-20T17:10:05.000Z</time>
      </trkpt>
      <trkpt lat="43.62238" lon="6.86405">
        <ele>210.80000305176</ele>
        <time>2013-06-20T17:10:06.000Z</time>
      </trkpt>
      <trkpt lat="43.62232" lon="6.86409">
        <ele>211.60000610352</ele>
        <time>2013-06-20T17:10:08.000Z</time>
      </trkpt>
      <trkpt lat="43.62225" lon="6.86412">
        <ele>212.60000610352</ele>
        <time>2013-06-20T17:10:10.000Z</time>
      </trkpt>
      <trkpt lat="43.62219" lon="6.86414">
        <ele>213.60000610352</ele>
        <time>2013-06-20T17:10:12.000Z</time>
      </trkpt>
      <trkpt lat="43.62212" lon="6.86416">
        <ele>214.19999694824</ele>
        <time>2013-06-20T17:10:14.000Z</time>
      </trkpt>
      <trkpt lat="43.62206" lon="6.86418">
        <ele>215</ele>
        <time>2013-06-20T17:10:16.000Z</time>
      </trkpt>
      <trkpt lat="43.62204" lon="6.8642">
        <ele>215.60000610352</ele>
        <time>2013-06-20T17:10:17.000Z</time>
      </trkpt>
      <trkpt lat="43.622" lon="6.86422">
        <ele>216.19999694824</ele>
        <time>2013-06-20T17:10:19.000Z</time>
      </trkpt>
      <trkpt lat="43.62197" lon="6.86421">
        <ele>217</ele>
        <time>2013-06-20T17:10:21.000Z</time>
      </trkpt>
      <trkpt lat="43.62194" lon="6.86422">
        <ele>217.80000305176</ele>
        <time>2013-06-20T17:10:23.000Z</time>
      </trkpt>
      <trkpt lat="43.62189" lon="6.86424">
        <ele>218</ele>
        <time>2013-06-20T17:10:25.000Z</time>
      </trkpt>
      <trkpt lat="43.62175" lon="6.86431">
        <ele>219</ele>
        <time>2013-06-20T17:10:32.000Z</time>
      </trkpt>
      <trkpt lat="43.62172" lon="6.86433">
        <ele>219.60000610352</ele>
        <time>2013-06-20T17:10:34.000Z</time>
      </trkpt>
      <trkpt lat="43.62167" lon="6.86435">
        <ele>220</ele>
        <time>2013-06-20T17:10:36.000Z</time>
      </trkpt>
      <trkpt lat="43.62163" lon="6.86437">
        <ele>220.60000610352</ele>
        <time>2013-06-20T17:10:38.000Z</time>
      </trkpt>
      <trkpt lat="43.62157" lon="6.86439">
        <ele>221</ele>
        <time>2013-06-20T17:10:40.000Z</time>
      </trkpt>
      <trkpt lat="43.62152" lon="6.86442">
        <ele>221</ele>
        <time>2013-06-20T17:10:42.000Z</time>
      </trkpt>
      <trkpt lat="43.62129" lon="6.86451">
        <ele>222</ele>
        <time>2013-06-20T17:10:51.000Z</time>
      </trkpt>
      <trkpt lat="43.6212" lon="6.86454">
        <ele>222.19999694824</ele>
        <time>2013-06-20T17:10:55.000Z</time>
      </trkpt>
      <trkpt lat="43.62115" lon="6.86455">
        <ele>222.80000305176</ele>
        <time>2013-06-20T17:10:57.000Z</time>
      </trkpt>
      <trkpt lat="43.62111" lon="6.86456">
        <ele>223</ele>
        <time>2013-06-20T17:10:59.000Z</time>
      </trkpt>
      <trkpt lat="43.62107" lon="6.86454">
        <ele>223.19999694824</ele>
        <time>2013-06-20T17:11:01.000Z</time>
      </trkpt>
      <trkpt lat="43.62102" lon="6.86455">
        <ele>223.60000610352</ele>
        <time>2013-06-20T17:11:03.000Z</time>
      </trkpt>
      <trkpt lat="43.62088" lon="6.8646">
        <ele>224</ele>
        <time>2013-06-20T17:11:07.000Z</time>
      </trkpt>
      <trkpt lat="43.62082" lon="6.86463">
        <ele>224.60000610352</ele>
        <time>2013-06-20T17:11:09.000Z</time>
      </trkpt>
      <trkpt lat="43.62076" lon="6.86468">
        <ele>225</ele>
        <time>2013-06-20T17:11:11.000Z</time>
      </trkpt>
      <trkpt lat="43.62072" lon="6.86472">
        <ele>225</ele>
        <time>2013-06-20T17:11:13.000Z</time>
      </trkpt>
      <trkpt lat="43.62068" lon="6.86477">
        <ele>225.60000610352</ele>
        <time>2013-06-20T17:11:15.000Z</time>
      </trkpt>
      <trkpt lat="43.62056" lon="6.86489">
        <ele>226</ele>
        <time>2013-06-20T17:11:20.000Z</time>
      </trkpt>
      <trkpt lat="43.62051" lon="6.86493">
        <ele>226.60000610352</ele>
        <time>2013-06-20T17:11:22.000Z</time>
      </trkpt>
      <trkpt lat="43.62047" lon="6.86498">
        <ele>227</ele>
        <time>2013-06-20T17:11:24.000Z</time>
      </trkpt>
      <trkpt lat="43.62042" lon="6.86503">
        <ele>227.19999694824</ele>
        <time>2013-06-20T17:11:26.000Z</time>
      </trkpt>
      <trkpt lat="43.62037" lon="6.86507">
        <ele>227.60000610352</ele>
        <time>2013-06-20T17:11:28.000Z</time>
      </trkpt>
      <trkpt lat="43.62021" lon="6.86524">
        <ele>228</ele>
        <time>2013-06-20T17:11:33.000Z</time>
      </trkpt>
      <trkpt lat="43.62018" lon="6.86527">
        <ele>228</ele>
        <time>2013-06-20T17:11:34.000Z</time>
      </trkpt>
      <trkpt lat="43.61994" lon="6.86542">
        <ele>228.19999694824</ele>
        <time>2013-06-20T17:11:39.000Z</time>
      </trkpt>
      <trkpt lat="43.61977" lon="6.86549">
        <ele>228</ele>
        <time>2013-06-20T17:11:43.000Z</time>
      </trkpt>
      <trkpt lat="43.61973" lon="6.86552">
        <ele>228</ele>
        <time>2013-06-20T17:11:44.000Z</time>
      </trkpt>
      <trkpt lat="43.61958" lon="6.86561">
        <ele>227.60000610352</ele>
        <time>2013-06-20T17:11:47.000Z</time>
      </trkpt>
      <trkpt lat="43.61953" lon="6.86563">
        <ele>227.60000610352</ele>
        <time>2013-06-20T17:11:48.000Z</time>
      </trkpt>
      <trkpt lat="43.61948" lon="6.86565">
        <ele>227.19999694824</ele>
        <time>2013-06-20T17:11:49.000Z</time>
      </trkpt>
      <trkpt lat="43.61943" lon="6.86566">
        <ele>227.19999694824</ele>
        <time>2013-06-20T17:11:50.000Z</time>
      </trkpt>
      <trkpt lat="43.61927" lon="6.86568">
        <ele>227</ele>
        <time>2013-06-20T17:11:53.000Z</time>
      </trkpt>
      <trkpt lat="43.61901" lon="6.86584">
        <ele>227</ele>
        <time>2013-06-20T17:11:59.000Z</time>
      </trkpt>
      <trkpt lat="43.61873" lon="6.86598">
        <ele>226.80000305176</ele>
        <time>2013-06-20T17:12:05.000Z</time>
      </trkpt>
      <trkpt lat="43.61863" lon="6.86604">
        <ele>226.60000610352</ele>
        <time>2013-06-20T17:12:07.000Z</time>
      </trkpt>
      <trkpt lat="43.61851" lon="6.86611">
        <ele>226</ele>
        <time>2013-06-20T17:12:09.000Z</time>
      </trkpt>
      <trkpt lat="43.6184" lon="6.86617">
        <ele>225.80000305176</ele>
        <time>2013-06-20T17:12:11.000Z</time>
      </trkpt>
      <trkpt lat="43.61829" lon="6.86622">
        <ele>225.60000610352</ele>
        <time>2013-06-20T17:12:13.000Z</time>
      </trkpt>
      <trkpt lat="43.61819" lon="6.86627">
        <ele>225.19999694824</ele>
        <time>2013-06-20T17:12:15.000Z</time>
      </trkpt>
      <trkpt lat="43.61815" lon="6.86629">
        <ele>225.19999694824</ele>
        <time>2013-06-20T17:12:16.000Z</time>
      </trkpt>
      <trkpt lat="43.61793" lon="6.86623">
        <ele>225</ele>
        <time>2013-06-20T17:12:21.000Z</time>
      </trkpt>
      <trkpt lat="43.61784" lon="6.86618">
        <ele>225</ele>
        <time>2013-06-20T17:12:23.000Z</time>
      </trkpt>
      <trkpt lat="43.61764" lon="6.8662">
        <ele>224.80000305176</ele>
        <time>2013-06-20T17:12:28.000Z</time>
      </trkpt>
      <trkpt lat="43.61747" lon="6.8663">
        <ele>224.60000610352</ele>
        <time>2013-06-20T17:12:34.000Z</time>
      </trkpt>
      <trkpt lat="43.61743" lon="6.86633">
        <ele>224.60000610352</ele>
        <time>2013-06-20T17:12:35.000Z</time>
      </trkpt>
      <trkpt lat="43.61715" lon="6.86643">
        <ele>224.60000610352</ele>
        <time>2013-06-20T17:12:41.000Z</time>
      </trkpt>
      <trkpt lat="43.61705" lon="6.86648">
        <ele>224.60000610352</ele>
        <time>2013-06-20T17:12:44.000Z</time>
      </trkpt>
      <trkpt lat="43.61698" lon="6.8665">
        <ele>224.80000305176</ele>
        <time>2013-06-20T17:12:46.000Z</time>
      </trkpt>
      <trkpt lat="43.61691" lon="6.8665">
        <ele>225</ele>
        <time>2013-06-20T17:12:48.000Z</time>
      </trkpt>
      <trkpt lat="43.61685" lon="6.86651">
        <ele>225.19999694824</ele>
        <time>2013-06-20T17:12:50.000Z</time>
      </trkpt>
      <trkpt lat="43.61678" lon="6.86651">
        <ele>225.80000305176</ele>
        <time>2013-06-20T17:12:53.000Z</time>
      </trkpt>
      <trkpt lat="43.61671" lon="6.86651">
        <ele>226</ele>
        <time>2013-06-20T17:12:54.000Z</time>
      </trkpt>
      <trkpt lat="43.61656" lon="6.8665">
        <ele>226</ele>
        <time>2013-06-20T17:12:58.000Z</time>
      </trkpt>
      <trkpt lat="43.61634" lon="6.8664">
        <ele>226.19999694824</ele>
        <time>2013-06-20T17:13:03.000Z</time>
      </trkpt>
      <trkpt lat="43.61628" lon="6.86638">
        <ele>226.19999694824</ele>
        <time>2013-06-20T17:13:04.000Z</time>
      </trkpt>
      <trkpt lat="43.61598" lon="6.86633">
        <ele>226.60000610352</ele>
        <time>2013-06-20T17:13:09.000Z</time>
      </trkpt>
      <trkpt lat="43.61577" lon="6.86635">
        <ele>226.60000610352</ele>
        <time>2013-06-20T17:13:12.000Z</time>
      </trkpt>
      <trkpt lat="43.61555" lon="6.86633">
        <ele>226.60000610352</ele>
        <time>2013-06-20T17:13:18.000Z</time>
      </trkpt>
      <trkpt lat="43.6154" lon="6.86632">
        <ele>226.60000610352</ele>
        <time>2013-06-20T17:13:21.000Z</time>
      </trkpt>
      <trkpt lat="43.61529" lon="6.86634">
        <ele>226.60000610352</ele>
        <time>2013-06-20T17:13:24.000Z</time>
      </trkpt>
      <trkpt lat="43.61521" lon="6.8665">
        <ele>227</ele>
        <time>2013-06-20T17:13:30.000Z</time>
      </trkpt>
      <trkpt lat="43.61516" lon="6.86656">
        <ele>227</ele>
        <time>2013-06-20T17:13:32.000Z</time>
      </trkpt>
      <trkpt lat="43.61512" lon="6.86662">
        <ele>227.60000610352</ele>
        <time>2013-06-20T17:13:33.000Z</time>
      </trkpt>
      <trkpt lat="43.61506" lon="6.86671">
        <ele>227.80000305176</ele>
        <time>2013-06-20T17:13:36.000Z</time>
      </trkpt>
      <trkpt lat="43.61501" lon="6.86678">
        <ele>228</ele>
        <time>2013-06-20T17:13:37.000Z</time>
      </trkpt>
      <trkpt lat="43.61495" lon="6.86687">
        <ele>228.19999694824</ele>
        <time>2013-06-20T17:13:41.000Z</time>
      </trkpt>
      <trkpt lat="43.61492" lon="6.86691">
        <ele>229</ele>
        <time>2013-06-20T17:13:42.000Z</time>
      </trkpt>
      <trkpt lat="43.6149" lon="6.86694">
        <ele>229.19999694824</ele>
        <time>2013-06-20T17:13:43.000Z</time>
      </trkpt>
      <trkpt lat="43.61486" lon="6.86702">
        <ele>230</ele>
        <time>2013-06-20T17:13:45.000Z</time>
      </trkpt>
      <trkpt lat="43.61481" lon="6.86708">
        <ele>230.80000305176</ele>
        <time>2013-06-20T17:13:47.000Z</time>
      </trkpt>
      <trkpt lat="43.61479" lon="6.86711">
        <ele>231</ele>
        <time>2013-06-20T17:13:49.000Z</time>
      </trkpt>
      <trkpt lat="43.61475" lon="6.86717">
        <ele>232</ele>
        <time>2013-06-20T17:13:50.000Z</time>
      </trkpt>
      <trkpt lat="43.61472" lon="6.86723">
        <ele>232.80000305176</ele>
        <time>2013-06-20T17:13:53.000Z</time>
      </trkpt>
      <trkpt lat="43.61468" lon="6.8673">
        <ele>233</ele>
        <time>2013-06-20T17:13:54.000Z</time>
      </trkpt>
      <trkpt lat="43.61464" lon="6.86736">
        <ele>233.60000610352</ele>
        <time>2013-06-20T17:13:56.000Z</time>
      </trkpt>
      <trkpt lat="43.61459" lon="6.86741">
        <ele>234.19999694824</ele>
        <time>2013-06-20T17:14:00.000Z</time>
      </trkpt>
      <trkpt lat="43.61456" lon="6.86746">
        <ele>235</ele>
        <time>2013-06-20T17:14:01.000Z</time>
      </trkpt>
      <trkpt lat="43.61453" lon="6.8675">
        <ele>235.60000610352</ele>
        <time>2013-06-20T17:14:03.000Z</time>
      </trkpt>
      <trkpt lat="43.61449" lon="6.86755">
        <ele>236</ele>
        <time>2013-06-20T17:14:05.000Z</time>
      </trkpt>
      <trkpt lat="43.61444" lon="6.86763">
        <ele>236.60000610352</ele>
        <time>2013-06-20T17:14:08.000Z</time>
      </trkpt>
      <trkpt lat="43.6144" lon="6.86768">
        <ele>237</ele>
        <time>2013-06-20T17:14:10.000Z</time>
      </trkpt>
      <trkpt lat="43.61438" lon="6.86773">
        <ele>237.80000305176</ele>
        <time>2013-06-20T17:14:13.000Z</time>
      </trkpt>
      <trkpt lat="43.61435" lon="6.86776">
        <ele>238</ele>
        <time>2013-06-20T17:14:14.000Z</time>
      </trkpt>
      <trkpt lat="43.61431" lon="6.8678">
        <ele>239</ele>
        <time>2013-06-20T17:14:17.000Z</time>
      </trkpt>
      <trkpt lat="43.61428" lon="6.86783">
        <ele>239.60000610352</ele>
        <time>2013-06-20T17:14:19.000Z</time>
      </trkpt>
      <trkpt lat="43.61426" lon="6.86785">
        <ele>240</ele>
        <time>2013-06-20T17:14:20.000Z</time>
      </trkpt>
      <trkpt lat="43.61421" lon="6.86792">
        <ele>240.60000610352</ele>
        <time>2013-06-20T17:14:23.000Z</time>
      </trkpt>
      <trkpt lat="43.61417" lon="6.86796">
        <ele>241</ele>
        <time>2013-06-20T17:14:26.000Z</time>
      </trkpt>
      <trkpt lat="43.6141" lon="6.868">
        <ele>241.19999694824</ele>
        <time>2013-06-20T17:14:29.000Z</time>
      </trkpt>
      <trkpt lat="43.61396" lon="6.86808">
        <ele>242</ele>
        <time>2013-06-20T17:14:37.000Z</time>
      </trkpt>
      <trkpt lat="43.61384" lon="6.86816">
        <ele>242</ele>
        <time>2013-06-20T17:14:41.000Z</time>
      </trkpt>
      <trkpt lat="43.61378" lon="6.86822">
        <ele>242</ele>
        <time>2013-06-20T17:14:43.000Z</time>
      </trkpt>
      <trkpt lat="43.61367" lon="6.86832">
        <ele>242.19999694824</ele>
        <time>2013-06-20T17:14:46.000Z</time>
      </trkpt>
      <trkpt lat="43.61356" lon="6.86852">
        <ele>242.19999694824</ele>
        <time>2013-06-20T17:14:51.000Z</time>
      </trkpt>
      <trkpt lat="43.61354" lon="6.86856">
        <ele>242.19999694824</ele>
        <time>2013-06-20T17:14:56.000Z</time>
      </trkpt>
      <trkpt lat="43.61352" lon="6.86861">
        <ele>242.19999694824</ele>
        <time>2013-06-20T17:14:58.000Z</time>
      </trkpt>
      <trkpt lat="43.61345" lon="6.86868">
        <ele>242.19999694824</ele>
        <time>2013-06-20T17:15:04.000Z</time>
      </trkpt>
      <trkpt lat="43.61345" lon="6.8687">
        <ele>242.19999694824</ele>
        <time>2013-06-20T17:15:11.000Z</time>
      </trkpt>
      <trkpt lat="43.61344" lon="6.8687">
        <ele>242.19999694824</ele>
        <time>2013-06-20T17:15:13.000Z</time>
      </trkpt>
      <trkpt lat="43.61344" lon="6.86873">
        <ele>242.19999694824</ele>
        <time>2013-06-20T17:15:20.000Z</time>
      </trkpt>
      <trkpt lat="43.61345" lon="6.86874">
        <ele>242.19999694824</ele>
        <time>2013-06-20T17:15:32.000Z</time>
      </trkpt>
      <trkpt lat="43.61345" lon="6.86875">
        <ele>242.19999694824</ele>
        <time>2013-06-20T17:15:33.000Z</time>
      </trkpt>
      <trkpt lat="43.61345" lon="6.86883">
        <ele>242.19999694824</ele>
        <time>2013-06-20T17:15:43.000Z</time>
      </trkpt>
      <trkpt lat="43.61345" lon="6.86883">
        <ele>242.19999694824</ele>
        <time>2013-06-20T17:16:02.000Z</time>
      </trkpt>
      <trkpt lat="43.61345" lon="6.86883">
        <ele>242.19999694824</ele>
        <time>2013-06-20T17:16:04.000Z</time>
      </trkpt>
      <trkpt lat="43.61346" lon="6.86885">
        <ele>242.19999694824</ele>
        <time>2013-06-20T17:16:06.000Z</time>
      </trkpt>
      <trkpt lat="43.61346" lon="6.86885">
        <ele>242.19999694824</ele>
        <time>2013-06-20T17:16:10.000Z</time>
      </trkpt>
      <trkpt lat="43.61345" lon="6.86885">
        <ele>242.19999694824</ele>
        <time>2013-06-20T17:16:12.000Z</time>
      </trkpt>
      <trkpt lat="43.61344" lon="6.86885">
        <ele>242.19999694824</ele>
        <time>2013-06-20T17:16:37.000Z</time>
      </trkpt>
      <trkpt lat="43.61343" lon="6.86886">
        <ele>242.19999694824</ele>
        <time>2013-06-20T17:16:39.000Z</time>
      </trkpt>
      <trkpt lat="43.61342" lon="6.86887">
        <ele>242.19999694824</ele>
        <time>2013-06-20T17:16:41.000Z</time>
      </trkpt>
      <trkpt lat="43.61333" lon="6.86896">
        <ele>242.19999694824</ele>
        <time>2013-06-20T17:16:49.000Z</time>
      </trkpt>
      <trkpt lat="43.61321" lon="6.86905">
        <ele>242.19999694824</ele>
        <time>2013-06-20T17:16:53.000Z</time>
      </trkpt>
      <trkpt lat="43.61313" lon="6.86908">
        <ele>242.19999694824</ele>
        <time>2013-06-20T17:16:56.000Z</time>
      </trkpt>
      <trkpt lat="43.61304" lon="6.86908">
        <ele>242.19999694824</ele>
        <time>2013-06-20T17:17:00.000Z</time>
      </trkpt>
      <trkpt lat="43.61305" lon="6.86909">
        <ele>242.19999694824</ele>
        <time>2013-06-20T17:17:04.000Z</time>
      </trkpt>
      <trkpt lat="43.61305" lon="6.86909">
        <ele>242.19999694824</ele>
        <time>2013-06-20T17:17:06.000Z</time>
      </trkpt>
      <trkpt lat="43.613" lon="6.8691">
        <ele>242.19999694824</ele>
        <time>2013-06-20T17:17:52.000Z</time>
      </trkpt>
      <trkpt lat="43.61299" lon="6.86907">
        <ele>242.19999694824</ele>
        <time>2013-06-20T17:17:56.000Z</time>
      </trkpt>
      <trkpt lat="43.61301" lon="6.86905">
        <ele>242.19999694824</ele>
        <time>2013-06-20T17:18:03.000Z</time>
      </trkpt>
      <trkpt lat="43.61301" lon="6.86909">
        <ele>244.60000610352</ele>
        <time>2013-06-20T17:20:45.000Z</time>
      </trkpt>
      <trkpt lat="43.613" lon="6.86912">
        <ele>244.60000610352</ele>
        <time>2013-06-20T17:20:47.000Z</time>
      </trkpt>
      <trkpt lat="43.613" lon="6.86916">
        <ele>244.60000610352</ele>
        <time>2013-06-20T17:20:48.000Z</time>
      </trkpt>
      <trkpt lat="43.61296" lon="6.86941">
        <ele>244.19999694824</ele>
        <time>2013-06-20T17:20:49.000Z</time>
      </trkpt>
      <trkpt lat="43.61295" lon="6.86954">
        <ele>243.80000305176</ele>
        <time>2013-06-20T17:20:51.000Z</time>
      </trkpt>
      <trkpt lat="43.6129" lon="6.86973">
        <ele>242.80000305176</ele>
        <time>2013-06-20T17:20:53.000Z</time>
      </trkpt>
      <trkpt lat="43.61288" lon="6.86987">
        <ele>240.80000305176</ele>
        <time>2013-06-20T17:20:56.000Z</time>
      </trkpt>
      <trkpt lat="43.61286" lon="6.86994">
        <ele>239.80000305176</ele>
        <time>2013-06-20T17:20:57.000Z</time>
      </trkpt>
      <trkpt lat="43.61283" lon="6.87005">
        <ele>238</ele>
        <time>2013-06-20T17:20:59.000Z</time>
      </trkpt>
      <trkpt lat="43.61282" lon="6.87016">
        <ele>235.80000305176</ele>
        <time>2013-06-20T17:21:01.000Z</time>
      </trkpt>
      <trkpt lat="43.6128" lon="6.87026">
        <ele>233.60000610352</ele>
        <time>2013-06-20T17:21:03.000Z</time>
      </trkpt>
      <trkpt lat="43.61281" lon="6.87038">
        <ele>231</ele>
        <time>2013-06-20T17:21:05.000Z</time>
      </trkpt>
      <trkpt lat="43.61278" lon="6.87047">
        <ele>228.80000305176</ele>
        <time>2013-06-20T17:21:07.000Z</time>
      </trkpt>
      <trkpt lat="43.61275" lon="6.87056">
        <ele>226.19999694824</ele>
        <time>2013-06-20T17:21:10.000Z</time>
      </trkpt>
      <trkpt lat="43.61271" lon="6.87064">
        <ele>223.80000305176</ele>
        <time>2013-06-20T17:21:12.000Z</time>
      </trkpt>
      <trkpt lat="43.61265" lon="6.87072">
        <ele>221</ele>
        <time>2013-06-20T17:21:13.000Z</time>
      </trkpt>
      <trkpt lat="43.61259" lon="6.8708">
        <ele>218.19999694824</ele>
        <time>2013-06-20T17:21:15.000Z</time>
      </trkpt>
      <trkpt lat="43.61254" lon="6.87088">
        <ele>215.60000610352</ele>
        <time>2013-06-20T17:21:17.000Z</time>
      </trkpt>
      <trkpt lat="43.61248" lon="6.87095">
        <ele>213</ele>
        <time>2013-06-20T17:21:19.000Z</time>
      </trkpt>
      <trkpt lat="43.61245" lon="6.87098">
        <ele>211.80000305176</ele>
        <time>2013-06-20T17:21:20.000Z</time>
      </trkpt>
      <trkpt lat="43.61235" lon="6.87101">
        <ele>209.19999694824</ele>
        <time>2013-06-20T17:21:22.000Z</time>
      </trkpt>
      <trkpt lat="43.61231" lon="6.87103">
        <ele>208</ele>
        <time>2013-06-20T17:21:23.000Z</time>
      </trkpt>
      <trkpt lat="43.61226" lon="6.87105">
        <ele>206.80000305176</ele>
        <time>2013-06-20T17:21:24.000Z</time>
      </trkpt>
      <trkpt lat="43.61212" lon="6.87112">
        <ele>205.60000610352</ele>
        <time>2013-06-20T17:21:25.000Z</time>
      </trkpt>
      <trkpt lat="43.61199" lon="6.87118">
        <ele>203</ele>
        <time>2013-06-20T17:21:27.000Z</time>
      </trkpt>
      <trkpt lat="43.61187" lon="6.87133">
        <ele>199.19999694824</ele>
        <time>2013-06-20T17:21:30.000Z</time>
      </trkpt>
      <trkpt lat="43.6118" lon="6.87134">
        <ele>197</ele>
        <time>2013-06-20T17:21:33.000Z</time>
      </trkpt>
      <trkpt lat="43.61174" lon="6.87133">
        <ele>194.80000305176</ele>
        <time>2013-06-20T17:21:35.000Z</time>
      </trkpt>
      <trkpt lat="43.61172" lon="6.87133">
        <ele>193.60000610352</ele>
        <time>2013-06-20T17:21:36.000Z</time>
      </trkpt>
      <trkpt lat="43.61163" lon="6.87136">
        <ele>191.60000610352</ele>
        <time>2013-06-20T17:21:37.000Z</time>
      </trkpt>
      <trkpt lat="43.61159" lon="6.87137">
        <ele>190.80000305176</ele>
        <time>2013-06-20T17:21:38.000Z</time>
      </trkpt>
      <trkpt lat="43.61155" lon="6.87139">
        <ele>189.60000610352</ele>
        <time>2013-06-20T17:21:39.000Z</time>
      </trkpt>
      <trkpt lat="43.61153" lon="6.87139">
        <ele>188.80000305176</ele>
        <time>2013-06-20T17:21:41.000Z</time>
      </trkpt>
      <trkpt lat="43.61148" lon="6.87139">
        <ele>187.60000610352</ele>
        <time>2013-06-20T17:21:42.000Z</time>
      </trkpt>
      <trkpt lat="43.61144" lon="6.87142">
        <ele>185.80000305176</ele>
        <time>2013-06-20T17:21:44.000Z</time>
      </trkpt>
      <trkpt lat="43.61139" lon="6.87141">
        <ele>184</ele>
        <time>2013-06-20T17:21:46.000Z</time>
      </trkpt>
      <trkpt lat="43.61132" lon="6.87141">
        <ele>181.60000610352</ele>
        <time>2013-06-20T17:21:48.000Z</time>
      </trkpt>
      <trkpt lat="43.6113" lon="6.87139">
        <ele>180.80000305176</ele>
        <time>2013-06-20T17:21:49.000Z</time>
      </trkpt>
      <trkpt lat="43.61126" lon="6.87138">
        <ele>179.19999694824</ele>
        <time>2013-06-20T17:21:52.000Z</time>
      </trkpt>
      <trkpt lat="43.61123" lon="6.87136">
        <ele>178.60000610352</ele>
        <time>2013-06-20T17:21:53.000Z</time>
      </trkpt>
      <trkpt lat="43.6112" lon="6.87135">
        <ele>177</ele>
        <time>2013-06-20T17:21:54.000Z</time>
      </trkpt>
      <trkpt lat="43.61119" lon="6.87136">
        <ele>176.60000610352</ele>
        <time>2013-06-20T17:21:55.000Z</time>
      </trkpt>
      <trkpt lat="43.61117" lon="6.87138">
        <ele>174</ele>
        <time>2013-06-20T17:22:02.000Z</time>
      </trkpt>
      <trkpt lat="43.61117" lon="6.87138">
        <ele>173.60000610352</ele>
        <time>2013-06-20T17:22:03.000Z</time>
      </trkpt>
      <trkpt lat="43.61113" lon="6.87138">
        <ele>173</ele>
        <time>2013-06-20T17:22:05.000Z</time>
      </trkpt>
      <trkpt lat="43.61107" lon="6.87141">
        <ele>172</ele>
        <time>2013-06-20T17:22:08.000Z</time>
      </trkpt>
      <trkpt lat="43.61102" lon="6.87149">
        <ele>171.60000610352</ele>
        <time>2013-06-20T17:22:09.000Z</time>
      </trkpt>
      <trkpt lat="43.611" lon="6.87151">
        <ele>171</ele>
        <time>2013-06-20T17:22:11.000Z</time>
      </trkpt>
      <trkpt lat="43.61096" lon="6.87157">
        <ele>169.80000305176</ele>
        <time>2013-06-20T17:22:12.000Z</time>
      </trkpt>
      <trkpt lat="43.61091" lon="6.87169">
        <ele>168.19999694824</ele>
        <time>2013-06-20T17:22:15.000Z</time>
      </trkpt>
      <trkpt lat="43.61085" lon="6.87182">
        <ele>166.60000610352</ele>
        <time>2013-06-20T17:22:17.000Z</time>
      </trkpt>
      <trkpt lat="43.61072" lon="6.87194">
        <ele>164</ele>
        <time>2013-06-20T17:22:19.000Z</time>
      </trkpt>
      <trkpt lat="43.61069" lon="6.87202">
        <ele>162.19999694824</ele>
        <time>2013-06-20T17:22:21.000Z</time>
      </trkpt>
      <trkpt lat="43.61069" lon="6.87207">
        <ele>161.19999694824</ele>
        <time>2013-06-20T17:22:23.000Z</time>
      </trkpt>
      <trkpt lat="43.61067" lon="6.87219">
        <ele>159</ele>
        <time>2013-06-20T17:22:25.000Z</time>
      </trkpt>
      <trkpt lat="43.61063" lon="6.87221">
        <ele>158</ele>
        <time>2013-06-20T17:22:26.000Z</time>
      </trkpt>
      <trkpt lat="43.61061" lon="6.87223">
        <ele>157.19999694824</ele>
        <time>2013-06-20T17:22:27.000Z</time>
      </trkpt>
      <trkpt lat="43.61059" lon="6.87225">
        <ele>156.60000610352</ele>
        <time>2013-06-20T17:22:29.000Z</time>
      </trkpt>
      <trkpt lat="43.61064" lon="6.87229">
        <ele>155</ele>
        <time>2013-06-20T17:22:30.000Z</time>
      </trkpt>
      <trkpt lat="43.61062" lon="6.87231">
        <ele>153</ele>
        <time>2013-06-20T17:22:32.000Z</time>
      </trkpt>
      <trkpt lat="43.61057" lon="6.87233">
        <ele>152.60000610352</ele>
        <time>2013-06-20T17:22:33.000Z</time>
      </trkpt>
      <trkpt lat="43.61052" lon="6.87233">
        <ele>152</ele>
        <time>2013-06-20T17:22:34.000Z</time>
      </trkpt>
      <trkpt lat="43.61045" lon="6.87245">
        <ele>149.80000305176</ele>
        <time>2013-06-20T17:22:37.000Z</time>
      </trkpt>
      <trkpt lat="43.61045" lon="6.87248">
        <ele>148.80000305176</ele>
        <time>2013-06-20T17:22:38.000Z</time>
      </trkpt>
      <trkpt lat="43.61042" lon="6.87254">
        <ele>147</ele>
        <time>2013-06-20T17:22:41.000Z</time>
      </trkpt>
      <trkpt lat="43.6104" lon="6.87254">
        <ele>146</ele>
        <time>2013-06-20T17:22:42.000Z</time>
      </trkpt>
      <trkpt lat="43.61034" lon="6.87255">
        <ele>144.19999694824</ele>
        <time>2013-06-20T17:22:43.000Z</time>
      </trkpt>
      <trkpt lat="43.61031" lon="6.87255">
        <ele>143.19999694824</ele>
        <time>2013-06-20T17:22:44.000Z</time>
      </trkpt>
      <trkpt lat="43.61028" lon="6.87259">
        <ele>141.60000610352</ele>
        <time>2013-06-20T17:22:46.000Z</time>
      </trkpt>
      <trkpt lat="43.61023" lon="6.87262">
        <ele>140</ele>
        <time>2013-06-20T17:22:49.000Z</time>
      </trkpt>
      <trkpt lat="43.61019" lon="6.87268">
        <ele>139</ele>
        <time>2013-06-20T17:22:50.000Z</time>
      </trkpt>
      <trkpt lat="43.6101" lon="6.87277">
        <ele>137.19999694824</ele>
        <time>2013-06-20T17:22:51.000Z</time>
      </trkpt>
      <trkpt lat="43.61006" lon="6.87283">
        <ele>136.19999694824</ele>
        <time>2013-06-20T17:22:53.000Z</time>
      </trkpt>
      <trkpt lat="43.60998" lon="6.87301">
        <ele>133</ele>
        <time>2013-06-20T17:22:56.000Z</time>
      </trkpt>
      <trkpt lat="43.60992" lon="6.87312">
        <ele>130.80000305176</ele>
        <time>2013-06-20T17:22:57.000Z</time>
      </trkpt>
      <trkpt lat="43.60982" lon="6.87317">
        <ele>128</ele>
        <time>2013-06-20T17:22:59.000Z</time>
      </trkpt>
      <trkpt lat="43.60976" lon="6.87314">
        <ele>127</ele>
        <time>2013-06-20T17:23:01.000Z</time>
      </trkpt>
      <trkpt lat="43.60962" lon="6.87307">
        <ele>124.80000305176</ele>
        <time>2013-06-20T17:23:03.000Z</time>
      </trkpt>
      <trkpt lat="43.60957" lon="6.87304">
        <ele>123.40000152588</ele>
        <time>2013-06-20T17:23:04.000Z</time>
      </trkpt>
      <trkpt lat="43.6095" lon="6.87298">
        <ele>121</ele>
        <time>2013-06-20T17:23:06.000Z</time>
      </trkpt>
      <trkpt lat="43.60944" lon="6.87295">
        <ele>118.80000305176</ele>
        <time>2013-06-20T17:23:08.000Z</time>
      </trkpt>
      <trkpt lat="43.60942" lon="6.87296">
        <ele>117.40000152588</ele>
        <time>2013-06-20T17:23:09.000Z</time>
      </trkpt>
      <trkpt lat="43.60938" lon="6.87299">
        <ele>115</ele>
        <time>2013-06-20T17:23:11.000Z</time>
      </trkpt>
      <trkpt lat="43.60936" lon="6.87299">
        <ele>114</ele>
        <time>2013-06-20T17:23:12.000Z</time>
      </trkpt>
      <trkpt lat="43.60932" lon="6.87299">
        <ele>111.80000305176</ele>
        <time>2013-06-20T17:23:14.000Z</time>
      </trkpt>
      <trkpt lat="43.60928" lon="6.87303">
        <ele>109.40000152588</ele>
        <time>2013-06-20T17:23:16.000Z</time>
      </trkpt>
      <trkpt lat="43.60927" lon="6.87313">
        <ele>107</ele>
        <time>2013-06-20T17:23:18.000Z</time>
      </trkpt>
      <trkpt lat="43.60928" lon="6.87317">
        <ele>105.80000305176</ele>
        <time>2013-06-20T17:23:19.000Z</time>
      </trkpt>
      <trkpt lat="43.60929" lon="6.8732">
        <ele>104.80000305176</ele>
        <time>2013-06-20T17:23:20.000Z</time>
      </trkpt>
      <trkpt lat="43.6093" lon="6.87324">
        <ele>103</ele>
        <time>2013-06-20T17:23:22.000Z</time>
      </trkpt>
      <trkpt lat="43.6093" lon="6.87324">
        <ele>102.40000152588</ele>
        <time>2013-06-20T17:23:23.000Z</time>
      </trkpt>
      <trkpt lat="43.60924" lon="6.87322">
        <ele>96</ele>
        <time>2013-06-20T17:23:46.000Z</time>
      </trkpt>
      <trkpt lat="43.60923" lon="6.87323">
        <ele>96</ele>
        <time>2013-06-20T17:23:47.000Z</time>
      </trkpt>
      <trkpt lat="43.60923" lon="6.87323">
        <ele>96</ele>
        <time>2013-06-20T17:23:48.000Z</time>
      </trkpt>
      <trkpt lat="43.60922" lon="6.87324">
        <ele>96</ele>
        <time>2013-06-20T17:23:49.000Z</time>
      </trkpt>
      <trkpt lat="43.60921" lon="6.87324">
        <ele>96</ele>
        <time>2013-06-20T17:23:50.000Z</time>
      </trkpt>
      <trkpt lat="43.60915" lon="6.87323">
        <ele>95.400001525879</ele>
        <time>2013-06-20T17:23:52.000Z</time>
      </trkpt>
      <trkpt lat="43.60909" lon="6.87328">
        <ele>95</ele>
        <time>2013-06-20T17:23:53.000Z</time>
      </trkpt>
      <trkpt lat="43.60902" lon="6.87336">
        <ele>94.400001525879</ele>
        <time>2013-06-20T17:23:56.000Z</time>
      </trkpt>
      <trkpt lat="43.60894" lon="6.87346">
        <ele>93.400001525879</ele>
        <time>2013-06-20T17:23:58.000Z</time>
      </trkpt>
      <trkpt lat="43.60889" lon="6.8735">
        <ele>92.800003051758</ele>
        <time>2013-06-20T17:23:59.000Z</time>
      </trkpt>
      <trkpt lat="43.60883" lon="6.87353">
        <ele>91.800003051758</ele>
        <time>2013-06-20T17:24:00.000Z</time>
      </trkpt>
      <trkpt lat="43.60873" lon="6.87365">
        <ele>90</ele>
        <time>2013-06-20T17:24:02.000Z</time>
      </trkpt>
      <trkpt lat="43.60861" lon="6.87373">
        <ele>87.800003051758</ele>
        <time>2013-06-20T17:24:04.000Z</time>
      </trkpt>
      <trkpt lat="43.60851" lon="6.87384">
        <ele>85.400001525879</ele>
        <time>2013-06-20T17:24:06.000Z</time>
      </trkpt>
      <trkpt lat="43.60844" lon="6.87393">
        <ele>83</ele>
        <time>2013-06-20T17:24:08.000Z</time>
      </trkpt>
      <trkpt lat="43.6084" lon="6.87402">
        <ele>80.400001525879</ele>
        <time>2013-06-20T17:24:10.000Z</time>
      </trkpt>
      <trkpt lat="43.60837" lon="6.87403">
        <ele>79.400001525879</ele>
        <time>2013-06-20T17:24:11.000Z</time>
      </trkpt>
      <trkpt lat="43.60833" lon="6.87408">
        <ele>77</ele>
        <time>2013-06-20T17:24:13.000Z</time>
      </trkpt>
      <trkpt lat="43.60831" lon="6.87412">
        <ele>76</ele>
        <time>2013-06-20T17:24:14.000Z</time>
      </trkpt>
      <trkpt lat="43.60828" lon="6.87417">
        <ele>74.400001525879</ele>
        <time>2013-06-20T17:24:15.000Z</time>
      </trkpt>
      <trkpt lat="43.60822" lon="6.87426">
        <ele>72</ele>
        <time>2013-06-20T17:24:17.000Z</time>
      </trkpt>
      <trkpt lat="43.60819" lon="6.87426">
        <ele>71</ele>
        <time>2013-06-20T17:24:18.000Z</time>
      </trkpt>
      <trkpt lat="43.60817" lon="6.87426">
        <ele>69.800003051758</ele>
        <time>2013-06-20T17:24:19.000Z</time>
      </trkpt>
      <trkpt lat="43.60813" lon="6.87425">
        <ele>67.400001525879</ele>
        <time>2013-06-20T17:24:21.000Z</time>
      </trkpt>
      <trkpt lat="43.60814" lon="6.87432">
        <ele>64.800003051758</ele>
        <time>2013-06-20T17:24:23.000Z</time>
      </trkpt>
      <trkpt lat="43.60817" lon="6.87444">
        <ele>62.400001525879</ele>
        <time>2013-06-20T17:24:25.000Z</time>
      </trkpt>
      <trkpt lat="43.60814" lon="6.87451">
        <ele>60.400001525879</ele>
        <time>2013-06-20T17:24:27.000Z</time>
      </trkpt>
      <trkpt lat="43.60811" lon="6.87452">
        <ele>59.200000762939</ele>
        <time>2013-06-20T17:24:28.000Z</time>
      </trkpt>
      <trkpt lat="43.60809" lon="6.8745">
        <ele>58.200000762939</ele>
        <time>2013-06-20T17:24:29.000Z</time>
      </trkpt>
      <trkpt lat="43.60807" lon="6.87449">
        <ele>57.200000762939</ele>
        <time>2013-06-20T17:24:30.000Z</time>
      </trkpt>
      <trkpt lat="43.60804" lon="6.87446">
        <ele>55.400001525879</ele>
        <time>2013-06-20T17:24:32.000Z</time>
      </trkpt>
      <trkpt lat="43.608" lon="6.87448">
        <ele>53.400001525879</ele>
        <time>2013-06-20T17:24:34.000Z</time>
      </trkpt>
      <trkpt lat="43.60797" lon="6.87458">
        <ele>52</ele>
        <time>2013-06-20T17:24:36.000Z</time>
      </trkpt>
      <trkpt lat="43.60795" lon="6.87465">
        <ele>50</ele>
        <time>2013-06-20T17:24:38.000Z</time>
      </trkpt>
      <trkpt lat="43.60795" lon="6.87468">
        <ele>48.400001525879</ele>
        <time>2013-06-20T17:24:40.000Z</time>
      </trkpt>
      <trkpt lat="43.60796" lon="6.87467">
        <ele>47</ele>
        <time>2013-06-20T17:24:42.000Z</time>
      </trkpt>
      <trkpt lat="43.60796" lon="6.87467">
        <ele>45</ele>
        <time>2013-06-20T17:24:46.000Z</time>
      </trkpt>
      <trkpt lat="43.60795" lon="6.87466">
        <ele>44.400001525879</ele>
        <time>2013-06-20T17:24:48.000Z</time>
      </trkpt>
      <trkpt lat="43.60794" lon="6.87466">
        <ele>43.599998474121</ele>
        <time>2013-06-20T17:24:50.000Z</time>
      </trkpt>
      <trkpt lat="43.60793" lon="6.87466">
        <ele>42.599998474121</ele>
        <time>2013-06-20T17:24:55.000Z</time>
      </trkpt>
      <trkpt lat="43.60795" lon="6.87469">
        <ele>41.200000762939</ele>
        <time>2013-06-20T17:32:23.000Z</time>
      </trkpt>
      <trkpt lat="43.60796" lon="6.87469">
        <ele>41.200000762939</ele>
        <time>2013-06-20T17:32:24.000Z</time>
      </trkpt>
      <trkpt lat="43.60796" lon="6.8747">
        <ele>41.200000762939</ele>
        <time>2013-06-20T17:32:25.000Z</time>
      </trkpt>
      <trkpt lat="43.60797" lon="6.87472">
        <ele>41.200000762939</ele>
        <time>2013-06-20T17:32:26.000Z</time>
      </trkpt>
      <trkpt lat="43.60798" lon="6.87473">
        <ele>41.200000762939</ele>
        <time>2013-06-20T17:32:28.000Z</time>
      </trkpt>
      <trkpt lat="43.608" lon="6.87475">
        <ele>41.200000762939</ele>
        <time>2013-06-20T17:32:29.000Z</time>
      </trkpt>
      <trkpt lat="43.60805" lon="6.87476">
        <ele>41.200000762939</ele>
        <time>2013-06-20T17:32:32.000Z</time>
      </trkpt>
      <trkpt lat="43.6081" lon="6.87477">
        <ele>41.400001525879</ele>
        <time>2013-06-20T17:32:34.000Z</time>
      </trkpt>
      <trkpt lat="43.60819" lon="6.87476">
        <ele>41.400001525879</ele>
        <time>2013-06-20T17:32:37.000Z</time>
      </trkpt>
      <trkpt lat="43.60827" lon="6.87481">
        <ele>41.400001525879</ele>
        <time>2013-06-20T17:32:41.000Z</time>
      </trkpt>
      <trkpt lat="43.60819" lon="6.87495">
        <ele>41.400001525879</ele>
        <time>2013-06-20T17:32:45.000Z</time>
      </trkpt>
      <trkpt lat="43.60816" lon="6.87499">
        <ele>41.400001525879</ele>
        <time>2013-06-20T17:32:46.000Z</time>
      </trkpt>
      <trkpt lat="43.60805" lon="6.87523">
        <ele>41.400001525879</ele>
        <time>2013-06-20T17:32:52.000Z</time>
      </trkpt>
      <trkpt lat="43.60802" lon="6.87527">
        <ele>41.400001525879</ele>
        <time>2013-06-20T17:32:53.000Z</time>
      </trkpt>
      <trkpt lat="43.60794" lon="6.87555">
        <ele>41.400001525879</ele>
        <time>2013-06-20T17:32:59.000Z</time>
      </trkpt>
      <trkpt lat="43.60798" lon="6.8758">
        <ele>41.400001525879</ele>
        <time>2013-06-20T17:33:04.000Z</time>
      </trkpt>
      <trkpt lat="43.608" lon="6.87602">
        <ele>41.400001525879</ele>
        <time>2013-06-20T17:33:09.000Z</time>
      </trkpt>
      <trkpt lat="43.60788" lon="6.87619">
        <ele>41.400001525879</ele>
        <time>2013-06-20T17:33:14.000Z</time>
      </trkpt>
      <trkpt lat="43.60762" lon="6.87642">
        <ele>41.400001525879</ele>
        <time>2013-06-20T17:33:22.000Z</time>
      </trkpt>
      <trkpt lat="43.60759" lon="6.87646">
        <ele>41.400001525879</ele>
        <time>2013-06-20T17:33:23.000Z</time>
      </trkpt>
      <trkpt lat="43.60752" lon="6.8766">
        <ele>41.400001525879</ele>
        <time>2013-06-20T17:33:26.000Z</time>
      </trkpt>
      <trkpt lat="43.60748" lon="6.8767">
        <ele>41.400001525879</ele>
        <time>2013-06-20T17:33:28.000Z</time>
      </trkpt>
      <trkpt lat="43.60741" lon="6.87712">
        <ele>41.400001525879</ele>
        <time>2013-06-20T17:33:35.000Z</time>
      </trkpt>
      <trkpt lat="43.60748" lon="6.87742">
        <ele>41</ele>
        <time>2013-06-20T17:33:40.000Z</time>
      </trkpt>
      <trkpt lat="43.60765" lon="6.87754">
        <ele>40.599998474121</ele>
        <time>2013-06-20T17:33:42.000Z</time>
      </trkpt>
      <trkpt lat="43.6077" lon="6.87755">
        <ele>40.400001525879</ele>
        <time>2013-06-20T17:33:43.000Z</time>
      </trkpt>
      <trkpt lat="43.60774" lon="6.8776">
        <ele>40.400001525879</ele>
        <time>2013-06-20T17:33:44.000Z</time>
      </trkpt>
      <trkpt lat="43.6077" lon="6.87773">
        <ele>40.200000762939</ele>
        <time>2013-06-20T17:33:46.000Z</time>
      </trkpt>
      <trkpt lat="43.60764" lon="6.8778">
        <ele>40</ele>
        <time>2013-06-20T17:33:48.000Z</time>
      </trkpt>
      <trkpt lat="43.60758" lon="6.87782">
        <ele>39.599998474121</ele>
        <time>2013-06-20T17:33:49.000Z</time>
      </trkpt>
      <trkpt lat="43.60747" lon="6.87785">
        <ele>39.400001525879</ele>
        <time>2013-06-20T17:33:51.000Z</time>
      </trkpt>
      <trkpt lat="43.6073" lon="6.87812">
        <ele>39.400001525879</ele>
        <time>2013-06-20T17:33:57.000Z</time>
      </trkpt>
      <trkpt lat="43.60729" lon="6.87818">
        <ele>39.400001525879</ele>
        <time>2013-06-20T17:33:58.000Z</time>
      </trkpt>
      <trkpt lat="43.60722" lon="6.87848">
        <ele>39.200000762939</ele>
        <time>2013-06-20T17:34:03.000Z</time>
      </trkpt>
      <trkpt lat="43.60723" lon="6.8788">
        <ele>39.200000762939</ele>
        <time>2013-06-20T17:34:08.000Z</time>
      </trkpt>
      <trkpt lat="43.60712" lon="6.87908">
        <ele>39</ele>
        <time>2013-06-20T17:34:13.000Z</time>
      </trkpt>
      <trkpt lat="43.60709" lon="6.87913">
        <ele>39</ele>
        <time>2013-06-20T17:34:14.000Z</time>
      </trkpt>
      <trkpt lat="43.60706" lon="6.87925">
        <ele>39</ele>
        <time>2013-06-20T17:34:16.000Z</time>
      </trkpt>
      <trkpt lat="43.60696" lon="6.87967">
        <ele>39</ele>
        <time>2013-06-20T17:34:23.000Z</time>
      </trkpt>
      <trkpt lat="43.60692" lon="6.87985">
        <ele>39</ele>
        <time>2013-06-20T17:34:26.000Z</time>
      </trkpt>
      <trkpt lat="43.60691" lon="6.87998">
        <ele>39</ele>
        <time>2013-06-20T17:34:28.000Z</time>
      </trkpt>
      <trkpt lat="43.60683" lon="6.88023">
        <ele>39</ele>
        <time>2013-06-20T17:34:32.000Z</time>
      </trkpt>
      <trkpt lat="43.60678" lon="6.88035">
        <ele>38.599998474121</ele>
        <time>2013-06-20T17:34:34.000Z</time>
      </trkpt>
      <trkpt lat="43.60673" lon="6.88047">
        <ele>38.400001525879</ele>
        <time>2013-06-20T17:34:36.000Z</time>
      </trkpt>
      <trkpt lat="43.60669" lon="6.8806">
        <ele>38</ele>
        <time>2013-06-20T17:34:38.000Z</time>
      </trkpt>
      <trkpt lat="43.60666" lon="6.88076">
        <ele>37.599998474121</ele>
        <time>2013-06-20T17:34:40.000Z</time>
      </trkpt>
      <trkpt lat="43.60664" lon="6.88092">
        <ele>37.400001525879</ele>
        <time>2013-06-20T17:34:42.000Z</time>
      </trkpt>
      <trkpt lat="43.60663" lon="6.88108">
        <ele>36.599998474121</ele>
        <time>2013-06-20T17:34:44.000Z</time>
      </trkpt>
      <trkpt lat="43.60662" lon="6.88123">
        <ele>36.400001525879</ele>
        <time>2013-06-20T17:34:46.000Z</time>
      </trkpt>
      <trkpt lat="43.60663" lon="6.88131">
        <ele>36.200000762939</ele>
        <time>2013-06-20T17:34:47.000Z</time>
      </trkpt>
      <trkpt lat="43.60663" lon="6.88138">
        <ele>36</ele>
        <time>2013-06-20T17:34:48.000Z</time>
      </trkpt>
      <trkpt lat="43.60666" lon="6.88154">
        <ele>35.599998474121</ele>
        <time>2013-06-20T17:34:50.000Z</time>
      </trkpt>
      <trkpt lat="43.60667" lon="6.88162">
        <ele>35.400001525879</ele>
        <time>2013-06-20T17:34:51.000Z</time>
      </trkpt>
      <trkpt lat="43.60672" lon="6.88176">
        <ele>35.200000762939</ele>
        <time>2013-06-20T17:34:53.000Z</time>
      </trkpt>
      <trkpt lat="43.60677" lon="6.88191">
        <ele>34.400001525879</ele>
        <time>2013-06-20T17:34:55.000Z</time>
      </trkpt>
      <trkpt lat="43.60682" lon="6.88205">
        <ele>34.200000762939</ele>
        <time>2013-06-20T17:34:57.000Z</time>
      </trkpt>
      <trkpt lat="43.60687" lon="6.88221">
        <ele>34</ele>
        <time>2013-06-20T17:34:59.000Z</time>
      </trkpt>
      <trkpt lat="43.60689" lon="6.8823">
        <ele>33.599998474121</ele>
        <time>2013-06-20T17:35:00.000Z</time>
      </trkpt>
      <trkpt lat="43.60689" lon="6.88239">
        <ele>33.400001525879</ele>
        <time>2013-06-20T17:35:01.000Z</time>
      </trkpt>
      <trkpt lat="43.60691" lon="6.88253">
        <ele>32.599998474121</ele>
        <time>2013-06-20T17:35:03.000Z</time>
      </trkpt>
      <trkpt lat="43.60694" lon="6.88266">
        <ele>32.400001525879</ele>
        <time>2013-06-20T17:35:05.000Z</time>
      </trkpt>
      <trkpt lat="43.60701" lon="6.88277">
        <ele>32</ele>
        <time>2013-06-20T17:35:07.000Z</time>
      </trkpt>
      <trkpt lat="43.6071" lon="6.88288">
        <ele>31.60000038147</ele>
        <time>2013-06-20T17:35:09.000Z</time>
      </trkpt>
      <trkpt lat="43.60715" lon="6.88292">
        <ele>31.60000038147</ele>
        <time>2013-06-20T17:35:10.000Z</time>
      </trkpt>
      <trkpt lat="43.60724" lon="6.883">
        <ele>31.200000762939</ele>
        <time>2013-06-20T17:35:12.000Z</time>
      </trkpt>
      <trkpt lat="43.60734" lon="6.88309">
        <ele>31.200000762939</ele>
        <time>2013-06-20T17:35:14.000Z</time>
      </trkpt>
      <trkpt lat="43.6074" lon="6.8834">
        <ele>31</ele>
        <time>2013-06-20T17:35:18.000Z</time>
      </trkpt>
      <trkpt lat="43.60737" lon="6.88349">
        <ele>30.60000038147</ele>
        <time>2013-06-20T17:35:19.000Z</time>
      </trkpt>
      <trkpt lat="43.60732" lon="6.88356">
        <ele>30.200000762939</ele>
        <time>2013-06-20T17:35:20.000Z</time>
      </trkpt>
      <trkpt lat="43.60723" lon="6.88367">
        <ele>30</ele>
        <time>2013-06-20T17:35:22.000Z</time>
      </trkpt>
      <trkpt lat="43.60716" lon="6.88382">
        <ele>29.60000038147</ele>
        <time>2013-06-20T17:35:25.000Z</time>
      </trkpt>
      <trkpt lat="43.60715" lon="6.88386">
        <ele>29.200000762939</ele>
        <time>2013-06-20T17:35:26.000Z</time>
      </trkpt>
      <trkpt lat="43.60708" lon="6.88396">
        <ele>29</ele>
        <time>2013-06-20T17:35:30.000Z</time>
      </trkpt>
      <trkpt lat="43.60698" lon="6.88408">
        <ele>28.60000038147</ele>
        <time>2013-06-20T17:35:34.000Z</time>
      </trkpt>
      <trkpt lat="43.60694" lon="6.88416">
        <ele>28.60000038147</ele>
        <time>2013-06-20T17:35:36.000Z</time>
      </trkpt>
      <trkpt lat="43.60694" lon="6.88443">
        <ele>28.60000038147</ele>
        <time>2013-06-20T17:35:41.000Z</time>
      </trkpt>
      <trkpt lat="43.60696" lon="6.88449">
        <ele>28.60000038147</ele>
        <time>2013-06-20T17:35:42.000Z</time>
      </trkpt>
      <trkpt lat="43.60697" lon="6.88455">
        <ele>28.60000038147</ele>
        <time>2013-06-20T17:35:43.000Z</time>
      </trkpt>
      <trkpt lat="43.60699" lon="6.88467">
        <ele>28.200000762939</ele>
        <time>2013-06-20T17:35:45.000Z</time>
      </trkpt>
      <trkpt lat="43.6071" lon="6.88512">
        <ele>28.200000762939</ele>
        <time>2013-06-20T17:35:52.000Z</time>
      </trkpt>
      <trkpt lat="43.60711" lon="6.8852">
        <ele>28.200000762939</ele>
        <time>2013-06-20T17:35:53.000Z</time>
      </trkpt>
      <trkpt lat="43.60715" lon="6.88548">
        <ele>28.200000762939</ele>
        <time>2013-06-20T17:35:57.000Z</time>
      </trkpt>
      <trkpt lat="43.60717" lon="6.88555">
        <ele>28.200000762939</ele>
        <time>2013-06-20T17:35:58.000Z</time>
      </trkpt>
      <trkpt lat="43.60727" lon="6.88574">
        <ele>28.200000762939</ele>
        <time>2013-06-20T17:36:01.000Z</time>
      </trkpt>
      <trkpt lat="43.60752" lon="6.88611">
        <ele>28.200000762939</ele>
        <time>2013-06-20T17:36:09.000Z</time>
      </trkpt>
      <trkpt lat="43.60753" lon="6.88617">
        <ele>28</ele>
        <time>2013-06-20T17:36:10.000Z</time>
      </trkpt>
      <trkpt lat="43.60755" lon="6.88623">
        <ele>27.60000038147</ele>
        <time>2013-06-20T17:36:11.000Z</time>
      </trkpt>
      <trkpt lat="43.60758" lon="6.88637">
        <ele>27.200000762939</ele>
        <time>2013-06-20T17:36:13.000Z</time>
      </trkpt>
      <trkpt lat="43.60762" lon="6.88649">
        <ele>27.200000762939</ele>
        <time>2013-06-20T17:36:15.000Z</time>
      </trkpt>
      <trkpt lat="43.60765" lon="6.8866">
        <ele>27</ele>
        <time>2013-06-20T17:36:17.000Z</time>
      </trkpt>
      <trkpt lat="43.60765" lon="6.88667">
        <ele>27</ele>
        <time>2013-06-20T17:36:18.000Z</time>
      </trkpt>
      <trkpt lat="43.60764" lon="6.88682">
        <ele>26.60000038147</ele>
        <time>2013-06-20T17:36:20.000Z</time>
      </trkpt>
      <trkpt lat="43.60771" lon="6.88711">
        <ele>26.60000038147</ele>
        <time>2013-06-20T17:36:25.000Z</time>
      </trkpt>
      <trkpt lat="43.60784" lon="6.88728">
        <ele>26.200000762939</ele>
        <time>2013-06-20T17:36:29.000Z</time>
      </trkpt>
      <trkpt lat="43.60804" lon="6.88757">
        <ele>26.200000762939</ele>
        <time>2013-06-20T17:36:35.000Z</time>
      </trkpt>
      <trkpt lat="43.60827" lon="6.88779">
        <ele>26.200000762939</ele>
        <time>2013-06-20T17:36:40.000Z</time>
      </trkpt>
      <trkpt lat="43.60844" lon="6.88808">
        <ele>26.200000762939</ele>
        <time>2013-06-20T17:36:45.000Z</time>
      </trkpt>
      <trkpt lat="43.60848" lon="6.88813">
        <ele>26.200000762939</ele>
        <time>2013-06-20T17:36:46.000Z</time>
      </trkpt>
      <trkpt lat="43.60857" lon="6.8883">
        <ele>26.200000762939</ele>
        <time>2013-06-20T17:36:49.000Z</time>
      </trkpt>
      <trkpt lat="43.60871" lon="6.88837">
        <ele>26.200000762939</ele>
        <time>2013-06-20T17:36:53.000Z</time>
      </trkpt>
      <trkpt lat="43.60875" lon="6.88835">
        <ele>26.200000762939</ele>
        <time>2013-06-20T17:36:54.000Z</time>
      </trkpt>
      <trkpt lat="43.60879" lon="6.88835">
        <ele>26.200000762939</ele>
        <time>2013-06-20T17:36:55.000Z</time>
      </trkpt>
      <trkpt lat="43.60886" lon="6.8883">
        <ele>25.60000038147</ele>
        <time>2013-06-20T17:36:57.000Z</time>
      </trkpt>
      <trkpt lat="43.60902" lon="6.88826">
        <ele>25.200000762939</ele>
        <time>2013-06-20T17:37:00.000Z</time>
      </trkpt>
      <trkpt lat="43.60914" lon="6.88833">
        <ele>25</ele>
        <time>2013-06-20T17:37:02.000Z</time>
      </trkpt>
      <trkpt lat="43.60922" lon="6.88845">
        <ele>24.60000038147</ele>
        <time>2013-06-20T17:37:04.000Z</time>
      </trkpt>
      <trkpt lat="43.60927" lon="6.88872">
        <ele>24.200000762939</ele>
        <time>2013-06-20T17:37:07.000Z</time>
      </trkpt>
      <trkpt lat="43.60929" lon="6.88881">
        <ele>24.200000762939</ele>
        <time>2013-06-20T17:37:08.000Z</time>
      </trkpt>
      <trkpt lat="43.60931" lon="6.88895">
        <ele>24.200000762939</ele>
        <time>2013-06-20T17:37:10.000Z</time>
      </trkpt>
      <trkpt lat="43.60942" lon="6.88949">
        <ele>24</ele>
        <time>2013-06-20T17:37:17.000Z</time>
      </trkpt>
      <trkpt lat="43.60956" lon="6.88977">
        <ele>23.60000038147</ele>
        <time>2013-06-20T17:37:21.000Z</time>
      </trkpt>
      <trkpt lat="43.6096" lon="6.88983">
        <ele>23.60000038147</ele>
        <time>2013-06-20T17:37:22.000Z</time>
      </trkpt>
      <trkpt lat="43.60974" lon="6.89">
        <ele>23</ele>
        <time>2013-06-20T17:37:25.000Z</time>
      </trkpt>
      <trkpt lat="43.60984" lon="6.8901">
        <ele>22.60000038147</ele>
        <time>2013-06-20T17:37:27.000Z</time>
      </trkpt>
      <trkpt lat="43.60994" lon="6.8902">
        <ele>22.60000038147</ele>
        <time>2013-06-20T17:37:29.000Z</time>
      </trkpt>
      <trkpt lat="43.60999" lon="6.89024">
        <ele>22.200000762939</ele>
        <time>2013-06-20T17:37:30.000Z</time>
      </trkpt>
      <trkpt lat="43.61022" lon="6.89043">
        <ele>22.200000762939</ele>
        <time>2013-06-20T17:37:35.000Z</time>
      </trkpt>
      <trkpt lat="43.61026" lon="6.89048">
        <ele>22</ele>
        <time>2013-06-20T17:37:36.000Z</time>
      </trkpt>
      <trkpt lat="43.61034" lon="6.89057">
        <ele>22</ele>
        <time>2013-06-20T17:37:38.000Z</time>
      </trkpt>
      <trkpt lat="43.61049" lon="6.89068">
        <ele>22</ele>
        <time>2013-06-20T17:37:41.000Z</time>
      </trkpt>
      <trkpt lat="43.61059" lon="6.89079">
        <ele>21.60000038147</ele>
        <time>2013-06-20T17:37:44.000Z</time>
      </trkpt>
      <trkpt lat="43.61083" lon="6.89089">
        <ele>21.60000038147</ele>
        <time>2013-06-20T17:37:49.000Z</time>
      </trkpt>
      <trkpt lat="43.61088" lon="6.89091">
        <ele>21.60000038147</ele>
        <time>2013-06-20T17:37:50.000Z</time>
      </trkpt>
      <trkpt lat="43.61096" lon="6.89097">
        <ele>21.60000038147</ele>
        <time>2013-06-20T17:37:52.000Z</time>
      </trkpt>
      <trkpt lat="43.6111" lon="6.89111">
        <ele>21.60000038147</ele>
        <time>2013-06-20T17:37:56.000Z</time>
      </trkpt>
      <trkpt lat="43.61124" lon="6.89123">
        <ele>21.60000038147</ele>
        <time>2013-06-20T17:37:59.000Z</time>
      </trkpt>
      <trkpt lat="43.61141" lon="6.89145">
        <ele>21.60000038147</ele>
        <time>2013-06-20T17:38:03.000Z</time>
      </trkpt>
      <trkpt lat="43.61153" lon="6.89162">
        <ele>21.60000038147</ele>
        <time>2013-06-20T17:38:06.000Z</time>
      </trkpt>
      <trkpt lat="43.6119" lon="6.89202">
        <ele>21.60000038147</ele>
        <time>2013-06-20T17:38:13.000Z</time>
      </trkpt>
      <trkpt lat="43.61195" lon="6.89209">
        <ele>21.60000038147</ele>
        <time>2013-06-20T17:38:14.000Z</time>
      </trkpt>
      <trkpt lat="43.6121" lon="6.89227">
        <ele>21.200000762939</ele>
        <time>2013-06-20T17:38:17.000Z</time>
      </trkpt>
      <trkpt lat="43.6122" lon="6.8924">
        <ele>21</ele>
        <time>2013-06-20T17:38:19.000Z</time>
      </trkpt>
      <trkpt lat="43.61224" lon="6.89245">
        <ele>21</ele>
        <time>2013-06-20T17:38:20.000Z</time>
      </trkpt>
      <trkpt lat="43.61228" lon="6.89267">
        <ele>20.60000038147</ele>
        <time>2013-06-20T17:38:23.000Z</time>
      </trkpt>
      <trkpt lat="43.61228" lon="6.89275">
        <ele>20.200000762939</ele>
        <time>2013-06-20T17:38:24.000Z</time>
      </trkpt>
      <trkpt lat="43.61236" lon="6.8929">
        <ele>20.200000762939</ele>
        <time>2013-06-20T17:38:27.000Z</time>
      </trkpt>
      <trkpt lat="43.6123" lon="6.89331">
        <ele>19.60000038147</ele>
        <time>2013-06-20T17:38:32.000Z</time>
      </trkpt>
      <trkpt lat="43.61218" lon="6.8936">
        <ele>19.60000038147</ele>
        <time>2013-06-20T17:38:36.000Z</time>
      </trkpt>
      <trkpt lat="43.61207" lon="6.89377">
        <ele>19.60000038147</ele>
        <time>2013-06-20T17:38:39.000Z</time>
      </trkpt>
      <trkpt lat="43.61201" lon="6.8939">
        <ele>19.60000038147</ele>
        <time>2013-06-20T17:38:41.000Z</time>
      </trkpt>
      <trkpt lat="43.61191" lon="6.8941">
        <ele>19.60000038147</ele>
        <time>2013-06-20T17:38:45.000Z</time>
      </trkpt>
      <trkpt lat="43.61184" lon="6.89423">
        <ele>19.60000038147</ele>
        <time>2013-06-20T17:38:47.000Z</time>
      </trkpt>
      <trkpt lat="43.61174" lon="6.89434">
        <ele>19.60000038147</ele>
        <time>2013-06-20T17:38:49.000Z</time>
      </trkpt>
      <trkpt lat="43.61139" lon="6.89462">
        <ele>19.200000762939</ele>
        <time>2013-06-20T17:38:56.000Z</time>
      </trkpt>
      <trkpt lat="43.61133" lon="6.89468">
        <ele>19.200000762939</ele>
        <time>2013-06-20T17:38:57.000Z</time>
      </trkpt>
      <trkpt lat="43.61089" lon="6.89498">
        <ele>19.200000762939</ele>
        <time>2013-06-20T17:39:05.000Z</time>
      </trkpt>
      <trkpt lat="43.61059" lon="6.89521">
        <ele>19.200000762939</ele>
        <time>2013-06-20T17:39:11.000Z</time>
      </trkpt>
      <trkpt lat="43.61038" lon="6.89536">
        <ele>19.200000762939</ele>
        <time>2013-06-20T17:39:15.000Z</time>
      </trkpt>
      <trkpt lat="43.61007" lon="6.89557">
        <ele>19.200000762939</ele>
        <time>2013-06-20T17:39:21.000Z</time>
      </trkpt>
      <trkpt lat="43.61003" lon="6.89561">
        <ele>19.200000762939</ele>
        <time>2013-06-20T17:39:22.000Z</time>
      </trkpt>
      <trkpt lat="43.60974" lon="6.89585">
        <ele>19.200000762939</ele>
        <time>2013-06-20T17:39:28.000Z</time>
      </trkpt>
      <trkpt lat="43.6097" lon="6.8959">
        <ele>19</ele>
        <time>2013-06-20T17:39:29.000Z</time>
      </trkpt>
      <trkpt lat="43.60965" lon="6.89596">
        <ele>18.60000038147</ele>
        <time>2013-06-20T17:39:30.000Z</time>
      </trkpt>
      <trkpt lat="43.60956" lon="6.89606">
        <ele>18.60000038147</ele>
        <time>2013-06-20T17:39:32.000Z</time>
      </trkpt>
      <trkpt lat="43.60948" lon="6.89615">
        <ele>18.200000762939</ele>
        <time>2013-06-20T17:39:34.000Z</time>
      </trkpt>
      <trkpt lat="43.60944" lon="6.8962">
        <ele>18.200000762939</ele>
        <time>2013-06-20T17:39:35.000Z</time>
      </trkpt>
      <trkpt lat="43.60941" lon="6.89625">
        <ele>18.200000762939</ele>
        <time>2013-06-20T17:39:36.000Z</time>
      </trkpt>
      <trkpt lat="43.60938" lon="6.8963">
        <ele>18</ele>
        <time>2013-06-20T17:39:37.000Z</time>
      </trkpt>
      <trkpt lat="43.6093" lon="6.89649">
        <ele>17.60000038147</ele>
        <time>2013-06-20T17:39:40.000Z</time>
      </trkpt>
      <trkpt lat="43.60917" lon="6.89679">
        <ele>17.60000038147</ele>
        <time>2013-06-20T17:39:45.000Z</time>
      </trkpt>
      <trkpt lat="43.60908" lon="6.897">
        <ele>17.200000762939</ele>
        <time>2013-06-20T17:39:49.000Z</time>
      </trkpt>
      <trkpt lat="43.60898" lon="6.89718">
        <ele>17.200000762939</ele>
        <time>2013-06-20T17:39:52.000Z</time>
      </trkpt>
      <trkpt lat="43.60883" lon="6.89748">
        <ele>17.200000762939</ele>
        <time>2013-06-20T17:39:57.000Z</time>
      </trkpt>
      <trkpt lat="43.60875" lon="6.89759">
        <ele>17.200000762939</ele>
        <time>2013-06-20T17:39:59.000Z</time>
      </trkpt>
      <trkpt lat="43.60851" lon="6.89792">
        <ele>17.200000762939</ele>
        <time>2013-06-20T17:40:05.000Z</time>
      </trkpt>
      <trkpt lat="43.6083" lon="6.89812">
        <ele>17.200000762939</ele>
        <time>2013-06-20T17:40:10.000Z</time>
      </trkpt>
      <trkpt lat="43.60809" lon="6.89831">
        <ele>17.200000762939</ele>
        <time>2013-06-20T17:40:15.000Z</time>
      </trkpt>
      <trkpt lat="43.60793" lon="6.8986">
        <ele>17.200000762939</ele>
        <time>2013-06-20T17:40:20.000Z</time>
      </trkpt>
      <trkpt lat="43.60791" lon="6.89866">
        <ele>17.200000762939</ele>
        <time>2013-06-20T17:40:21.000Z</time>
      </trkpt>
      <trkpt lat="43.6078" lon="6.89901">
        <ele>17.200000762939</ele>
        <time>2013-06-20T17:40:26.000Z</time>
      </trkpt>
      <trkpt lat="43.60776" lon="6.89916">
        <ele>17.200000762939</ele>
        <time>2013-06-20T17:40:28.000Z</time>
      </trkpt>
      <trkpt lat="43.60748" lon="6.89968">
        <ele>17</ele>
        <time>2013-06-20T17:40:36.000Z</time>
      </trkpt>
      <trkpt lat="43.60742" lon="6.8998">
        <ele>16.60000038147</ele>
        <time>2013-06-20T17:40:38.000Z</time>
      </trkpt>
      <trkpt lat="43.60735" lon="6.89993">
        <ele>16.200000762939</ele>
        <time>2013-06-20T17:40:40.000Z</time>
      </trkpt>
      <trkpt lat="43.6073" lon="6.90006">
        <ele>16.200000762939</ele>
        <time>2013-06-20T17:40:42.000Z</time>
      </trkpt>
      <trkpt lat="43.60724" lon="6.90018">
        <ele>16</ele>
        <time>2013-06-20T17:40:44.000Z</time>
      </trkpt>
      <trkpt lat="43.60706" lon="6.90056">
        <ele>15.60000038147</ele>
        <time>2013-06-20T17:40:50.000Z</time>
      </trkpt>
      <trkpt lat="43.60677" lon="6.90104">
        <ele>15.199999809265</ele>
        <time>2013-06-20T17:40:59.000Z</time>
      </trkpt>
      <trkpt lat="43.60669" lon="6.90114">
        <ele>15.199999809265</ele>
        <time>2013-06-20T17:41:01.000Z</time>
      </trkpt>
      <trkpt lat="43.60657" lon="6.90143">
        <ele>15</ele>
        <time>2013-06-20T17:41:06.000Z</time>
      </trkpt>
      <trkpt lat="43.60657" lon="6.9015">
        <ele>15</ele>
        <time>2013-06-20T17:41:07.000Z</time>
      </trkpt>
      <trkpt lat="43.60656" lon="6.9018">
        <ele>15</ele>
        <time>2013-06-20T17:41:11.000Z</time>
      </trkpt>
      <trkpt lat="43.60654" lon="6.90206">
        <ele>15</ele>
        <time>2013-06-20T17:41:15.000Z</time>
      </trkpt>
      <trkpt lat="43.60654" lon="6.90218">
        <ele>15</ele>
        <time>2013-06-20T17:41:17.000Z</time>
      </trkpt>
      <trkpt lat="43.60656" lon="6.90242">
        <ele>15</ele>
        <time>2013-06-20T17:41:21.000Z</time>
      </trkpt>
      <trkpt lat="43.60661" lon="6.90263">
        <ele>15</ele>
        <time>2013-06-20T17:41:25.000Z</time>
      </trkpt>
      <trkpt lat="43.60662" lon="6.90283">
        <ele>15</ele>
        <time>2013-06-20T17:41:28.000Z</time>
      </trkpt>
      <trkpt lat="43.60656" lon="6.90296">
        <ele>15</ele>
        <time>2013-06-20T17:41:30.000Z</time>
      </trkpt>
      <trkpt lat="43.60637" lon="6.90329">
        <ele>15.199999809265</ele>
        <time>2013-06-20T17:41:37.000Z</time>
      </trkpt>
      <trkpt lat="43.60633" lon="6.90336">
        <ele>15.800000190735</ele>
        <time>2013-06-20T17:41:39.000Z</time>
      </trkpt>
      <trkpt lat="43.60631" lon="6.90342">
        <ele>16</ele>
        <time>2013-06-20T17:41:41.000Z</time>
      </trkpt>
      <trkpt lat="43.60628" lon="6.90347">
        <ele>16.60000038147</ele>
        <time>2013-06-20T17:41:43.000Z</time>
      </trkpt>
      <trkpt lat="43.60626" lon="6.90354">
        <ele>17.200000762939</ele>
        <time>2013-06-20T17:41:45.000Z</time>
      </trkpt>
      <trkpt lat="43.60624" lon="6.9036">
        <ele>17.60000038147</ele>
        <time>2013-06-20T17:41:47.000Z</time>
      </trkpt>
      <trkpt lat="43.60622" lon="6.90363">
        <ele>17.60000038147</ele>
        <time>2013-06-20T17:41:48.000Z</time>
      </trkpt>
      <trkpt lat="43.6062" lon="6.90368">
        <ele>18.200000762939</ele>
        <time>2013-06-20T17:41:50.000Z</time>
      </trkpt>
      <trkpt lat="43.60618" lon="6.90374">
        <ele>19</ele>
        <time>2013-06-20T17:41:52.000Z</time>
      </trkpt>
      <trkpt lat="43.60615" lon="6.90381">
        <ele>19.60000038147</ele>
        <time>2013-06-20T17:41:54.000Z</time>
      </trkpt>
      <trkpt lat="43.60612" lon="6.90388">
        <ele>20</ele>
        <time>2013-06-20T17:41:56.000Z</time>
      </trkpt>
      <trkpt lat="43.6061" lon="6.90392">
        <ele>20.200000762939</ele>
        <time>2013-06-20T17:41:57.000Z</time>
      </trkpt>
      <trkpt lat="43.60606" lon="6.90397">
        <ele>21</ele>
        <time>2013-06-20T17:41:59.000Z</time>
      </trkpt>
      <trkpt lat="43.60601" lon="6.90404">
        <ele>21.60000038147</ele>
        <time>2013-06-20T17:42:01.000Z</time>
      </trkpt>
      <trkpt lat="43.60597" lon="6.90411">
        <ele>22</ele>
        <time>2013-06-20T17:42:03.000Z</time>
      </trkpt>
      <trkpt lat="43.60592" lon="6.90417">
        <ele>22.200000762939</ele>
        <time>2013-06-20T17:42:05.000Z</time>
      </trkpt>
      <trkpt lat="43.60587" lon="6.90422">
        <ele>22.60000038147</ele>
        <time>2013-06-20T17:42:07.000Z</time>
      </trkpt>
      <trkpt lat="43.60583" lon="6.90427">
        <ele>23.200000762939</ele>
        <time>2013-06-20T17:42:09.000Z</time>
      </trkpt>
      <trkpt lat="43.60582" lon="6.90429">
        <ele>23.60000038147</ele>
        <time>2013-06-20T17:42:10.000Z</time>
      </trkpt>
      <trkpt lat="43.60579" lon="6.90431">
        <ele>24</ele>
        <time>2013-06-20T17:42:11.000Z</time>
      </trkpt>
      <trkpt lat="43.60576" lon="6.90436">
        <ele>24.200000762939</ele>
        <time>2013-06-20T17:42:13.000Z</time>
      </trkpt>
      <trkpt lat="43.60573" lon="6.90438">
        <ele>24.60000038147</ele>
        <time>2013-06-20T17:42:14.000Z</time>
      </trkpt>
      <trkpt lat="43.6057" lon="6.9045">
        <ele>25.200000762939</ele>
        <time>2013-06-20T17:42:17.000Z</time>
      </trkpt>
      <trkpt lat="43.60569" lon="6.90454">
        <ele>25.200000762939</ele>
        <time>2013-06-20T17:42:18.000Z</time>
      </trkpt>
      <trkpt lat="43.60567" lon="6.90465">
        <ele>26.200000762939</ele>
        <time>2013-06-20T17:42:21.000Z</time>
      </trkpt>
      <trkpt lat="43.60564" lon="6.90472">
        <ele>26.60000038147</ele>
        <time>2013-06-20T17:42:23.000Z</time>
      </trkpt>
      <trkpt lat="43.60561" lon="6.9048">
        <ele>26.60000038147</ele>
        <time>2013-06-20T17:42:25.000Z</time>
      </trkpt>
      <trkpt lat="43.6056" lon="6.90484">
        <ele>27</ele>
        <time>2013-06-20T17:42:26.000Z</time>
      </trkpt>
      <trkpt lat="43.60551" lon="6.90513">
        <ele>27.60000038147</ele>
        <time>2013-06-20T17:42:33.000Z</time>
      </trkpt>
      <trkpt lat="43.60552" lon="6.90516">
        <ele>27.60000038147</ele>
        <time>2013-06-20T17:42:34.000Z</time>
      </trkpt>
      <trkpt lat="43.60554" lon="6.90519">
        <ele>27.60000038147</ele>
        <time>2013-06-20T17:42:35.000Z</time>
      </trkpt>
      <trkpt lat="43.6056" lon="6.90521">
        <ele>28.200000762939</ele>
        <time>2013-06-20T17:42:37.000Z</time>
      </trkpt>
      <trkpt lat="43.60562" lon="6.90522">
        <ele>28.200000762939</ele>
        <time>2013-06-20T17:42:38.000Z</time>
      </trkpt>
      <trkpt lat="43.60568" lon="6.90525">
        <ele>29</ele>
        <time>2013-06-20T17:42:41.000Z</time>
      </trkpt>
      <trkpt lat="43.60568" lon="6.9053">
        <ele>29.200000762939</ele>
        <time>2013-06-20T17:42:43.000Z</time>
      </trkpt>
      <trkpt lat="43.60568" lon="6.90532">
        <ele>29.60000038147</ele>
        <time>2013-06-20T17:42:44.000Z</time>
      </trkpt>
      <trkpt lat="43.60566" lon="6.90536">
        <ele>30.200000762939</ele>
        <time>2013-06-20T17:42:46.000Z</time>
      </trkpt>
      <trkpt lat="43.60566" lon="6.90538">
        <ele>30.60000038147</ele>
        <time>2013-06-20T17:42:47.000Z</time>
      </trkpt>
      <trkpt lat="43.60568" lon="6.90539">
        <ele>31.200000762939</ele>
        <time>2013-06-20T17:42:50.000Z</time>
      </trkpt>
      <trkpt lat="43.60565" lon="6.9054">
        <ele>33</ele>
        <time>2013-06-20T17:43:27.000Z</time>
      </trkpt>
    </trkseg>
  </trk>
</gpx>